<?xml version="1.0" encoding="UTF-8" standalone="no" ?>
<gpx xmlns="http://www.topografix.com/GPX/1/1" xmlns:xsi="http://www.w3.org/2001/XMLSchema-instance" xsi:schemaLocation="http://www.topografix.com/GPX/1/1 http://www.topografix.com/GPX/1/1/gpx.xsd" version="1.1" creator="VisuGPX - https://www.visugpx.com">
  <metadata>
    <name>La Chabre</name>
    <desc><![CDATA[Circuit en huit au départ de Dassaud : passage au hameau Le Thuel en traversant les "Plan du Saut" et "Grand Bois", retour de la première boucle par le chemin de Pitelet et à travers le Bois Layat. On croise au passage la Goutte Charmette. Suivre les flèches sur la gauche au croisement de la première boucle. On enjambera le ruisseau de la Gelle grâce à un joli petit pont de pierres. Descente par les pentes boisées en direction de Saint-Victor, vue sur le Rocher d'Hubert depuis le moulin Ligonet. Possibilité de rejoindre la Credogne au Pont de l'Enfer (A/R environ 1 km suppl.). Remontée à Dassaud par le chemin de Reviron en longeant et coupant la Goutte de Pirolle.]]></desc>
  </metadata>
  <trk>
    <name><![CDATA[Dassaud-Dassaud]]></name>
    <trkseg>
      <trkpt lat="45.94932" lon="3.61602">
        <ele>781.4</ele>
        <time>2018-12-23T08:20:07Z</time>
      </trkpt>
      <trkpt lat="45.94936" lon="3.61604">
        <ele>781.4</ele>
        <time>2018-12-23T08:20:12Z</time>
      </trkpt>
      <trkpt lat="45.94939" lon="3.61604">
        <ele>781.3</ele>
        <time>2018-12-23T08:20:14Z</time>
      </trkpt>
      <trkpt lat="45.94943" lon="3.61605">
        <ele>781.2</ele>
        <time>2018-12-23T08:20:17Z</time>
      </trkpt>
      <trkpt lat="45.94947" lon="3.61604">
        <ele>781.2</ele>
        <time>2018-12-23T08:20:20Z</time>
      </trkpt>
      <trkpt lat="45.9495" lon="3.61605">
        <ele>781.2</ele>
        <time>2018-12-23T08:20:23Z</time>
      </trkpt>
      <trkpt lat="45.94954" lon="3.61605">
        <ele>781.2</ele>
        <time>2018-12-23T08:20:26Z</time>
      </trkpt>
      <trkpt lat="45.94956" lon="3.61605">
        <ele>781.2</ele>
        <time>2018-12-23T08:20:29Z</time>
      </trkpt>
      <trkpt lat="45.94959" lon="3.61607">
        <ele>781.3</ele>
        <time>2018-12-23T08:20:34Z</time>
      </trkpt>
      <trkpt lat="45.94956" lon="3.61608">
        <ele>781.4</ele>
        <time>2018-12-23T08:20:46Z</time>
      </trkpt>
      <trkpt lat="45.94959" lon="3.6161">
        <ele>781.5</ele>
        <time>2018-12-23T08:21:31Z</time>
      </trkpt>
      <trkpt lat="45.94963" lon="3.61611">
        <ele>781.8</ele>
        <time>2018-12-23T08:21:34Z</time>
      </trkpt>
      <trkpt lat="45.94966" lon="3.61611">
        <ele>782</ele>
        <time>2018-12-23T08:21:36Z</time>
      </trkpt>
      <trkpt lat="45.94969" lon="3.61612">
        <ele>782.3</ele>
        <time>2018-12-23T08:21:38Z</time>
      </trkpt>
      <trkpt lat="45.94972" lon="3.61613">
        <ele>782.5</ele>
        <time>2018-12-23T08:21:40Z</time>
      </trkpt>
      <trkpt lat="45.94975" lon="3.61613">
        <ele>782.7</ele>
        <time>2018-12-23T08:21:42Z</time>
      </trkpt>
      <trkpt lat="45.94979" lon="3.61613">
        <ele>782.9</ele>
        <time>2018-12-23T08:21:44Z</time>
      </trkpt>
      <trkpt lat="45.94982" lon="3.61614">
        <ele>783.1</ele>
        <time>2018-12-23T08:21:46Z</time>
      </trkpt>
      <trkpt lat="45.94985" lon="3.61615">
        <ele>783.3</ele>
        <time>2018-12-23T08:21:49Z</time>
      </trkpt>
      <trkpt lat="45.94988" lon="3.61616">
        <ele>783.5</ele>
        <time>2018-12-23T08:21:52Z</time>
      </trkpt>
      <trkpt lat="45.94992" lon="3.61617">
        <ele>783.7</ele>
        <time>2018-12-23T08:21:55Z</time>
      </trkpt>
      <trkpt lat="45.94994" lon="3.61619">
        <ele>783.8</ele>
        <time>2018-12-23T08:21:57Z</time>
      </trkpt>
      <trkpt lat="45.94997" lon="3.61621">
        <ele>784</ele>
        <time>2018-12-23T08:22:00Z</time>
      </trkpt>
      <trkpt lat="45.95" lon="3.61621">
        <ele>784.1</ele>
        <time>2018-12-23T08:22:03Z</time>
      </trkpt>
      <trkpt lat="45.95003" lon="3.61623">
        <ele>784.3</ele>
        <time>2018-12-23T08:22:14Z</time>
      </trkpt>
      <trkpt lat="45.95005" lon="3.61627">
        <ele>784.4</ele>
        <time>2018-12-23T08:22:17Z</time>
      </trkpt>
      <trkpt lat="45.95008" lon="3.61629">
        <ele>784.6</ele>
        <time>2018-12-23T08:22:23Z</time>
      </trkpt>
      <trkpt lat="45.95011" lon="3.6163">
        <ele>784.7</ele>
        <time>2018-12-23T08:22:29Z</time>
      </trkpt>
      <trkpt lat="45.95014" lon="3.61632">
        <ele>784.9</ele>
        <time>2018-12-23T08:22:32Z</time>
      </trkpt>
      <trkpt lat="45.95015" lon="3.61637">
        <ele>785.1</ele>
        <time>2018-12-23T08:22:38Z</time>
      </trkpt>
      <trkpt lat="45.95017" lon="3.61641">
        <ele>785.4</ele>
        <time>2018-12-23T08:22:41Z</time>
      </trkpt>
      <trkpt lat="45.95018" lon="3.61644">
        <ele>785.6</ele>
        <time>2018-12-23T08:22:43Z</time>
      </trkpt>
      <trkpt lat="45.95021" lon="3.61648">
        <ele>785.9</ele>
        <time>2018-12-23T08:22:46Z</time>
      </trkpt>
      <trkpt lat="45.95024" lon="3.61651">
        <ele>786.1</ele>
        <time>2018-12-23T08:22:49Z</time>
      </trkpt>
      <trkpt lat="45.95026" lon="3.61655">
        <ele>786.2</ele>
        <time>2018-12-23T08:22:52Z</time>
      </trkpt>
      <trkpt lat="45.95028" lon="3.61659">
        <ele>786.4</ele>
        <time>2018-12-23T08:22:54Z</time>
      </trkpt>
      <trkpt lat="45.95029" lon="3.61662">
        <ele>786.5</ele>
        <time>2018-12-23T08:22:56Z</time>
      </trkpt>
      <trkpt lat="45.9503" lon="3.61666">
        <ele>786.7</ele>
        <time>2018-12-23T08:22:58Z</time>
      </trkpt>
      <trkpt lat="45.9503" lon="3.6167">
        <ele>786.9</ele>
        <time>2018-12-23T08:23:00Z</time>
      </trkpt>
      <trkpt lat="45.9503" lon="3.61675">
        <ele>787.2</ele>
        <time>2018-12-23T08:23:03Z</time>
      </trkpt>
      <trkpt lat="45.95029" lon="3.6168">
        <ele>787.5</ele>
        <time>2018-12-23T08:23:05Z</time>
      </trkpt>
      <trkpt lat="45.95029" lon="3.61684">
        <ele>787.7</ele>
        <time>2018-12-23T08:23:07Z</time>
      </trkpt>
      <trkpt lat="45.95029" lon="3.61689">
        <ele>788</ele>
        <time>2018-12-23T08:23:11Z</time>
      </trkpt>
      <trkpt lat="45.95029" lon="3.61693">
        <ele>788.3</ele>
        <time>2018-12-23T08:23:14Z</time>
      </trkpt>
      <trkpt lat="45.95028" lon="3.61698">
        <ele>788.5</ele>
        <time>2018-12-23T08:23:17Z</time>
      </trkpt>
      <trkpt lat="45.95028" lon="3.61702">
        <ele>788.6</ele>
        <time>2018-12-23T08:23:19Z</time>
      </trkpt>
      <trkpt lat="45.95027" lon="3.61708">
        <ele>788.8</ele>
        <time>2018-12-23T08:23:22Z</time>
      </trkpt>
      <trkpt lat="45.95027" lon="3.61712">
        <ele>789</ele>
        <time>2018-12-23T08:23:24Z</time>
      </trkpt>
      <trkpt lat="45.95027" lon="3.61717">
        <ele>789.2</ele>
        <time>2018-12-23T08:23:27Z</time>
      </trkpt>
      <trkpt lat="45.9503" lon="3.61719">
        <ele>790.5</ele>
        <time>2018-12-23T08:24:11Z</time>
      </trkpt>
      <trkpt lat="45.95033" lon="3.61722">
        <ele>790.5</ele>
        <time>2018-12-23T08:24:18Z</time>
      </trkpt>
      <trkpt lat="45.95033" lon="3.61726">
        <ele>790.5</ele>
        <time>2018-12-23T08:24:21Z</time>
      </trkpt>
      <trkpt lat="45.95033" lon="3.61731">
        <ele>790.5</ele>
        <time>2018-12-23T08:24:28Z</time>
      </trkpt>
      <trkpt lat="45.95035" lon="3.61733">
        <ele>790.6</ele>
        <time>2018-12-23T08:24:33Z</time>
      </trkpt>
      <trkpt lat="45.95035" lon="3.61737">
        <ele>790.8</ele>
        <time>2018-12-23T08:24:51Z</time>
      </trkpt>
      <trkpt lat="45.95036" lon="3.61742">
        <ele>791</ele>
        <time>2018-12-23T08:25:57Z</time>
      </trkpt>
      <trkpt lat="45.95035" lon="3.61747">
        <ele>791.3</ele>
        <time>2018-12-23T08:26:00Z</time>
      </trkpt>
      <trkpt lat="45.95036" lon="3.61751">
        <ele>791.5</ele>
        <time>2018-12-23T08:26:03Z</time>
      </trkpt>
      <trkpt lat="45.95034" lon="3.61755">
        <ele>791.8</ele>
        <time>2018-12-23T08:26:18Z</time>
      </trkpt>
      <trkpt lat="45.95034" lon="3.61759">
        <ele>792</ele>
        <time>2018-12-23T08:26:22Z</time>
      </trkpt>
      <trkpt lat="45.95034" lon="3.61764">
        <ele>792.2</ele>
        <time>2018-12-23T08:26:55Z</time>
      </trkpt>
      <trkpt lat="45.95033" lon="3.61769">
        <ele>792.5</ele>
        <time>2018-12-23T08:26:58Z</time>
      </trkpt>
      <trkpt lat="45.95033" lon="3.61773">
        <ele>792.7</ele>
        <time>2018-12-23T08:27:01Z</time>
      </trkpt>
      <trkpt lat="45.95032" lon="3.61777">
        <ele>792.7</ele>
        <time>2018-12-23T08:27:05Z</time>
      </trkpt>
      <trkpt lat="45.9503" lon="3.61782">
        <ele>792.7</ele>
        <time>2018-12-23T08:27:08Z</time>
      </trkpt>
      <trkpt lat="45.95028" lon="3.61784">
        <ele>792.6</ele>
        <time>2018-12-23T08:27:12Z</time>
      </trkpt>
      <trkpt lat="45.95027" lon="3.61788">
        <ele>792.6</ele>
        <time>2018-12-23T08:27:15Z</time>
      </trkpt>
      <trkpt lat="45.95025" lon="3.61793">
        <ele>792.6</ele>
        <time>2018-12-23T08:27:18Z</time>
      </trkpt>
      <trkpt lat="45.95022" lon="3.61797">
        <ele>792.3</ele>
        <time>2018-12-23T08:27:21Z</time>
      </trkpt>
      <trkpt lat="45.95019" lon="3.618">
        <ele>792</ele>
        <time>2018-12-23T08:27:24Z</time>
      </trkpt>
      <trkpt lat="45.95015" lon="3.61802">
        <ele>791.6</ele>
        <time>2018-12-23T08:27:27Z</time>
      </trkpt>
      <trkpt lat="45.95011" lon="3.61803">
        <ele>791.3</ele>
        <time>2018-12-23T08:27:30Z</time>
      </trkpt>
      <trkpt lat="45.95008" lon="3.61806">
        <ele>790.9</ele>
        <time>2018-12-23T08:27:33Z</time>
      </trkpt>
      <trkpt lat="45.95005" lon="3.61808">
        <ele>790.6</ele>
        <time>2018-12-23T08:27:35Z</time>
      </trkpt>
      <trkpt lat="45.95002" lon="3.61811">
        <ele>790.1</ele>
        <time>2018-12-23T08:27:38Z</time>
      </trkpt>
      <trkpt lat="45.95" lon="3.61813">
        <ele>789.8</ele>
        <time>2018-12-23T08:27:40Z</time>
      </trkpt>
      <trkpt lat="45.94997" lon="3.61816">
        <ele>789.4</ele>
        <time>2018-12-23T08:27:42Z</time>
      </trkpt>
      <trkpt lat="45.94994" lon="3.61819">
        <ele>788.7</ele>
        <time>2018-12-23T08:27:45Z</time>
      </trkpt>
      <trkpt lat="45.9499" lon="3.61821">
        <ele>788</ele>
        <time>2018-12-23T08:27:48Z</time>
      </trkpt>
      <trkpt lat="45.94988" lon="3.61822">
        <ele>787.6</ele>
        <time>2018-12-23T08:27:50Z</time>
      </trkpt>
      <trkpt lat="45.94985" lon="3.61824">
        <ele>787.3</ele>
        <time>2018-12-23T08:27:52Z</time>
      </trkpt>
      <trkpt lat="45.94981" lon="3.61826">
        <ele>786.8</ele>
        <time>2018-12-23T08:27:55Z</time>
      </trkpt>
      <trkpt lat="45.94978" lon="3.61829">
        <ele>786.3</ele>
        <time>2018-12-23T08:27:58Z</time>
      </trkpt>
      <trkpt lat="45.94975" lon="3.61831">
        <ele>785.9</ele>
        <time>2018-12-23T08:28:00Z</time>
      </trkpt>
      <trkpt lat="45.94972" lon="3.61835">
        <ele>785.1</ele>
        <time>2018-12-23T08:28:03Z</time>
      </trkpt>
      <trkpt lat="45.9497" lon="3.61837">
        <ele>784.5</ele>
        <time>2018-12-23T08:28:05Z</time>
      </trkpt>
      <trkpt lat="45.94966" lon="3.61839">
        <ele>783.8</ele>
        <time>2018-12-23T08:28:08Z</time>
      </trkpt>
      <trkpt lat="45.94963" lon="3.61841">
        <ele>783.2</ele>
        <time>2018-12-23T08:28:11Z</time>
      </trkpt>
      <trkpt lat="45.9496" lon="3.61845">
        <ele>782.4</ele>
        <time>2018-12-23T08:28:14Z</time>
      </trkpt>
      <trkpt lat="45.94957" lon="3.61847">
        <ele>781.7</ele>
        <time>2018-12-23T08:28:16Z</time>
      </trkpt>
      <trkpt lat="45.94955" lon="3.61851">
        <ele>780.7</ele>
        <time>2018-12-23T08:28:19Z</time>
      </trkpt>
      <trkpt lat="45.94953" lon="3.61853">
        <ele>780.1</ele>
        <time>2018-12-23T08:28:21Z</time>
      </trkpt>
      <trkpt lat="45.9495" lon="3.61856">
        <ele>779.4</ele>
        <time>2018-12-23T08:28:24Z</time>
      </trkpt>
      <trkpt lat="45.94947" lon="3.61859">
        <ele>778.7</ele>
        <time>2018-12-23T08:28:27Z</time>
      </trkpt>
      <trkpt lat="45.94943" lon="3.6186">
        <ele>778.1</ele>
        <time>2018-12-23T08:28:30Z</time>
      </trkpt>
      <trkpt lat="45.94939" lon="3.61862">
        <ele>777.4</ele>
        <time>2018-12-23T08:28:33Z</time>
      </trkpt>
      <trkpt lat="45.94937" lon="3.61863">
        <ele>776.8</ele>
        <time>2018-12-23T08:28:35Z</time>
      </trkpt>
      <trkpt lat="45.94934" lon="3.61865">
        <ele>776.1</ele>
        <time>2018-12-23T08:28:37Z</time>
      </trkpt>
      <trkpt lat="45.94931" lon="3.61867">
        <ele>775.4</ele>
        <time>2018-12-23T08:28:40Z</time>
      </trkpt>
      <trkpt lat="45.94928" lon="3.61868">
        <ele>775</ele>
        <time>2018-12-23T08:28:42Z</time>
      </trkpt>
      <trkpt lat="45.94925" lon="3.6187">
        <ele>774.6</ele>
        <time>2018-12-23T08:28:44Z</time>
      </trkpt>
      <trkpt lat="45.94922" lon="3.61872">
        <ele>774.3</ele>
        <time>2018-12-23T08:28:46Z</time>
      </trkpt>
      <trkpt lat="45.94919" lon="3.61872">
        <ele>774</ele>
        <time>2018-12-23T08:28:49Z</time>
      </trkpt>
      <trkpt lat="45.94916" lon="3.61873">
        <ele>773.7</ele>
        <time>2018-12-23T08:28:51Z</time>
      </trkpt>
      <trkpt lat="45.94914" lon="3.61875">
        <ele>773.2</ele>
        <time>2018-12-23T08:28:53Z</time>
      </trkpt>
      <trkpt lat="45.9491" lon="3.61877">
        <ele>772.4</ele>
        <time>2018-12-23T08:28:56Z</time>
      </trkpt>
      <trkpt lat="45.94907" lon="3.61879">
        <ele>772</ele>
        <time>2018-12-23T08:28:58Z</time>
      </trkpt>
      <trkpt lat="45.94905" lon="3.61881">
        <ele>771.9</ele>
        <time>2018-12-23T08:29:00Z</time>
      </trkpt>
      <trkpt lat="45.94902" lon="3.61884">
        <ele>771.7</ele>
        <time>2018-12-23T08:29:02Z</time>
      </trkpt>
      <trkpt lat="45.949" lon="3.61887">
        <ele>771.6</ele>
        <time>2018-12-23T08:29:04Z</time>
      </trkpt>
      <trkpt lat="45.94897" lon="3.61891">
        <ele>771.4</ele>
        <time>2018-12-23T08:29:06Z</time>
      </trkpt>
      <trkpt lat="45.94895" lon="3.61893">
        <ele>771.3</ele>
        <time>2018-12-23T08:29:08Z</time>
      </trkpt>
      <trkpt lat="45.94892" lon="3.61897">
        <ele>770.9</ele>
        <time>2018-12-23T08:29:11Z</time>
      </trkpt>
      <trkpt lat="45.94891" lon="3.61901">
        <ele>770.7</ele>
        <time>2018-12-23T08:29:13Z</time>
      </trkpt>
      <trkpt lat="45.94889" lon="3.61904">
        <ele>770.5</ele>
        <time>2018-12-23T08:29:15Z</time>
      </trkpt>
      <trkpt lat="45.94888" lon="3.61907">
        <ele>770.3</ele>
        <time>2018-12-23T08:29:17Z</time>
      </trkpt>
      <trkpt lat="45.94886" lon="3.61911">
        <ele>770.1</ele>
        <time>2018-12-23T08:29:19Z</time>
      </trkpt>
      <trkpt lat="45.94883" lon="3.61915">
        <ele>769.9</ele>
        <time>2018-12-23T08:29:22Z</time>
      </trkpt>
      <trkpt lat="45.94881" lon="3.61918">
        <ele>769.7</ele>
        <time>2018-12-23T08:29:24Z</time>
      </trkpt>
      <trkpt lat="45.94879" lon="3.61921">
        <ele>769.5</ele>
        <time>2018-12-23T08:29:26Z</time>
      </trkpt>
      <trkpt lat="45.94877" lon="3.61925">
        <ele>769.3</ele>
        <time>2018-12-23T08:29:28Z</time>
      </trkpt>
      <trkpt lat="45.94875" lon="3.61929">
        <ele>769</ele>
        <time>2018-12-23T08:29:30Z</time>
      </trkpt>
      <trkpt lat="45.94874" lon="3.61933">
        <ele>768.7</ele>
        <time>2018-12-23T08:29:32Z</time>
      </trkpt>
      <trkpt lat="45.94872" lon="3.61937">
        <ele>767.9</ele>
        <time>2018-12-23T08:29:36Z</time>
      </trkpt>
      <trkpt lat="45.9487" lon="3.6194">
        <ele>767.3</ele>
        <time>2018-12-23T08:29:39Z</time>
      </trkpt>
      <trkpt lat="45.94868" lon="3.61944">
        <ele>766.7</ele>
        <time>2018-12-23T08:29:42Z</time>
      </trkpt>
      <trkpt lat="45.94867" lon="3.61949">
        <ele>766.1</ele>
        <time>2018-12-23T08:29:45Z</time>
      </trkpt>
      <trkpt lat="45.94865" lon="3.61954">
        <ele>765.8</ele>
        <time>2018-12-23T08:29:48Z</time>
      </trkpt>
      <trkpt lat="45.94864" lon="3.61958">
        <ele>766.2</ele>
        <time>2018-12-23T08:29:50Z</time>
      </trkpt>
      <trkpt lat="45.94864" lon="3.61962">
        <ele>766.6</ele>
        <time>2018-12-23T08:29:52Z</time>
      </trkpt>
      <trkpt lat="45.94864" lon="3.61966">
        <ele>766.8</ele>
        <time>2018-12-23T08:29:54Z</time>
      </trkpt>
      <trkpt lat="45.94864" lon="3.61971">
        <ele>767.1</ele>
        <time>2018-12-23T08:29:56Z</time>
      </trkpt>
      <trkpt lat="45.94863" lon="3.61975">
        <ele>767.5</ele>
        <time>2018-12-23T08:29:59Z</time>
      </trkpt>
      <trkpt lat="45.94862" lon="3.6198">
        <ele>768.1</ele>
        <time>2018-12-23T08:30:03Z</time>
      </trkpt>
      <trkpt lat="45.94861" lon="3.61984">
        <ele>768.7</ele>
        <time>2018-12-23T08:30:06Z</time>
      </trkpt>
      <trkpt lat="45.94861" lon="3.61988">
        <ele>769</ele>
        <time>2018-12-23T08:30:09Z</time>
      </trkpt>
      <trkpt lat="45.9486" lon="3.61993">
        <ele>769.2</ele>
        <time>2018-12-23T08:30:13Z</time>
      </trkpt>
      <trkpt lat="45.94861" lon="3.61996">
        <ele>769.3</ele>
        <time>2018-12-23T08:30:16Z</time>
      </trkpt>
      <trkpt lat="45.94862" lon="3.62001">
        <ele>769.6</ele>
        <time>2018-12-23T08:30:19Z</time>
      </trkpt>
      <trkpt lat="45.94864" lon="3.62006">
        <ele>769.9</ele>
        <time>2018-12-23T08:30:22Z</time>
      </trkpt>
      <trkpt lat="45.94865" lon="3.6201">
        <ele>770.2</ele>
        <time>2018-12-23T08:30:25Z</time>
      </trkpt>
      <trkpt lat="45.94867" lon="3.62015">
        <ele>770.5</ele>
        <time>2018-12-23T08:30:27Z</time>
      </trkpt>
      <trkpt lat="45.94869" lon="3.62019">
        <ele>770.9</ele>
        <time>2018-12-23T08:30:29Z</time>
      </trkpt>
      <trkpt lat="45.94872" lon="3.62023">
        <ele>771.2</ele>
        <time>2018-12-23T08:30:31Z</time>
      </trkpt>
      <trkpt lat="45.94873" lon="3.62027">
        <ele>771.5</ele>
        <time>2018-12-23T08:30:33Z</time>
      </trkpt>
      <trkpt lat="45.94872" lon="3.62033">
        <ele>771.8</ele>
        <time>2018-12-23T08:30:36Z</time>
      </trkpt>
      <trkpt lat="45.94873" lon="3.62037">
        <ele>772</ele>
        <time>2018-12-23T08:30:39Z</time>
      </trkpt>
      <trkpt lat="45.94873" lon="3.62042">
        <ele>772.3</ele>
        <time>2018-12-23T08:30:42Z</time>
      </trkpt>
      <trkpt lat="45.94872" lon="3.62047">
        <ele>772.7</ele>
        <time>2018-12-23T08:30:46Z</time>
      </trkpt>
      <trkpt lat="45.94871" lon="3.62051">
        <ele>773.1</ele>
        <time>2018-12-23T08:30:49Z</time>
      </trkpt>
      <trkpt lat="45.94869" lon="3.62055">
        <ele>773.4</ele>
        <time>2018-12-23T08:30:51Z</time>
      </trkpt>
      <trkpt lat="45.94867" lon="3.6206">
        <ele>773.8</ele>
        <time>2018-12-23T08:30:54Z</time>
      </trkpt>
      <trkpt lat="45.94867" lon="3.62065">
        <ele>774.1</ele>
        <time>2018-12-23T08:30:57Z</time>
      </trkpt>
      <trkpt lat="45.94866" lon="3.6207">
        <ele>774.4</ele>
        <time>2018-12-23T08:30:59Z</time>
      </trkpt>
      <trkpt lat="45.94866" lon="3.62074">
        <ele>774.6</ele>
        <time>2018-12-23T08:31:01Z</time>
      </trkpt>
      <trkpt lat="45.94865" lon="3.62078">
        <ele>774.8</ele>
        <time>2018-12-23T08:31:03Z</time>
      </trkpt>
      <trkpt lat="45.94864" lon="3.62082">
        <ele>775</ele>
        <time>2018-12-23T08:31:05Z</time>
      </trkpt>
      <trkpt lat="45.94863" lon="3.62086">
        <ele>775.2</ele>
        <time>2018-12-23T08:31:07Z</time>
      </trkpt>
      <trkpt lat="45.94863" lon="3.6209">
        <ele>775.4</ele>
        <time>2018-12-23T08:31:10Z</time>
      </trkpt>
      <trkpt lat="45.94861" lon="3.62094">
        <ele>775.7</ele>
        <time>2018-12-23T08:31:13Z</time>
      </trkpt>
      <trkpt lat="45.94863" lon="3.62096">
        <ele>776</ele>
        <time>2018-12-23T08:31:20Z</time>
      </trkpt>
      <trkpt lat="45.9486" lon="3.62097">
        <ele>775.9</ele>
        <time>2018-12-23T08:31:44Z</time>
      </trkpt>
      <trkpt lat="45.94856" lon="3.62097">
        <ele>775.9</ele>
        <time>2018-12-23T08:31:48Z</time>
      </trkpt>
      <trkpt lat="45.94853" lon="3.62099">
        <ele>775.8</ele>
        <time>2018-12-23T08:31:51Z</time>
      </trkpt>
      <trkpt lat="45.9485" lon="3.62098">
        <ele>775.8</ele>
        <time>2018-12-23T08:31:54Z</time>
      </trkpt>
      <trkpt lat="45.94847" lon="3.62097">
        <ele>775.8</ele>
        <time>2018-12-23T08:31:57Z</time>
      </trkpt>
      <trkpt lat="45.94844" lon="3.62095">
        <ele>775.4</ele>
        <time>2018-12-23T08:32:00Z</time>
      </trkpt>
      <trkpt lat="45.9484" lon="3.62092">
        <ele>774.9</ele>
        <time>2018-12-23T08:32:03Z</time>
      </trkpt>
      <trkpt lat="45.94837" lon="3.62088">
        <ele>774.4</ele>
        <time>2018-12-23T08:32:06Z</time>
      </trkpt>
      <trkpt lat="45.94834" lon="3.62086">
        <ele>773.8</ele>
        <time>2018-12-23T08:32:09Z</time>
      </trkpt>
      <trkpt lat="45.9483" lon="3.62084">
        <ele>773.3</ele>
        <time>2018-12-23T08:32:12Z</time>
      </trkpt>
      <trkpt lat="45.94826" lon="3.62082">
        <ele>772.9</ele>
        <time>2018-12-23T08:32:15Z</time>
      </trkpt>
      <trkpt lat="45.94823" lon="3.6208">
        <ele>772.5</ele>
        <time>2018-12-23T08:32:18Z</time>
      </trkpt>
      <trkpt lat="45.9482" lon="3.62079">
        <ele>772.2</ele>
        <time>2018-12-23T08:32:21Z</time>
      </trkpt>
      <trkpt lat="45.94817" lon="3.62077">
        <ele>772</ele>
        <time>2018-12-23T08:32:24Z</time>
      </trkpt>
      <trkpt lat="45.94815" lon="3.62075">
        <ele>771.7</ele>
        <time>2018-12-23T08:32:27Z</time>
      </trkpt>
      <trkpt lat="45.94812" lon="3.62074">
        <ele>771.5</ele>
        <time>2018-12-23T08:32:30Z</time>
      </trkpt>
      <trkpt lat="45.94809" lon="3.62072">
        <ele>771.2</ele>
        <time>2018-12-23T08:32:33Z</time>
      </trkpt>
      <trkpt lat="45.94805" lon="3.6207">
        <ele>771</ele>
        <time>2018-12-23T08:32:36Z</time>
      </trkpt>
      <trkpt lat="45.94802" lon="3.62069">
        <ele>770.8</ele>
        <time>2018-12-23T08:32:39Z</time>
      </trkpt>
      <trkpt lat="45.94799" lon="3.62067">
        <ele>770.7</ele>
        <time>2018-12-23T08:32:42Z</time>
      </trkpt>
      <trkpt lat="45.94796" lon="3.62066">
        <ele>770.5</ele>
        <time>2018-12-23T08:32:45Z</time>
      </trkpt>
      <trkpt lat="45.94794" lon="3.62065">
        <ele>770.4</ele>
        <time>2018-12-23T08:32:48Z</time>
      </trkpt>
      <trkpt lat="45.94791" lon="3.62062">
        <ele>770.2</ele>
        <time>2018-12-23T08:32:52Z</time>
      </trkpt>
      <trkpt lat="45.94788" lon="3.62061">
        <ele>770</ele>
        <time>2018-12-23T08:32:56Z</time>
      </trkpt>
      <trkpt lat="45.94785" lon="3.62059">
        <ele>769.8</ele>
        <time>2018-12-23T08:32:59Z</time>
      </trkpt>
      <trkpt lat="45.94783" lon="3.62056">
        <ele>769.5</ele>
        <time>2018-12-23T08:33:03Z</time>
      </trkpt>
      <trkpt lat="45.94779" lon="3.62053">
        <ele>769.3</ele>
        <time>2018-12-23T08:33:06Z</time>
      </trkpt>
      <trkpt lat="45.94776" lon="3.62051">
        <ele>769</ele>
        <time>2018-12-23T08:33:09Z</time>
      </trkpt>
      <trkpt lat="45.94774" lon="3.6205">
        <ele>768.8</ele>
        <time>2018-12-23T08:33:12Z</time>
      </trkpt>
      <trkpt lat="45.94771" lon="3.62049">
        <ele>768.9</ele>
        <time>2018-12-23T08:33:15Z</time>
      </trkpt>
      <trkpt lat="45.94767" lon="3.62047">
        <ele>769</ele>
        <time>2018-12-23T08:33:19Z</time>
      </trkpt>
      <trkpt lat="45.94764" lon="3.62046">
        <ele>769.1</ele>
        <time>2018-12-23T08:33:23Z</time>
      </trkpt>
      <trkpt lat="45.94761" lon="3.62046">
        <ele>769.1</ele>
        <time>2018-12-23T08:33:27Z</time>
      </trkpt>
      <trkpt lat="45.94758" lon="3.62046">
        <ele>769</ele>
        <time>2018-12-23T08:33:31Z</time>
      </trkpt>
      <trkpt lat="45.94754" lon="3.62045">
        <ele>769.1</ele>
        <time>2018-12-23T08:33:35Z</time>
      </trkpt>
      <trkpt lat="45.94751" lon="3.62044">
        <ele>769.4</ele>
        <time>2018-12-23T08:33:38Z</time>
      </trkpt>
      <trkpt lat="45.94749" lon="3.62043">
        <ele>769.6</ele>
        <time>2018-12-23T08:33:41Z</time>
      </trkpt>
      <trkpt lat="45.94745" lon="3.62042">
        <ele>769.9</ele>
        <time>2018-12-23T08:33:44Z</time>
      </trkpt>
      <trkpt lat="45.94742" lon="3.62041">
        <ele>770</ele>
        <time>2018-12-23T08:33:47Z</time>
      </trkpt>
      <trkpt lat="45.94739" lon="3.62041">
        <ele>770.2</ele>
        <time>2018-12-23T08:33:50Z</time>
      </trkpt>
      <trkpt lat="45.94736" lon="3.6204">
        <ele>770.6</ele>
        <time>2018-12-23T08:33:53Z</time>
      </trkpt>
      <trkpt lat="45.94733" lon="3.6204">
        <ele>770.9</ele>
        <time>2018-12-23T08:33:56Z</time>
      </trkpt>
      <trkpt lat="45.9473" lon="3.62039">
        <ele>771.2</ele>
        <time>2018-12-23T08:33:59Z</time>
      </trkpt>
      <trkpt lat="45.94726" lon="3.62039">
        <ele>771.6</ele>
        <time>2018-12-23T08:34:03Z</time>
      </trkpt>
      <trkpt lat="45.94723" lon="3.6204">
        <ele>771.9</ele>
        <time>2018-12-23T08:34:06Z</time>
      </trkpt>
      <trkpt lat="45.9472" lon="3.6204">
        <ele>772.3</ele>
        <time>2018-12-23T08:34:09Z</time>
      </trkpt>
      <trkpt lat="45.94717" lon="3.6204">
        <ele>772.8</ele>
        <time>2018-12-23T08:34:12Z</time>
      </trkpt>
      <trkpt lat="45.94714" lon="3.6204">
        <ele>773.3</ele>
        <time>2018-12-23T08:34:15Z</time>
      </trkpt>
      <trkpt lat="45.9471" lon="3.62041">
        <ele>773.8</ele>
        <time>2018-12-23T08:34:19Z</time>
      </trkpt>
      <trkpt lat="45.94707" lon="3.62042">
        <ele>774.3</ele>
        <time>2018-12-23T08:34:22Z</time>
      </trkpt>
      <trkpt lat="45.94704" lon="3.62043">
        <ele>774.5</ele>
        <time>2018-12-23T08:34:25Z</time>
      </trkpt>
      <trkpt lat="45.94701" lon="3.62044">
        <ele>774.6</ele>
        <time>2018-12-23T08:34:28Z</time>
      </trkpt>
      <trkpt lat="45.94698" lon="3.62044">
        <ele>774.7</ele>
        <time>2018-12-23T08:34:31Z</time>
      </trkpt>
      <trkpt lat="45.94695" lon="3.62045">
        <ele>776.2</ele>
        <time>2018-12-23T08:34:34Z</time>
      </trkpt>
      <trkpt lat="45.94692" lon="3.62046">
        <ele>776.8</ele>
        <time>2018-12-23T08:34:37Z</time>
      </trkpt>
      <trkpt lat="45.94689" lon="3.62046">
        <ele>777.4</ele>
        <time>2018-12-23T08:34:40Z</time>
      </trkpt>
      <trkpt lat="45.94686" lon="3.62047">
        <ele>777.8</ele>
        <time>2018-12-23T08:34:43Z</time>
      </trkpt>
      <trkpt lat="45.94683" lon="3.62048">
        <ele>778.3</ele>
        <time>2018-12-23T08:34:48Z</time>
      </trkpt>
      <trkpt lat="45.9468" lon="3.62046">
        <ele>778.9</ele>
        <time>2018-12-23T08:35:27Z</time>
      </trkpt>
      <trkpt lat="45.94677" lon="3.62047">
        <ele>779.5</ele>
        <time>2018-12-23T08:35:30Z</time>
      </trkpt>
      <trkpt lat="45.94677" lon="3.62051">
        <ele>780</ele>
        <time>2018-12-23T08:35:40Z</time>
      </trkpt>
      <trkpt lat="45.94675" lon="3.62056">
        <ele>780.6</ele>
        <time>2018-12-23T08:36:23Z</time>
      </trkpt>
      <trkpt lat="45.94673" lon="3.62059">
        <ele>781.1</ele>
        <time>2018-12-23T08:36:49Z</time>
      </trkpt>
      <trkpt lat="45.94671" lon="3.62062">
        <ele>781.3</ele>
        <time>2018-12-23T08:36:54Z</time>
      </trkpt>
      <trkpt lat="45.94672" lon="3.62065">
        <ele>781.5</ele>
        <time>2018-12-23T08:37:14Z</time>
      </trkpt>
      <trkpt lat="45.94671" lon="3.6207">
        <ele>781.7</ele>
        <time>2018-12-23T08:37:24Z</time>
      </trkpt>
      <trkpt lat="45.94671" lon="3.62074">
        <ele>781.9</ele>
        <time>2018-12-23T08:37:28Z</time>
      </trkpt>
      <trkpt lat="45.94671" lon="3.62079">
        <ele>782.2</ele>
        <time>2018-12-23T08:37:32Z</time>
      </trkpt>
      <trkpt lat="45.94671" lon="3.62084">
        <ele>782.2</ele>
        <time>2018-12-23T08:37:35Z</time>
      </trkpt>
      <trkpt lat="45.94671" lon="3.62088">
        <ele>782.3</ele>
        <time>2018-12-23T08:37:38Z</time>
      </trkpt>
      <trkpt lat="45.94672" lon="3.62092">
        <ele>782.3</ele>
        <time>2018-12-23T08:37:42Z</time>
      </trkpt>
      <trkpt lat="45.94672" lon="3.62096">
        <ele>782.4</ele>
        <time>2018-12-23T08:37:45Z</time>
      </trkpt>
      <trkpt lat="45.94671" lon="3.62101">
        <ele>782.5</ele>
        <time>2018-12-23T08:37:48Z</time>
      </trkpt>
      <trkpt lat="45.94671" lon="3.62106">
        <ele>782.6</ele>
        <time>2018-12-23T08:37:50Z</time>
      </trkpt>
      <trkpt lat="45.94671" lon="3.62111">
        <ele>782.7</ele>
        <time>2018-12-23T08:37:53Z</time>
      </trkpt>
      <trkpt lat="45.94672" lon="3.62116">
        <ele>782.7</ele>
        <time>2018-12-23T08:37:56Z</time>
      </trkpt>
      <trkpt lat="45.94671" lon="3.6212">
        <ele>782.8</ele>
        <time>2018-12-23T08:37:59Z</time>
      </trkpt>
      <trkpt lat="45.9467" lon="3.62125">
        <ele>783</ele>
        <time>2018-12-23T08:38:02Z</time>
      </trkpt>
      <trkpt lat="45.9467" lon="3.6213">
        <ele>783.1</ele>
        <time>2018-12-23T08:38:06Z</time>
      </trkpt>
      <trkpt lat="45.94668" lon="3.62133">
        <ele>783.1</ele>
        <time>2018-12-23T08:38:14Z</time>
      </trkpt>
      <trkpt lat="45.94669" lon="3.62138">
        <ele>783.1</ele>
        <time>2018-12-23T08:38:17Z</time>
      </trkpt>
      <trkpt lat="45.9467" lon="3.62142">
        <ele>783.2</ele>
        <time>2018-12-23T08:38:20Z</time>
      </trkpt>
      <trkpt lat="45.94671" lon="3.62145">
        <ele>783.2</ele>
        <time>2018-12-23T08:38:23Z</time>
      </trkpt>
      <trkpt lat="45.94673" lon="3.62149">
        <ele>783.2</ele>
        <time>2018-12-23T08:38:27Z</time>
      </trkpt>
      <trkpt lat="45.94676" lon="3.62151">
        <ele>783.2</ele>
        <time>2018-12-23T08:38:31Z</time>
      </trkpt>
      <trkpt lat="45.94678" lon="3.62154">
        <ele>783.2</ele>
        <time>2018-12-23T08:38:34Z</time>
      </trkpt>
      <trkpt lat="45.94679" lon="3.62157">
        <ele>783.2</ele>
        <time>2018-12-23T08:38:39Z</time>
      </trkpt>
      <trkpt lat="45.94681" lon="3.62161">
        <ele>783.2</ele>
        <time>2018-12-23T08:38:51Z</time>
      </trkpt>
      <trkpt lat="45.9468" lon="3.62165">
        <ele>783.2</ele>
        <time>2018-12-23T08:38:55Z</time>
      </trkpt>
      <trkpt lat="45.94681" lon="3.62169">
        <ele>783.2</ele>
        <time>2018-12-23T08:39:02Z</time>
      </trkpt>
      <trkpt lat="45.94685" lon="3.62171">
        <ele>783.2</ele>
        <time>2018-12-23T08:39:05Z</time>
      </trkpt>
      <trkpt lat="45.94687" lon="3.62173">
        <ele>783.2</ele>
        <time>2018-12-23T08:39:07Z</time>
      </trkpt>
      <trkpt lat="45.9469" lon="3.6218">
        <ele>783.2</ele>
        <time>2018-12-23T08:39:22Z</time>
      </trkpt>
      <trkpt lat="45.94693" lon="3.62182">
        <ele>783.2</ele>
        <time>2018-12-23T08:39:28Z</time>
      </trkpt>
      <trkpt lat="45.94695" lon="3.62186">
        <ele>783.3</ele>
        <time>2018-12-23T08:39:35Z</time>
      </trkpt>
      <trkpt lat="45.94696" lon="3.62189">
        <ele>783.3</ele>
        <time>2018-12-23T08:39:46Z</time>
      </trkpt>
      <trkpt lat="45.94699" lon="3.62192">
        <ele>783.4</ele>
        <time>2018-12-23T08:39:54Z</time>
      </trkpt>
      <trkpt lat="45.94702" lon="3.62191">
        <ele>783.6</ele>
        <time>2018-12-23T08:39:59Z</time>
      </trkpt>
      <trkpt lat="45.947" lon="3.62195">
        <ele>783.7</ele>
        <time>2018-12-23T08:40:06Z</time>
      </trkpt>
      <trkpt lat="45.94696" lon="3.62197">
        <ele>783.9</ele>
        <time>2018-12-23T08:40:08Z</time>
      </trkpt>
      <trkpt lat="45.94695" lon="3.62203">
        <ele>784</ele>
        <time>2018-12-23T08:40:20Z</time>
      </trkpt>
      <trkpt lat="45.94698" lon="3.62201">
        <ele>784.1</ele>
        <time>2018-12-23T08:40:22Z</time>
      </trkpt>
      <trkpt lat="45.94702" lon="3.62199">
        <ele>784.2</ele>
        <time>2018-12-23T08:40:24Z</time>
      </trkpt>
      <trkpt lat="45.94705" lon="3.62198">
        <ele>784.3</ele>
        <time>2018-12-23T08:40:26Z</time>
      </trkpt>
      <trkpt lat="45.94708" lon="3.622">
        <ele>784.5</ele>
        <time>2018-12-23T08:40:29Z</time>
      </trkpt>
      <trkpt lat="45.94711" lon="3.62201">
        <ele>784.6</ele>
        <time>2018-12-23T08:40:34Z</time>
      </trkpt>
      <trkpt lat="45.94715" lon="3.62202">
        <ele>784.7</ele>
        <time>2018-12-23T08:40:38Z</time>
      </trkpt>
      <trkpt lat="45.94718" lon="3.62203">
        <ele>784.9</ele>
        <time>2018-12-23T08:40:42Z</time>
      </trkpt>
      <trkpt lat="45.9472" lon="3.62207">
        <ele>785.1</ele>
        <time>2018-12-23T08:40:45Z</time>
      </trkpt>
      <trkpt lat="45.94721" lon="3.62212">
        <ele>785.4</ele>
        <time>2018-12-23T08:40:48Z</time>
      </trkpt>
      <trkpt lat="45.94722" lon="3.62216">
        <ele>785.7</ele>
        <time>2018-12-23T08:40:51Z</time>
      </trkpt>
      <trkpt lat="45.94725" lon="3.62219">
        <ele>786</ele>
        <time>2018-12-23T08:40:54Z</time>
      </trkpt>
      <trkpt lat="45.94727" lon="3.6222">
        <ele>786.3</ele>
        <time>2018-12-23T08:40:56Z</time>
      </trkpt>
      <trkpt lat="45.94731" lon="3.62221">
        <ele>786.7</ele>
        <time>2018-12-23T08:40:58Z</time>
      </trkpt>
      <trkpt lat="45.94734" lon="3.62221">
        <ele>787</ele>
        <time>2018-12-23T08:41:01Z</time>
      </trkpt>
      <trkpt lat="45.94737" lon="3.62223">
        <ele>787.2</ele>
        <time>2018-12-23T08:41:04Z</time>
      </trkpt>
      <trkpt lat="45.94739" lon="3.62226">
        <ele>787.5</ele>
        <time>2018-12-23T08:41:07Z</time>
      </trkpt>
      <trkpt lat="45.94742" lon="3.62228">
        <ele>787.7</ele>
        <time>2018-12-23T08:41:09Z</time>
      </trkpt>
      <trkpt lat="45.94745" lon="3.62229">
        <ele>787.9</ele>
        <time>2018-12-23T08:41:11Z</time>
      </trkpt>
      <trkpt lat="45.94748" lon="3.6223">
        <ele>788.2</ele>
        <time>2018-12-23T08:41:13Z</time>
      </trkpt>
      <trkpt lat="45.94751" lon="3.62232">
        <ele>788.4</ele>
        <time>2018-12-23T08:41:16Z</time>
      </trkpt>
      <trkpt lat="45.94753" lon="3.62236">
        <ele>788.7</ele>
        <time>2018-12-23T08:41:19Z</time>
      </trkpt>
      <trkpt lat="45.94754" lon="3.6224">
        <ele>788.9</ele>
        <time>2018-12-23T08:41:22Z</time>
      </trkpt>
      <trkpt lat="45.94757" lon="3.62243">
        <ele>789.1</ele>
        <time>2018-12-23T08:41:26Z</time>
      </trkpt>
      <trkpt lat="45.9476" lon="3.62246">
        <ele>789.4</ele>
        <time>2018-12-23T08:41:29Z</time>
      </trkpt>
      <trkpt lat="45.94762" lon="3.62248">
        <ele>789.5</ele>
        <time>2018-12-23T08:41:31Z</time>
      </trkpt>
      <trkpt lat="45.94765" lon="3.62251">
        <ele>789.6</ele>
        <time>2018-12-23T08:41:33Z</time>
      </trkpt>
      <trkpt lat="45.94768" lon="3.62254">
        <ele>789.8</ele>
        <time>2018-12-23T08:41:36Z</time>
      </trkpt>
      <trkpt lat="45.94771" lon="3.62256">
        <ele>790.1</ele>
        <time>2018-12-23T08:41:39Z</time>
      </trkpt>
      <trkpt lat="45.94774" lon="3.6226">
        <ele>790.4</ele>
        <time>2018-12-23T08:41:42Z</time>
      </trkpt>
      <trkpt lat="45.94776" lon="3.62262">
        <ele>790.7</ele>
        <time>2018-12-23T08:41:45Z</time>
      </trkpt>
      <trkpt lat="45.94779" lon="3.62265">
        <ele>791.1</ele>
        <time>2018-12-23T08:41:49Z</time>
      </trkpt>
      <trkpt lat="45.94783" lon="3.62266">
        <ele>791.4</ele>
        <time>2018-12-23T08:41:52Z</time>
      </trkpt>
      <trkpt lat="45.94786" lon="3.62267">
        <ele>791.4</ele>
        <time>2018-12-23T08:41:56Z</time>
      </trkpt>
      <trkpt lat="45.94789" lon="3.62268">
        <ele>791.5</ele>
        <time>2018-12-23T08:42:00Z</time>
      </trkpt>
      <trkpt lat="45.94792" lon="3.6227">
        <ele>791.7</ele>
        <time>2018-12-23T08:42:03Z</time>
      </trkpt>
      <trkpt lat="45.94796" lon="3.62271">
        <ele>792.1</ele>
        <time>2018-12-23T08:42:07Z</time>
      </trkpt>
      <trkpt lat="45.94799" lon="3.62272">
        <ele>792.4</ele>
        <time>2018-12-23T08:42:11Z</time>
      </trkpt>
      <trkpt lat="45.94802" lon="3.62272">
        <ele>792.7</ele>
        <time>2018-12-23T08:42:14Z</time>
      </trkpt>
      <trkpt lat="45.94805" lon="3.62273">
        <ele>793.1</ele>
        <time>2018-12-23T08:42:17Z</time>
      </trkpt>
      <trkpt lat="45.94809" lon="3.62273">
        <ele>793.4</ele>
        <time>2018-12-23T08:42:20Z</time>
      </trkpt>
      <trkpt lat="45.94812" lon="3.62273">
        <ele>793.8</ele>
        <time>2018-12-23T08:42:23Z</time>
      </trkpt>
      <trkpt lat="45.94815" lon="3.62273">
        <ele>794.1</ele>
        <time>2018-12-23T08:42:29Z</time>
      </trkpt>
      <trkpt lat="45.94818" lon="3.62274">
        <ele>794.5</ele>
        <time>2018-12-23T08:42:33Z</time>
      </trkpt>
      <trkpt lat="45.94821" lon="3.62276">
        <ele>794.8</ele>
        <time>2018-12-23T08:42:37Z</time>
      </trkpt>
      <trkpt lat="45.94824" lon="3.62278">
        <ele>795.2</ele>
        <time>2018-12-23T08:42:42Z</time>
      </trkpt>
      <trkpt lat="45.94826" lon="3.62281">
        <ele>795.8</ele>
        <time>2018-12-23T08:42:49Z</time>
      </trkpt>
      <trkpt lat="45.94828" lon="3.62283">
        <ele>796.4</ele>
        <time>2018-12-23T08:42:52Z</time>
      </trkpt>
      <trkpt lat="45.94831" lon="3.62284">
        <ele>797.1</ele>
        <time>2018-12-23T08:42:55Z</time>
      </trkpt>
      <trkpt lat="45.94834" lon="3.62286">
        <ele>797.5</ele>
        <time>2018-12-23T08:42:58Z</time>
      </trkpt>
      <trkpt lat="45.94837" lon="3.62289">
        <ele>798.1</ele>
        <time>2018-12-23T08:43:03Z</time>
      </trkpt>
      <trkpt lat="45.9484" lon="3.62291">
        <ele>798.6</ele>
        <time>2018-12-23T08:43:07Z</time>
      </trkpt>
      <trkpt lat="45.94843" lon="3.62291">
        <ele>799</ele>
        <time>2018-12-23T08:43:18Z</time>
      </trkpt>
      <trkpt lat="45.94844" lon="3.62287">
        <ele>799.5</ele>
        <time>2018-12-23T08:43:22Z</time>
      </trkpt>
      <trkpt lat="45.94844" lon="3.62292">
        <ele>800.1</ele>
        <time>2018-12-23T08:43:26Z</time>
      </trkpt>
      <trkpt lat="45.94845" lon="3.62297">
        <ele>801</ele>
        <time>2018-12-23T08:43:40Z</time>
      </trkpt>
      <trkpt lat="45.94847" lon="3.623">
        <ele>801.7</ele>
        <time>2018-12-23T08:43:45Z</time>
      </trkpt>
      <trkpt lat="45.94849" lon="3.62302">
        <ele>802.5</ele>
        <time>2018-12-23T08:43:49Z</time>
      </trkpt>
      <trkpt lat="45.94851" lon="3.62305">
        <ele>803.2</ele>
        <time>2018-12-23T08:43:54Z</time>
      </trkpt>
      <trkpt lat="45.94853" lon="3.62308">
        <ele>804</ele>
        <time>2018-12-23T08:43:58Z</time>
      </trkpt>
      <trkpt lat="45.94856" lon="3.6231">
        <ele>804.8</ele>
        <time>2018-12-23T08:44:01Z</time>
      </trkpt>
      <trkpt lat="45.94859" lon="3.62313">
        <ele>805.7</ele>
        <time>2018-12-23T08:44:05Z</time>
      </trkpt>
      <trkpt lat="45.94861" lon="3.62316">
        <ele>806.4</ele>
        <time>2018-12-23T08:44:08Z</time>
      </trkpt>
      <trkpt lat="45.94863" lon="3.6232">
        <ele>807.1</ele>
        <time>2018-12-23T08:44:11Z</time>
      </trkpt>
      <trkpt lat="45.94864" lon="3.62323">
        <ele>807.8</ele>
        <time>2018-12-23T08:44:15Z</time>
      </trkpt>
      <trkpt lat="45.94866" lon="3.62326">
        <ele>808.6</ele>
        <time>2018-12-23T08:44:19Z</time>
      </trkpt>
      <trkpt lat="45.94869" lon="3.6233">
        <ele>809.5</ele>
        <time>2018-12-23T08:44:23Z</time>
      </trkpt>
      <trkpt lat="45.94872" lon="3.62332">
        <ele>810.3</ele>
        <time>2018-12-23T08:44:26Z</time>
      </trkpt>
      <trkpt lat="45.94875" lon="3.62335">
        <ele>811.1</ele>
        <time>2018-12-23T08:44:29Z</time>
      </trkpt>
      <trkpt lat="45.94877" lon="3.62337">
        <ele>811.9</ele>
        <time>2018-12-23T08:44:32Z</time>
      </trkpt>
      <trkpt lat="45.94879" lon="3.62339">
        <ele>812.6</ele>
        <time>2018-12-23T08:44:35Z</time>
      </trkpt>
      <trkpt lat="45.94882" lon="3.62341">
        <ele>813.3</ele>
        <time>2018-12-23T08:44:39Z</time>
      </trkpt>
      <trkpt lat="45.94884" lon="3.62345">
        <ele>814.4</ele>
        <time>2018-12-23T08:44:57Z</time>
      </trkpt>
      <trkpt lat="45.94886" lon="3.62349">
        <ele>815.6</ele>
        <time>2018-12-23T08:45:13Z</time>
      </trkpt>
      <trkpt lat="45.94888" lon="3.62352">
        <ele>816.7</ele>
        <time>2018-12-23T08:45:17Z</time>
      </trkpt>
      <trkpt lat="45.94891" lon="3.62354">
        <ele>817.7</ele>
        <time>2018-12-23T08:45:21Z</time>
      </trkpt>
      <trkpt lat="45.94892" lon="3.62358">
        <ele>818.4</ele>
        <time>2018-12-23T08:45:25Z</time>
      </trkpt>
      <trkpt lat="45.94893" lon="3.62363">
        <ele>819.2</ele>
        <time>2018-12-23T08:45:28Z</time>
      </trkpt>
      <trkpt lat="45.94895" lon="3.62366">
        <ele>819.8</ele>
        <time>2018-12-23T08:45:31Z</time>
      </trkpt>
      <trkpt lat="45.94897" lon="3.62369">
        <ele>820.5</ele>
        <time>2018-12-23T08:45:34Z</time>
      </trkpt>
      <trkpt lat="45.94899" lon="3.62372">
        <ele>821.2</ele>
        <time>2018-12-23T08:45:37Z</time>
      </trkpt>
      <trkpt lat="45.94902" lon="3.62375">
        <ele>821.9</ele>
        <time>2018-12-23T08:45:40Z</time>
      </trkpt>
      <trkpt lat="45.94904" lon="3.62377">
        <ele>822.4</ele>
        <time>2018-12-23T08:45:43Z</time>
      </trkpt>
      <trkpt lat="45.94906" lon="3.6238">
        <ele>823</ele>
        <time>2018-12-23T08:45:46Z</time>
      </trkpt>
      <trkpt lat="45.94908" lon="3.62384">
        <ele>823.6</ele>
        <time>2018-12-23T08:45:49Z</time>
      </trkpt>
      <trkpt lat="45.94911" lon="3.62386">
        <ele>824.3</ele>
        <time>2018-12-23T08:45:52Z</time>
      </trkpt>
      <trkpt lat="45.94914" lon="3.62388">
        <ele>824.9</ele>
        <time>2018-12-23T08:45:56Z</time>
      </trkpt>
      <trkpt lat="45.94915" lon="3.62393">
        <ele>825.6</ele>
        <time>2018-12-23T08:45:59Z</time>
      </trkpt>
      <trkpt lat="45.94916" lon="3.62396">
        <ele>826.1</ele>
        <time>2018-12-23T08:46:01Z</time>
      </trkpt>
      <trkpt lat="45.94917" lon="3.62401">
        <ele>826.4</ele>
        <time>2018-12-23T08:46:04Z</time>
      </trkpt>
      <trkpt lat="45.94918" lon="3.62405">
        <ele>826.8</ele>
        <time>2018-12-23T08:46:07Z</time>
      </trkpt>
      <trkpt lat="45.94921" lon="3.62409">
        <ele>827.5</ele>
        <time>2018-12-23T08:46:10Z</time>
      </trkpt>
      <trkpt lat="45.94923" lon="3.62413">
        <ele>828.3</ele>
        <time>2018-12-23T08:46:13Z</time>
      </trkpt>
      <trkpt lat="45.94924" lon="3.62418">
        <ele>828.9</ele>
        <time>2018-12-23T08:46:16Z</time>
      </trkpt>
      <trkpt lat="45.94925" lon="3.62422">
        <ele>829.4</ele>
        <time>2018-12-23T08:46:18Z</time>
      </trkpt>
      <trkpt lat="45.94927" lon="3.62426">
        <ele>830</ele>
        <time>2018-12-23T08:46:21Z</time>
      </trkpt>
      <trkpt lat="45.94928" lon="3.6243">
        <ele>830.6</ele>
        <time>2018-12-23T08:46:24Z</time>
      </trkpt>
      <trkpt lat="45.94929" lon="3.62433">
        <ele>831</ele>
        <time>2018-12-23T08:46:27Z</time>
      </trkpt>
      <trkpt lat="45.9493" lon="3.62437">
        <ele>831.5</ele>
        <time>2018-12-23T08:46:30Z</time>
      </trkpt>
      <trkpt lat="45.94932" lon="3.6244">
        <ele>831.9</ele>
        <time>2018-12-23T08:46:33Z</time>
      </trkpt>
      <trkpt lat="45.94934" lon="3.62442">
        <ele>832.3</ele>
        <time>2018-12-23T08:46:36Z</time>
      </trkpt>
      <trkpt lat="45.94937" lon="3.62444">
        <ele>833</ele>
        <time>2018-12-23T08:46:40Z</time>
      </trkpt>
      <trkpt lat="45.94939" lon="3.62448">
        <ele>833.7</ele>
        <time>2018-12-23T08:46:44Z</time>
      </trkpt>
      <trkpt lat="45.94941" lon="3.62451">
        <ele>834.2</ele>
        <time>2018-12-23T08:46:47Z</time>
      </trkpt>
      <trkpt lat="45.94943" lon="3.62455">
        <ele>835</ele>
        <time>2018-12-23T08:46:51Z</time>
      </trkpt>
      <trkpt lat="45.94944" lon="3.62459">
        <ele>835.7</ele>
        <time>2018-12-23T08:46:54Z</time>
      </trkpt>
      <trkpt lat="45.94946" lon="3.62462">
        <ele>836.3</ele>
        <time>2018-12-23T08:46:58Z</time>
      </trkpt>
      <trkpt lat="45.94948" lon="3.62467">
        <ele>836.8</ele>
        <time>2018-12-23T08:47:04Z</time>
      </trkpt>
      <trkpt lat="45.94949" lon="3.62471">
        <ele>837.2</ele>
        <time>2018-12-23T08:47:07Z</time>
      </trkpt>
      <trkpt lat="45.94951" lon="3.62474">
        <ele>837.6</ele>
        <time>2018-12-23T08:47:11Z</time>
      </trkpt>
      <trkpt lat="45.94953" lon="3.62477">
        <ele>838.1</ele>
        <time>2018-12-23T08:47:14Z</time>
      </trkpt>
      <trkpt lat="45.94955" lon="3.62482">
        <ele>838.9</ele>
        <time>2018-12-23T08:47:18Z</time>
      </trkpt>
      <trkpt lat="45.94956" lon="3.62487">
        <ele>839.5</ele>
        <time>2018-12-23T08:47:22Z</time>
      </trkpt>
      <trkpt lat="45.94958" lon="3.62491">
        <ele>840</ele>
        <time>2018-12-23T08:47:25Z</time>
      </trkpt>
      <trkpt lat="45.9496" lon="3.62494">
        <ele>840.3</ele>
        <time>2018-12-23T08:47:28Z</time>
      </trkpt>
      <trkpt lat="45.9496" lon="3.62498">
        <ele>840.7</ele>
        <time>2018-12-23T08:47:31Z</time>
      </trkpt>
      <trkpt lat="45.9496" lon="3.62503">
        <ele>841.1</ele>
        <time>2018-12-23T08:47:34Z</time>
      </trkpt>
      <trkpt lat="45.94961" lon="3.62507">
        <ele>841.3</ele>
        <time>2018-12-23T08:47:36Z</time>
      </trkpt>
      <trkpt lat="45.94962" lon="3.62511">
        <ele>841.6</ele>
        <time>2018-12-23T08:47:39Z</time>
      </trkpt>
      <trkpt lat="45.94963" lon="3.62515">
        <ele>841.9</ele>
        <time>2018-12-23T08:47:42Z</time>
      </trkpt>
      <trkpt lat="45.94964" lon="3.62519">
        <ele>842.1</ele>
        <time>2018-12-23T08:47:47Z</time>
      </trkpt>
      <trkpt lat="45.94965" lon="3.62523">
        <ele>842.4</ele>
        <time>2018-12-23T08:47:50Z</time>
      </trkpt>
      <trkpt lat="45.94965" lon="3.62528">
        <ele>842.6</ele>
        <time>2018-12-23T08:47:54Z</time>
      </trkpt>
      <trkpt lat="45.94967" lon="3.62532">
        <ele>842.8</ele>
        <time>2018-12-23T08:47:57Z</time>
      </trkpt>
      <trkpt lat="45.94967" lon="3.62537">
        <ele>843</ele>
        <time>2018-12-23T08:48:00Z</time>
      </trkpt>
      <trkpt lat="45.94967" lon="3.62541">
        <ele>843.3</ele>
        <time>2018-12-23T08:48:04Z</time>
      </trkpt>
      <trkpt lat="45.94968" lon="3.62547">
        <ele>843.7</ele>
        <time>2018-12-23T08:48:08Z</time>
      </trkpt>
      <trkpt lat="45.94968" lon="3.62552">
        <ele>844.1</ele>
        <time>2018-12-23T08:48:11Z</time>
      </trkpt>
      <trkpt lat="45.94968" lon="3.62557">
        <ele>844.4</ele>
        <time>2018-12-23T08:48:14Z</time>
      </trkpt>
      <trkpt lat="45.94968" lon="3.62561">
        <ele>844.8</ele>
        <time>2018-12-23T08:48:18Z</time>
      </trkpt>
      <trkpt lat="45.9497" lon="3.62566">
        <ele>845.1</ele>
        <time>2018-12-23T08:48:21Z</time>
      </trkpt>
      <trkpt lat="45.9497" lon="3.6257">
        <ele>845.5</ele>
        <time>2018-12-23T08:48:24Z</time>
      </trkpt>
      <trkpt lat="45.9497" lon="3.62574">
        <ele>846</ele>
        <time>2018-12-23T08:48:28Z</time>
      </trkpt>
      <trkpt lat="45.9497" lon="3.62578">
        <ele>846.4</ele>
        <time>2018-12-23T08:48:32Z</time>
      </trkpt>
      <trkpt lat="45.94971" lon="3.62583">
        <ele>846.9</ele>
        <time>2018-12-23T08:48:36Z</time>
      </trkpt>
      <trkpt lat="45.94973" lon="3.62587">
        <ele>847.4</ele>
        <time>2018-12-23T08:48:40Z</time>
      </trkpt>
      <trkpt lat="45.94975" lon="3.62588">
        <ele>847.9</ele>
        <time>2018-12-23T08:48:42Z</time>
      </trkpt>
      <trkpt lat="45.94978" lon="3.62592">
        <ele>848.5</ele>
        <time>2018-12-23T08:48:45Z</time>
      </trkpt>
      <trkpt lat="45.9498" lon="3.62596">
        <ele>849</ele>
        <time>2018-12-23T08:48:48Z</time>
      </trkpt>
      <trkpt lat="45.94983" lon="3.62599">
        <ele>849.4</ele>
        <time>2018-12-23T08:48:51Z</time>
      </trkpt>
      <trkpt lat="45.94985" lon="3.62601">
        <ele>849.9</ele>
        <time>2018-12-23T08:48:54Z</time>
      </trkpt>
      <trkpt lat="45.94989" lon="3.62604">
        <ele>850.5</ele>
        <time>2018-12-23T08:48:57Z</time>
      </trkpt>
      <trkpt lat="45.94992" lon="3.62604">
        <ele>850.9</ele>
        <time>2018-12-23T08:49:00Z</time>
      </trkpt>
      <trkpt lat="45.94994" lon="3.62606">
        <ele>851.3</ele>
        <time>2018-12-23T08:49:04Z</time>
      </trkpt>
      <trkpt lat="45.94995" lon="3.6261">
        <ele>851.6</ele>
        <time>2018-12-23T08:49:07Z</time>
      </trkpt>
      <trkpt lat="45.94997" lon="3.62613">
        <ele>852</ele>
        <time>2018-12-23T08:49:10Z</time>
      </trkpt>
      <trkpt lat="45.94999" lon="3.62616">
        <ele>852.3</ele>
        <time>2018-12-23T08:49:14Z</time>
      </trkpt>
      <trkpt lat="45.95001" lon="3.62619">
        <ele>852.6</ele>
        <time>2018-12-23T08:49:18Z</time>
      </trkpt>
      <trkpt lat="45.95003" lon="3.62622">
        <ele>853.1</ele>
        <time>2018-12-23T08:49:22Z</time>
      </trkpt>
      <trkpt lat="45.95004" lon="3.62625">
        <ele>853.4</ele>
        <time>2018-12-23T08:49:25Z</time>
      </trkpt>
      <trkpt lat="45.95005" lon="3.6263">
        <ele>853.7</ele>
        <time>2018-12-23T08:49:28Z</time>
      </trkpt>
      <trkpt lat="45.95007" lon="3.62635">
        <ele>854.2</ele>
        <time>2018-12-23T08:49:33Z</time>
      </trkpt>
      <trkpt lat="45.95008" lon="3.62639">
        <ele>854.4</ele>
        <time>2018-12-23T08:49:36Z</time>
      </trkpt>
      <trkpt lat="45.9501" lon="3.62642">
        <ele>854.6</ele>
        <time>2018-12-23T08:49:39Z</time>
      </trkpt>
      <trkpt lat="45.95012" lon="3.62646">
        <ele>854.8</ele>
        <time>2018-12-23T08:49:43Z</time>
      </trkpt>
      <trkpt lat="45.95014" lon="3.62649">
        <ele>855</ele>
        <time>2018-12-23T08:49:49Z</time>
      </trkpt>
      <trkpt lat="45.95015" lon="3.62652">
        <ele>855.2</ele>
        <time>2018-12-23T08:49:52Z</time>
      </trkpt>
      <trkpt lat="45.95017" lon="3.62656">
        <ele>855.3</ele>
        <time>2018-12-23T08:49:56Z</time>
      </trkpt>
      <trkpt lat="45.95019" lon="3.6266">
        <ele>855.5</ele>
        <time>2018-12-23T08:49:59Z</time>
      </trkpt>
      <trkpt lat="45.95022" lon="3.62662">
        <ele>855.7</ele>
        <time>2018-12-23T08:50:06Z</time>
      </trkpt>
      <trkpt lat="45.95025" lon="3.62664">
        <ele>855.8</ele>
        <time>2018-12-23T08:50:10Z</time>
      </trkpt>
      <trkpt lat="45.95028" lon="3.62667">
        <ele>855.9</ele>
        <time>2018-12-23T08:50:13Z</time>
      </trkpt>
      <trkpt lat="45.9503" lon="3.6267">
        <ele>855.9</ele>
        <time>2018-12-23T08:50:16Z</time>
      </trkpt>
      <trkpt lat="45.95033" lon="3.62673">
        <ele>855.9</ele>
        <time>2018-12-23T08:50:19Z</time>
      </trkpt>
      <trkpt lat="45.95036" lon="3.62676">
        <ele>855.9</ele>
        <time>2018-12-23T08:50:23Z</time>
      </trkpt>
      <trkpt lat="45.95038" lon="3.62678">
        <ele>855.9</ele>
        <time>2018-12-23T08:50:26Z</time>
      </trkpt>
      <trkpt lat="45.95041" lon="3.62681">
        <ele>855.9</ele>
        <time>2018-12-23T08:50:29Z</time>
      </trkpt>
      <trkpt lat="45.95043" lon="3.62683">
        <ele>855.8</ele>
        <time>2018-12-23T08:50:32Z</time>
      </trkpt>
      <trkpt lat="45.95046" lon="3.62685">
        <ele>855.8</ele>
        <time>2018-12-23T08:50:35Z</time>
      </trkpt>
      <trkpt lat="45.95049" lon="3.62688">
        <ele>855.8</ele>
        <time>2018-12-23T08:50:37Z</time>
      </trkpt>
      <trkpt lat="45.9505" lon="3.62691">
        <ele>855.8</ele>
        <time>2018-12-23T08:50:39Z</time>
      </trkpt>
      <trkpt lat="45.95052" lon="3.62694">
        <ele>855.8</ele>
        <time>2018-12-23T08:50:42Z</time>
      </trkpt>
      <trkpt lat="45.95055" lon="3.62698">
        <ele>855.8</ele>
        <time>2018-12-23T08:50:45Z</time>
      </trkpt>
      <trkpt lat="45.95058" lon="3.62702">
        <ele>855.8</ele>
        <time>2018-12-23T08:50:48Z</time>
      </trkpt>
      <trkpt lat="45.95061" lon="3.62705">
        <ele>855.8</ele>
        <time>2018-12-23T08:50:51Z</time>
      </trkpt>
      <trkpt lat="45.95064" lon="3.62708">
        <ele>855.7</ele>
        <time>2018-12-23T08:50:54Z</time>
      </trkpt>
      <trkpt lat="45.95066" lon="3.62711">
        <ele>855.7</ele>
        <time>2018-12-23T08:50:56Z</time>
      </trkpt>
      <trkpt lat="45.95068" lon="3.62715">
        <ele>855.6</ele>
        <time>2018-12-23T08:50:59Z</time>
      </trkpt>
      <trkpt lat="45.95071" lon="3.62719">
        <ele>855.7</ele>
        <time>2018-12-23T08:51:02Z</time>
      </trkpt>
      <trkpt lat="45.95072" lon="3.62722">
        <ele>855.7</ele>
        <time>2018-12-23T08:51:04Z</time>
      </trkpt>
      <trkpt lat="45.95075" lon="3.62726">
        <ele>855.7</ele>
        <time>2018-12-23T08:51:07Z</time>
      </trkpt>
      <trkpt lat="45.95078" lon="3.62729">
        <ele>855.6</ele>
        <time>2018-12-23T08:51:10Z</time>
      </trkpt>
      <trkpt lat="45.95081" lon="3.62732">
        <ele>855.5</ele>
        <time>2018-12-23T08:51:13Z</time>
      </trkpt>
      <trkpt lat="45.95083" lon="3.62735">
        <ele>855.3</ele>
        <time>2018-12-23T08:51:15Z</time>
      </trkpt>
      <trkpt lat="45.95084" lon="3.62738">
        <ele>855.2</ele>
        <time>2018-12-23T08:51:17Z</time>
      </trkpt>
      <trkpt lat="45.95086" lon="3.62742">
        <ele>855.1</ele>
        <time>2018-12-23T08:51:19Z</time>
      </trkpt>
      <trkpt lat="45.95088" lon="3.62745">
        <ele>855.1</ele>
        <time>2018-12-23T08:51:21Z</time>
      </trkpt>
      <trkpt lat="45.95089" lon="3.6275">
        <ele>855</ele>
        <time>2018-12-23T08:51:23Z</time>
      </trkpt>
      <trkpt lat="45.95091" lon="3.62753">
        <ele>855</ele>
        <time>2018-12-23T08:51:25Z</time>
      </trkpt>
      <trkpt lat="45.95093" lon="3.62757">
        <ele>854.9</ele>
        <time>2018-12-23T08:51:27Z</time>
      </trkpt>
      <trkpt lat="45.95095" lon="3.62761">
        <ele>854.9</ele>
        <time>2018-12-23T08:51:29Z</time>
      </trkpt>
      <trkpt lat="45.95097" lon="3.62764">
        <ele>854.8</ele>
        <time>2018-12-23T08:51:31Z</time>
      </trkpt>
      <trkpt lat="45.95099" lon="3.62767">
        <ele>854.7</ele>
        <time>2018-12-23T08:51:33Z</time>
      </trkpt>
      <trkpt lat="45.951" lon="3.62771">
        <ele>854.6</ele>
        <time>2018-12-23T08:51:36Z</time>
      </trkpt>
      <trkpt lat="45.95103" lon="3.62775">
        <ele>854.5</ele>
        <time>2018-12-23T08:51:44Z</time>
      </trkpt>
      <trkpt lat="45.95106" lon="3.62779">
        <ele>854.4</ele>
        <time>2018-12-23T08:51:47Z</time>
      </trkpt>
      <trkpt lat="45.95108" lon="3.62783">
        <ele>854.3</ele>
        <time>2018-12-23T08:51:50Z</time>
      </trkpt>
      <trkpt lat="45.95111" lon="3.62787">
        <ele>854.2</ele>
        <time>2018-12-23T08:51:53Z</time>
      </trkpt>
      <trkpt lat="45.95113" lon="3.6279">
        <ele>854.1</ele>
        <time>2018-12-23T08:51:55Z</time>
      </trkpt>
      <trkpt lat="45.95116" lon="3.62793">
        <ele>854</ele>
        <time>2018-12-23T08:51:57Z</time>
      </trkpt>
      <trkpt lat="45.95118" lon="3.62796">
        <ele>853.9</ele>
        <time>2018-12-23T08:51:59Z</time>
      </trkpt>
      <trkpt lat="45.9512" lon="3.62799">
        <ele>853.9</ele>
        <time>2018-12-23T08:52:01Z</time>
      </trkpt>
      <trkpt lat="45.95122" lon="3.62802">
        <ele>853.9</ele>
        <time>2018-12-23T08:52:03Z</time>
      </trkpt>
      <trkpt lat="45.95125" lon="3.62804">
        <ele>853.9</ele>
        <time>2018-12-23T08:52:05Z</time>
      </trkpt>
      <trkpt lat="45.95127" lon="3.62807">
        <ele>853.9</ele>
        <time>2018-12-23T08:52:07Z</time>
      </trkpt>
      <trkpt lat="45.9513" lon="3.6281">
        <ele>853.9</ele>
        <time>2018-12-23T08:52:10Z</time>
      </trkpt>
      <trkpt lat="45.95133" lon="3.62814">
        <ele>853.9</ele>
        <time>2018-12-23T08:52:13Z</time>
      </trkpt>
      <trkpt lat="45.95136" lon="3.62817">
        <ele>853.7</ele>
        <time>2018-12-23T08:52:16Z</time>
      </trkpt>
      <trkpt lat="45.95139" lon="3.6282">
        <ele>853.5</ele>
        <time>2018-12-23T08:52:19Z</time>
      </trkpt>
      <trkpt lat="45.95141" lon="3.62823">
        <ele>853.3</ele>
        <time>2018-12-23T08:52:21Z</time>
      </trkpt>
      <trkpt lat="45.95145" lon="3.62826">
        <ele>853</ele>
        <time>2018-12-23T08:52:24Z</time>
      </trkpt>
      <trkpt lat="45.95148" lon="3.62829">
        <ele>852.8</ele>
        <time>2018-12-23T08:52:27Z</time>
      </trkpt>
      <trkpt lat="45.95151" lon="3.62831">
        <ele>852.7</ele>
        <time>2018-12-23T08:52:30Z</time>
      </trkpt>
      <trkpt lat="45.95154" lon="3.62832">
        <ele>852.5</ele>
        <time>2018-12-23T08:52:32Z</time>
      </trkpt>
      <trkpt lat="45.95157" lon="3.62834">
        <ele>852.3</ele>
        <time>2018-12-23T08:52:35Z</time>
      </trkpt>
      <trkpt lat="45.95161" lon="3.62836">
        <ele>851.9</ele>
        <time>2018-12-23T08:52:38Z</time>
      </trkpt>
      <trkpt lat="45.95164" lon="3.62838">
        <ele>851.7</ele>
        <time>2018-12-23T08:52:41Z</time>
      </trkpt>
      <trkpt lat="45.95167" lon="3.62839">
        <ele>851.3</ele>
        <time>2018-12-23T08:52:44Z</time>
      </trkpt>
      <trkpt lat="45.9517" lon="3.62842">
        <ele>850.8</ele>
        <time>2018-12-23T08:52:47Z</time>
      </trkpt>
      <trkpt lat="45.95173" lon="3.62843">
        <ele>850.4</ele>
        <time>2018-12-23T08:52:57Z</time>
      </trkpt>
      <trkpt lat="45.95175" lon="3.62847">
        <ele>850.3</ele>
        <time>2018-12-23T08:53:14Z</time>
      </trkpt>
      <trkpt lat="45.95179" lon="3.62849">
        <ele>850.3</ele>
        <time>2018-12-23T08:53:17Z</time>
      </trkpt>
      <trkpt lat="45.95182" lon="3.6285">
        <ele>850</ele>
        <time>2018-12-23T08:53:19Z</time>
      </trkpt>
      <trkpt lat="45.95185" lon="3.62851">
        <ele>849.8</ele>
        <time>2018-12-23T08:53:22Z</time>
      </trkpt>
      <trkpt lat="45.95188" lon="3.62851">
        <ele>849.5</ele>
        <time>2018-12-23T08:53:26Z</time>
      </trkpt>
      <trkpt lat="45.9519" lon="3.62852">
        <ele>849.4</ele>
        <time>2018-12-23T08:53:28Z</time>
      </trkpt>
      <trkpt lat="45.95194" lon="3.62853">
        <ele>849.2</ele>
        <time>2018-12-23T08:53:30Z</time>
      </trkpt>
      <trkpt lat="45.95196" lon="3.62853">
        <ele>849.1</ele>
        <time>2018-12-23T08:53:32Z</time>
      </trkpt>
      <trkpt lat="45.95199" lon="3.62854">
        <ele>848.8</ele>
        <time>2018-12-23T08:53:34Z</time>
      </trkpt>
      <trkpt lat="45.95202" lon="3.62855">
        <ele>848.5</ele>
        <time>2018-12-23T08:53:36Z</time>
      </trkpt>
      <trkpt lat="45.95204" lon="3.62856">
        <ele>848.2</ele>
        <time>2018-12-23T08:53:38Z</time>
      </trkpt>
      <trkpt lat="45.95207" lon="3.62858">
        <ele>848.1</ele>
        <time>2018-12-23T08:53:40Z</time>
      </trkpt>
      <trkpt lat="45.9521" lon="3.62859">
        <ele>848</ele>
        <time>2018-12-23T08:53:42Z</time>
      </trkpt>
      <trkpt lat="45.95213" lon="3.62861">
        <ele>847.8</ele>
        <time>2018-12-23T08:53:44Z</time>
      </trkpt>
      <trkpt lat="45.95216" lon="3.62863">
        <ele>847.9</ele>
        <time>2018-12-23T08:53:46Z</time>
      </trkpt>
      <trkpt lat="45.95219" lon="3.62866">
        <ele>847.9</ele>
        <time>2018-12-23T08:53:49Z</time>
      </trkpt>
      <trkpt lat="45.95222" lon="3.62869">
        <ele>847.9</ele>
        <time>2018-12-23T08:53:51Z</time>
      </trkpt>
      <trkpt lat="45.95225" lon="3.62871">
        <ele>847.9</ele>
        <time>2018-12-23T08:53:53Z</time>
      </trkpt>
      <trkpt lat="45.95227" lon="3.62874">
        <ele>847.9</ele>
        <time>2018-12-23T08:53:55Z</time>
      </trkpt>
      <trkpt lat="45.95229" lon="3.62877">
        <ele>847.8</ele>
        <time>2018-12-23T08:53:57Z</time>
      </trkpt>
      <trkpt lat="45.95232" lon="3.62881">
        <ele>847.7</ele>
        <time>2018-12-23T08:54:00Z</time>
      </trkpt>
      <trkpt lat="45.95235" lon="3.62884">
        <ele>847.8</ele>
        <time>2018-12-23T08:54:03Z</time>
      </trkpt>
      <trkpt lat="45.95237" lon="3.62888">
        <ele>847.9</ele>
        <time>2018-12-23T08:54:06Z</time>
      </trkpt>
      <trkpt lat="45.95239" lon="3.62892">
        <ele>847.9</ele>
        <time>2018-12-23T08:54:09Z</time>
      </trkpt>
      <trkpt lat="45.95242" lon="3.62896">
        <ele>848</ele>
        <time>2018-12-23T08:54:12Z</time>
      </trkpt>
      <trkpt lat="45.95244" lon="3.629">
        <ele>848.1</ele>
        <time>2018-12-23T08:54:15Z</time>
      </trkpt>
      <trkpt lat="45.95247" lon="3.62904">
        <ele>848.1</ele>
        <time>2018-12-23T08:54:18Z</time>
      </trkpt>
      <trkpt lat="45.9525" lon="3.62907">
        <ele>848.2</ele>
        <time>2018-12-23T08:54:20Z</time>
      </trkpt>
      <trkpt lat="45.95252" lon="3.6291">
        <ele>848.2</ele>
        <time>2018-12-23T08:54:22Z</time>
      </trkpt>
      <trkpt lat="45.95255" lon="3.62913">
        <ele>848.2</ele>
        <time>2018-12-23T08:54:24Z</time>
      </trkpt>
      <trkpt lat="45.95257" lon="3.62918">
        <ele>848.3</ele>
        <time>2018-12-23T08:54:27Z</time>
      </trkpt>
      <trkpt lat="45.95259" lon="3.62922">
        <ele>848.3</ele>
        <time>2018-12-23T08:54:30Z</time>
      </trkpt>
      <trkpt lat="45.95261" lon="3.62925">
        <ele>848.4</ele>
        <time>2018-12-23T08:54:32Z</time>
      </trkpt>
      <trkpt lat="45.95265" lon="3.62929">
        <ele>848.5</ele>
        <time>2018-12-23T08:54:34Z</time>
      </trkpt>
      <trkpt lat="45.95267" lon="3.62931">
        <ele>848.6</ele>
        <time>2018-12-23T08:54:36Z</time>
      </trkpt>
      <trkpt lat="45.95269" lon="3.62935">
        <ele>848.7</ele>
        <time>2018-12-23T08:54:39Z</time>
      </trkpt>
      <trkpt lat="45.95271" lon="3.62939">
        <ele>848.8</ele>
        <time>2018-12-23T08:54:43Z</time>
      </trkpt>
      <trkpt lat="45.95273" lon="3.62943">
        <ele>849</ele>
        <time>2018-12-23T08:54:46Z</time>
      </trkpt>
      <trkpt lat="45.95275" lon="3.62946">
        <ele>849</ele>
        <time>2018-12-23T08:54:50Z</time>
      </trkpt>
      <trkpt lat="45.95277" lon="3.6295">
        <ele>849</ele>
        <time>2018-12-23T08:54:54Z</time>
      </trkpt>
      <trkpt lat="45.95279" lon="3.62954">
        <ele>849</ele>
        <time>2018-12-23T08:54:57Z</time>
      </trkpt>
      <trkpt lat="45.95282" lon="3.62957">
        <ele>849.2</ele>
        <time>2018-12-23T08:55:01Z</time>
      </trkpt>
      <trkpt lat="45.95284" lon="3.62959">
        <ele>849.4</ele>
        <time>2018-12-23T08:55:05Z</time>
      </trkpt>
      <trkpt lat="45.95288" lon="3.62959">
        <ele>849.6</ele>
        <time>2018-12-23T08:55:25Z</time>
      </trkpt>
      <trkpt lat="45.95287" lon="3.62963">
        <ele>849.7</ele>
        <time>2018-12-23T08:56:39Z</time>
      </trkpt>
      <trkpt lat="45.95287" lon="3.62967">
        <ele>849.7</ele>
        <time>2018-12-23T08:56:42Z</time>
      </trkpt>
      <trkpt lat="45.95288" lon="3.62971">
        <ele>849.8</ele>
        <time>2018-12-23T08:56:48Z</time>
      </trkpt>
      <trkpt lat="45.95291" lon="3.6297">
        <ele>849.9</ele>
        <time>2018-12-23T08:56:56Z</time>
      </trkpt>
      <trkpt lat="45.95291" lon="3.62974">
        <ele>850.1</ele>
        <time>2018-12-23T08:56:59Z</time>
      </trkpt>
      <trkpt lat="45.95295" lon="3.62975">
        <ele>850.4</ele>
        <time>2018-12-23T08:57:04Z</time>
      </trkpt>
      <trkpt lat="45.95298" lon="3.62974">
        <ele>850.7</ele>
        <time>2018-12-23T08:57:14Z</time>
      </trkpt>
      <trkpt lat="45.953" lon="3.62977">
        <ele>850.9</ele>
        <time>2018-12-23T08:57:17Z</time>
      </trkpt>
      <trkpt lat="45.95304" lon="3.62979">
        <ele>851.2</ele>
        <time>2018-12-23T08:57:22Z</time>
      </trkpt>
      <trkpt lat="45.95307" lon="3.62981">
        <ele>851.6</ele>
        <time>2018-12-23T08:57:25Z</time>
      </trkpt>
      <trkpt lat="45.9531" lon="3.62983">
        <ele>852</ele>
        <time>2018-12-23T08:57:27Z</time>
      </trkpt>
      <trkpt lat="45.95312" lon="3.62985">
        <ele>852.4</ele>
        <time>2018-12-23T08:57:30Z</time>
      </trkpt>
      <trkpt lat="45.95314" lon="3.62988">
        <ele>852.7</ele>
        <time>2018-12-23T08:57:32Z</time>
      </trkpt>
      <trkpt lat="45.95316" lon="3.62992">
        <ele>853.1</ele>
        <time>2018-12-23T08:57:35Z</time>
      </trkpt>
      <trkpt lat="45.95318" lon="3.62995">
        <ele>853.6</ele>
        <time>2018-12-23T08:57:39Z</time>
      </trkpt>
      <trkpt lat="45.9532" lon="3.63">
        <ele>854.3</ele>
        <time>2018-12-23T08:57:43Z</time>
      </trkpt>
      <trkpt lat="45.95321" lon="3.63005">
        <ele>855</ele>
        <time>2018-12-23T08:57:46Z</time>
      </trkpt>
      <trkpt lat="45.95323" lon="3.6301">
        <ele>855.8</ele>
        <time>2018-12-23T08:57:49Z</time>
      </trkpt>
      <trkpt lat="45.95323" lon="3.63014">
        <ele>856.5</ele>
        <time>2018-12-23T08:57:52Z</time>
      </trkpt>
      <trkpt lat="45.95325" lon="3.63017">
        <ele>857.2</ele>
        <time>2018-12-23T08:57:55Z</time>
      </trkpt>
      <trkpt lat="45.95327" lon="3.63021">
        <ele>857.7</ele>
        <time>2018-12-23T08:57:58Z</time>
      </trkpt>
      <trkpt lat="45.95329" lon="3.63025">
        <ele>858.3</ele>
        <time>2018-12-23T08:58:01Z</time>
      </trkpt>
      <trkpt lat="45.9533" lon="3.63029">
        <ele>858.8</ele>
        <time>2018-12-23T08:58:04Z</time>
      </trkpt>
      <trkpt lat="45.95331" lon="3.63035">
        <ele>859.5</ele>
        <time>2018-12-23T08:58:07Z</time>
      </trkpt>
      <trkpt lat="45.95333" lon="3.63039">
        <ele>860.2</ele>
        <time>2018-12-23T08:58:11Z</time>
      </trkpt>
      <trkpt lat="45.95334" lon="3.63043">
        <ele>860.9</ele>
        <time>2018-12-23T08:58:14Z</time>
      </trkpt>
      <trkpt lat="45.95335" lon="3.63049">
        <ele>861.7</ele>
        <time>2018-12-23T08:58:17Z</time>
      </trkpt>
      <trkpt lat="45.95334" lon="3.63053">
        <ele>862.4</ele>
        <time>2018-12-23T08:58:19Z</time>
      </trkpt>
      <trkpt lat="45.95334" lon="3.63059">
        <ele>863.1</ele>
        <time>2018-12-23T08:58:22Z</time>
      </trkpt>
      <trkpt lat="45.95336" lon="3.63062">
        <ele>863.5</ele>
        <time>2018-12-23T08:58:24Z</time>
      </trkpt>
      <trkpt lat="45.95338" lon="3.63066">
        <ele>863.8</ele>
        <time>2018-12-23T08:58:26Z</time>
      </trkpt>
      <trkpt lat="45.95339" lon="3.6307">
        <ele>864.1</ele>
        <time>2018-12-23T08:58:29Z</time>
      </trkpt>
      <trkpt lat="45.95342" lon="3.63074">
        <ele>864.6</ele>
        <time>2018-12-23T08:58:32Z</time>
      </trkpt>
      <trkpt lat="45.95344" lon="3.63077">
        <ele>865</ele>
        <time>2018-12-23T08:58:34Z</time>
      </trkpt>
      <trkpt lat="45.95345" lon="3.63081">
        <ele>865.4</ele>
        <time>2018-12-23T08:58:36Z</time>
      </trkpt>
      <trkpt lat="45.95346" lon="3.63086">
        <ele>865.9</ele>
        <time>2018-12-23T08:58:40Z</time>
      </trkpt>
      <trkpt lat="45.95348" lon="3.63091">
        <ele>866.4</ele>
        <time>2018-12-23T08:58:44Z</time>
      </trkpt>
      <trkpt lat="45.9535" lon="3.63094">
        <ele>866.8</ele>
        <time>2018-12-23T08:58:46Z</time>
      </trkpt>
      <trkpt lat="45.95351" lon="3.63098">
        <ele>867.2</ele>
        <time>2018-12-23T08:58:48Z</time>
      </trkpt>
      <trkpt lat="45.95352" lon="3.63102">
        <ele>867.6</ele>
        <time>2018-12-23T08:58:51Z</time>
      </trkpt>
      <trkpt lat="45.95354" lon="3.63106">
        <ele>867.9</ele>
        <time>2018-12-23T08:58:54Z</time>
      </trkpt>
      <trkpt lat="45.95355" lon="3.6311">
        <ele>868.2</ele>
        <time>2018-12-23T08:58:57Z</time>
      </trkpt>
      <trkpt lat="45.95357" lon="3.63113">
        <ele>868.6</ele>
        <time>2018-12-23T08:59:00Z</time>
      </trkpt>
      <trkpt lat="45.95359" lon="3.63116">
        <ele>869.1</ele>
        <time>2018-12-23T08:59:03Z</time>
      </trkpt>
      <trkpt lat="45.95361" lon="3.6312">
        <ele>869.4</ele>
        <time>2018-12-23T08:59:06Z</time>
      </trkpt>
      <trkpt lat="45.95363" lon="3.63124">
        <ele>869.6</ele>
        <time>2018-12-23T08:59:09Z</time>
      </trkpt>
      <trkpt lat="45.95364" lon="3.63129">
        <ele>869.9</ele>
        <time>2018-12-23T08:59:12Z</time>
      </trkpt>
      <trkpt lat="45.95366" lon="3.63133">
        <ele>870.1</ele>
        <time>2018-12-23T08:59:16Z</time>
      </trkpt>
      <trkpt lat="45.95368" lon="3.63137">
        <ele>870.4</ele>
        <time>2018-12-23T08:59:20Z</time>
      </trkpt>
      <trkpt lat="45.9537" lon="3.63142">
        <ele>870.8</ele>
        <time>2018-12-23T08:59:23Z</time>
      </trkpt>
      <trkpt lat="45.95372" lon="3.63145">
        <ele>871.2</ele>
        <time>2018-12-23T08:59:25Z</time>
      </trkpt>
      <trkpt lat="45.95376" lon="3.63149">
        <ele>871.8</ele>
        <time>2018-12-23T08:59:27Z</time>
      </trkpt>
      <trkpt lat="45.9538" lon="3.63153">
        <ele>872.3</ele>
        <time>2018-12-23T08:59:29Z</time>
      </trkpt>
      <trkpt lat="45.95382" lon="3.63156">
        <ele>872.6</ele>
        <time>2018-12-23T08:59:31Z</time>
      </trkpt>
      <trkpt lat="45.95381" lon="3.6316">
        <ele>872.9</ele>
        <time>2018-12-23T08:59:35Z</time>
      </trkpt>
      <trkpt lat="45.95384" lon="3.63164">
        <ele>873.4</ele>
        <time>2018-12-23T08:59:41Z</time>
      </trkpt>
      <trkpt lat="45.95385" lon="3.63167">
        <ele>873.8</ele>
        <time>2018-12-23T08:59:45Z</time>
      </trkpt>
      <trkpt lat="45.95387" lon="3.63172">
        <ele>874.2</ele>
        <time>2018-12-23T08:59:49Z</time>
      </trkpt>
      <trkpt lat="45.95388" lon="3.63176">
        <ele>874.6</ele>
        <time>2018-12-23T08:59:53Z</time>
      </trkpt>
      <trkpt lat="45.95389" lon="3.63181">
        <ele>875.1</ele>
        <time>2018-12-23T08:59:58Z</time>
      </trkpt>
      <trkpt lat="45.95389" lon="3.63185">
        <ele>875.4</ele>
        <time>2018-12-23T09:00:01Z</time>
      </trkpt>
      <trkpt lat="45.95389" lon="3.6319">
        <ele>875.5</ele>
        <time>2018-12-23T09:00:04Z</time>
      </trkpt>
      <trkpt lat="45.95389" lon="3.63194">
        <ele>875.7</ele>
        <time>2018-12-23T09:00:07Z</time>
      </trkpt>
      <trkpt lat="45.9539" lon="3.63199">
        <ele>875.9</ele>
        <time>2018-12-23T09:00:10Z</time>
      </trkpt>
      <trkpt lat="45.95391" lon="3.63203">
        <ele>876.1</ele>
        <time>2018-12-23T09:00:17Z</time>
      </trkpt>
      <trkpt lat="45.95391" lon="3.63208">
        <ele>876.2</ele>
        <time>2018-12-23T09:00:32Z</time>
      </trkpt>
      <trkpt lat="45.9539" lon="3.63211">
        <ele>876.4</ele>
        <time>2018-12-23T09:01:02Z</time>
      </trkpt>
      <trkpt lat="45.95389" lon="3.63207">
        <ele>876.6</ele>
        <time>2018-12-23T09:01:51Z</time>
      </trkpt>
      <trkpt lat="45.95387" lon="3.63203">
        <ele>876.6</ele>
        <time>2018-12-23T09:02:08Z</time>
      </trkpt>
      <trkpt lat="45.95385" lon="3.63207">
        <ele>876.6</ele>
        <time>2018-12-23T09:02:11Z</time>
      </trkpt>
      <trkpt lat="45.95383" lon="3.63211">
        <ele>876.6</ele>
        <time>2018-12-23T09:02:14Z</time>
      </trkpt>
      <trkpt lat="45.95382" lon="3.63214">
        <ele>876.6</ele>
        <time>2018-12-23T09:02:18Z</time>
      </trkpt>
      <trkpt lat="45.95379" lon="3.63217">
        <ele>876.6</ele>
        <time>2018-12-23T09:02:26Z</time>
      </trkpt>
      <trkpt lat="45.95377" lon="3.63219">
        <ele>876.5</ele>
        <time>2018-12-23T09:02:28Z</time>
      </trkpt>
      <trkpt lat="45.95374" lon="3.63222">
        <ele>876.5</ele>
        <time>2018-12-23T09:02:31Z</time>
      </trkpt>
      <trkpt lat="45.95371" lon="3.63225">
        <ele>876.4</ele>
        <time>2018-12-23T09:02:34Z</time>
      </trkpt>
      <trkpt lat="45.95369" lon="3.63227">
        <ele>876.3</ele>
        <time>2018-12-23T09:02:37Z</time>
      </trkpt>
      <trkpt lat="45.95367" lon="3.63232">
        <ele>876.1</ele>
        <time>2018-12-23T09:02:52Z</time>
      </trkpt>
      <trkpt lat="45.95365" lon="3.63235">
        <ele>876.1</ele>
        <time>2018-12-23T09:02:55Z</time>
      </trkpt>
      <trkpt lat="45.95362" lon="3.63239">
        <ele>876</ele>
        <time>2018-12-23T09:02:58Z</time>
      </trkpt>
      <trkpt lat="45.95361" lon="3.63243">
        <ele>876</ele>
        <time>2018-12-23T09:03:00Z</time>
      </trkpt>
      <trkpt lat="45.95358" lon="3.63246">
        <ele>876.1</ele>
        <time>2018-12-23T09:03:03Z</time>
      </trkpt>
      <trkpt lat="45.95356" lon="3.6325">
        <ele>876.3</ele>
        <time>2018-12-23T09:03:06Z</time>
      </trkpt>
      <trkpt lat="45.95355" lon="3.63254">
        <ele>876.5</ele>
        <time>2018-12-23T09:03:08Z</time>
      </trkpt>
      <trkpt lat="45.95353" lon="3.63259">
        <ele>876.5</ele>
        <time>2018-12-23T09:03:11Z</time>
      </trkpt>
      <trkpt lat="45.95352" lon="3.63263">
        <ele>876.5</ele>
        <time>2018-12-23T09:03:14Z</time>
      </trkpt>
      <trkpt lat="45.95351" lon="3.63268">
        <ele>876.5</ele>
        <time>2018-12-23T09:03:17Z</time>
      </trkpt>
      <trkpt lat="45.9535" lon="3.63272">
        <ele>876.6</ele>
        <time>2018-12-23T09:03:20Z</time>
      </trkpt>
      <trkpt lat="45.95348" lon="3.63277">
        <ele>876.6</ele>
        <time>2018-12-23T09:03:23Z</time>
      </trkpt>
      <trkpt lat="45.95346" lon="3.6328">
        <ele>876.7</ele>
        <time>2018-12-23T09:03:26Z</time>
      </trkpt>
      <trkpt lat="45.95344" lon="3.63284">
        <ele>876.8</ele>
        <time>2018-12-23T09:03:34Z</time>
      </trkpt>
      <trkpt lat="45.95342" lon="3.63287">
        <ele>876.9</ele>
        <time>2018-12-23T09:03:38Z</time>
      </trkpt>
      <trkpt lat="45.9534" lon="3.63291">
        <ele>876.9</ele>
        <time>2018-12-23T09:04:04Z</time>
      </trkpt>
      <trkpt lat="45.95337" lon="3.63288">
        <ele>876.9</ele>
        <time>2018-12-23T09:05:34Z</time>
      </trkpt>
      <trkpt lat="45.95333" lon="3.63288">
        <ele>876.8</ele>
        <time>2018-12-23T09:05:38Z</time>
      </trkpt>
      <trkpt lat="45.9533" lon="3.63288">
        <ele>876.7</ele>
        <time>2018-12-23T09:05:41Z</time>
      </trkpt>
      <trkpt lat="45.95328" lon="3.63284">
        <ele>876.5</ele>
        <time>2018-12-23T09:05:44Z</time>
      </trkpt>
      <trkpt lat="45.95325" lon="3.63285">
        <ele>876.1</ele>
        <time>2018-12-23T09:07:03Z</time>
      </trkpt>
      <trkpt lat="45.95322" lon="3.63286">
        <ele>875.7</ele>
        <time>2018-12-23T09:07:06Z</time>
      </trkpt>
      <trkpt lat="45.9532" lon="3.63289">
        <ele>875.4</ele>
        <time>2018-12-23T09:07:13Z</time>
      </trkpt>
      <trkpt lat="45.95317" lon="3.63291">
        <ele>875.3</ele>
        <time>2018-12-23T09:07:15Z</time>
      </trkpt>
      <trkpt lat="45.95315" lon="3.63294">
        <ele>875.2</ele>
        <time>2018-12-23T09:07:19Z</time>
      </trkpt>
      <trkpt lat="45.95311" lon="3.63296">
        <ele>874.5</ele>
        <time>2018-12-23T09:07:22Z</time>
      </trkpt>
      <trkpt lat="45.95307" lon="3.63298">
        <ele>873.9</ele>
        <time>2018-12-23T09:07:24Z</time>
      </trkpt>
      <trkpt lat="45.95304" lon="3.63299">
        <ele>873.5</ele>
        <time>2018-12-23T09:07:27Z</time>
      </trkpt>
      <trkpt lat="45.953" lon="3.633">
        <ele>873.1</ele>
        <time>2018-12-23T09:07:29Z</time>
      </trkpt>
      <trkpt lat="45.95297" lon="3.63302">
        <ele>872.9</ele>
        <time>2018-12-23T09:07:31Z</time>
      </trkpt>
      <trkpt lat="45.95293" lon="3.63303">
        <ele>872.7</ele>
        <time>2018-12-23T09:07:33Z</time>
      </trkpt>
      <trkpt lat="45.95291" lon="3.63304">
        <ele>872.6</ele>
        <time>2018-12-23T09:07:35Z</time>
      </trkpt>
      <trkpt lat="45.95288" lon="3.63305">
        <ele>872.2</ele>
        <time>2018-12-23T09:07:38Z</time>
      </trkpt>
      <trkpt lat="45.95284" lon="3.63307">
        <ele>871.7</ele>
        <time>2018-12-23T09:07:43Z</time>
      </trkpt>
      <trkpt lat="45.95281" lon="3.63308">
        <ele>871.3</ele>
        <time>2018-12-23T09:07:46Z</time>
      </trkpt>
      <trkpt lat="45.95277" lon="3.63308">
        <ele>871.1</ele>
        <time>2018-12-23T09:07:49Z</time>
      </trkpt>
      <trkpt lat="45.95274" lon="3.63308">
        <ele>870.9</ele>
        <time>2018-12-23T09:07:52Z</time>
      </trkpt>
      <trkpt lat="45.9527" lon="3.63309">
        <ele>870.5</ele>
        <time>2018-12-23T09:07:55Z</time>
      </trkpt>
      <trkpt lat="45.95266" lon="3.63311">
        <ele>870</ele>
        <time>2018-12-23T09:07:58Z</time>
      </trkpt>
      <trkpt lat="45.95263" lon="3.63311">
        <ele>869.6</ele>
        <time>2018-12-23T09:08:00Z</time>
      </trkpt>
      <trkpt lat="45.9526" lon="3.63312">
        <ele>869.2</ele>
        <time>2018-12-23T09:08:02Z</time>
      </trkpt>
      <trkpt lat="45.95257" lon="3.63311">
        <ele>868.8</ele>
        <time>2018-12-23T09:08:05Z</time>
      </trkpt>
      <trkpt lat="45.95253" lon="3.63312">
        <ele>868.4</ele>
        <time>2018-12-23T09:08:09Z</time>
      </trkpt>
      <trkpt lat="45.95251" lon="3.6331">
        <ele>868.2</ele>
        <time>2018-12-23T09:08:12Z</time>
      </trkpt>
      <trkpt lat="45.95247" lon="3.63308">
        <ele>867.9</ele>
        <time>2018-12-23T09:08:15Z</time>
      </trkpt>
      <trkpt lat="45.95244" lon="3.63309">
        <ele>867.7</ele>
        <time>2018-12-23T09:08:17Z</time>
      </trkpt>
      <trkpt lat="45.95241" lon="3.6331">
        <ele>867.3</ele>
        <time>2018-12-23T09:08:20Z</time>
      </trkpt>
      <trkpt lat="45.95238" lon="3.6331">
        <ele>866.9</ele>
        <time>2018-12-23T09:08:23Z</time>
      </trkpt>
      <trkpt lat="45.95235" lon="3.63311">
        <ele>866.8</ele>
        <time>2018-12-23T09:08:25Z</time>
      </trkpt>
      <trkpt lat="45.95231" lon="3.63312">
        <ele>866.6</ele>
        <time>2018-12-23T09:08:27Z</time>
      </trkpt>
      <trkpt lat="45.95228" lon="3.63312">
        <ele>866.5</ele>
        <time>2018-12-23T09:08:29Z</time>
      </trkpt>
      <trkpt lat="45.95224" lon="3.63311">
        <ele>865.9</ele>
        <time>2018-12-23T09:08:32Z</time>
      </trkpt>
      <trkpt lat="45.95221" lon="3.63312">
        <ele>865.4</ele>
        <time>2018-12-23T09:08:35Z</time>
      </trkpt>
      <trkpt lat="45.95218" lon="3.63311">
        <ele>865</ele>
        <time>2018-12-23T09:08:38Z</time>
      </trkpt>
      <trkpt lat="45.95215" lon="3.63309">
        <ele>864.8</ele>
        <time>2018-12-23T09:08:41Z</time>
      </trkpt>
      <trkpt lat="45.95211" lon="3.63309">
        <ele>864.5</ele>
        <time>2018-12-23T09:08:44Z</time>
      </trkpt>
      <trkpt lat="45.95207" lon="3.63309">
        <ele>864</ele>
        <time>2018-12-23T09:08:47Z</time>
      </trkpt>
      <trkpt lat="45.95203" lon="3.63309">
        <ele>863.4</ele>
        <time>2018-12-23T09:08:50Z</time>
      </trkpt>
      <trkpt lat="45.95201" lon="3.63309">
        <ele>863</ele>
        <time>2018-12-23T09:08:52Z</time>
      </trkpt>
      <trkpt lat="45.95198" lon="3.63308">
        <ele>862.8</ele>
        <time>2018-12-23T09:08:54Z</time>
      </trkpt>
      <trkpt lat="45.95194" lon="3.63308">
        <ele>862.6</ele>
        <time>2018-12-23T09:08:56Z</time>
      </trkpt>
      <trkpt lat="45.95192" lon="3.63308">
        <ele>862.4</ele>
        <time>2018-12-23T09:08:58Z</time>
      </trkpt>
      <trkpt lat="45.95189" lon="3.63307">
        <ele>862</ele>
        <time>2018-12-23T09:09:00Z</time>
      </trkpt>
      <trkpt lat="45.95186" lon="3.63305">
        <ele>861.6</ele>
        <time>2018-12-23T09:09:02Z</time>
      </trkpt>
      <trkpt lat="45.95182" lon="3.63305">
        <ele>861.2</ele>
        <time>2018-12-23T09:09:05Z</time>
      </trkpt>
      <trkpt lat="45.95179" lon="3.63304">
        <ele>861</ele>
        <time>2018-12-23T09:09:08Z</time>
      </trkpt>
      <trkpt lat="45.95176" lon="3.63302">
        <ele>860.8</ele>
        <time>2018-12-23T09:09:11Z</time>
      </trkpt>
      <trkpt lat="45.95173" lon="3.63301">
        <ele>860.5</ele>
        <time>2018-12-23T09:09:14Z</time>
      </trkpt>
      <trkpt lat="45.95169" lon="3.63298">
        <ele>860</ele>
        <time>2018-12-23T09:09:17Z</time>
      </trkpt>
      <trkpt lat="45.95166" lon="3.63298">
        <ele>859.7</ele>
        <time>2018-12-23T09:09:18Z</time>
      </trkpt>
      <trkpt lat="45.95163" lon="3.63297">
        <ele>859.3</ele>
        <time>2018-12-23T09:09:20Z</time>
      </trkpt>
      <trkpt lat="45.9516" lon="3.63296">
        <ele>858.8</ele>
        <time>2018-12-23T09:09:22Z</time>
      </trkpt>
      <trkpt lat="45.95157" lon="3.63296">
        <ele>858.5</ele>
        <time>2018-12-23T09:09:24Z</time>
      </trkpt>
      <trkpt lat="45.95153" lon="3.63295">
        <ele>858.2</ele>
        <time>2018-12-23T09:09:27Z</time>
      </trkpt>
      <trkpt lat="45.95149" lon="3.63295">
        <ele>857.9</ele>
        <time>2018-12-23T09:09:29Z</time>
      </trkpt>
      <trkpt lat="45.95146" lon="3.63295">
        <ele>857.4</ele>
        <time>2018-12-23T09:09:31Z</time>
      </trkpt>
      <trkpt lat="45.95143" lon="3.63295">
        <ele>856.9</ele>
        <time>2018-12-23T09:09:33Z</time>
      </trkpt>
      <trkpt lat="45.95139" lon="3.63294">
        <ele>856.3</ele>
        <time>2018-12-23T09:09:36Z</time>
      </trkpt>
      <trkpt lat="45.95135" lon="3.63294">
        <ele>855.7</ele>
        <time>2018-12-23T09:09:39Z</time>
      </trkpt>
      <trkpt lat="45.95131" lon="3.63294">
        <ele>855.1</ele>
        <time>2018-12-23T09:09:42Z</time>
      </trkpt>
      <trkpt lat="45.95128" lon="3.63293">
        <ele>854.3</ele>
        <time>2018-12-23T09:09:44Z</time>
      </trkpt>
      <trkpt lat="45.95125" lon="3.63293">
        <ele>853.5</ele>
        <time>2018-12-23T09:09:46Z</time>
      </trkpt>
      <trkpt lat="45.95122" lon="3.63292">
        <ele>852.8</ele>
        <time>2018-12-23T09:09:50Z</time>
      </trkpt>
      <trkpt lat="45.95118" lon="3.63292">
        <ele>852.1</ele>
        <time>2018-12-23T09:09:53Z</time>
      </trkpt>
      <trkpt lat="45.95115" lon="3.63292">
        <ele>851.5</ele>
        <time>2018-12-23T09:09:55Z</time>
      </trkpt>
      <trkpt lat="45.95112" lon="3.63291">
        <ele>851.1</ele>
        <time>2018-12-23T09:09:57Z</time>
      </trkpt>
      <trkpt lat="45.95109" lon="3.6329">
        <ele>850.8</ele>
        <time>2018-12-23T09:09:59Z</time>
      </trkpt>
      <trkpt lat="45.95106" lon="3.63288">
        <ele>850.2</ele>
        <time>2018-12-23T09:10:02Z</time>
      </trkpt>
      <trkpt lat="45.95103" lon="3.63287">
        <ele>849.5</ele>
        <time>2018-12-23T09:10:06Z</time>
      </trkpt>
      <trkpt lat="45.951" lon="3.63286">
        <ele>848.7</ele>
        <time>2018-12-23T09:10:13Z</time>
      </trkpt>
      <trkpt lat="45.95098" lon="3.63284">
        <ele>848.1</ele>
        <time>2018-12-23T09:10:26Z</time>
      </trkpt>
      <trkpt lat="45.95095" lon="3.63283">
        <ele>847.6</ele>
        <time>2018-12-23T09:10:29Z</time>
      </trkpt>
      <trkpt lat="45.95091" lon="3.63282">
        <ele>847</ele>
        <time>2018-12-23T09:10:34Z</time>
      </trkpt>
      <trkpt lat="45.9509" lon="3.63278">
        <ele>846.4</ele>
        <time>2018-12-23T09:10:38Z</time>
      </trkpt>
      <trkpt lat="45.95088" lon="3.63277">
        <ele>845.7</ele>
        <time>2018-12-23T09:10:40Z</time>
      </trkpt>
      <trkpt lat="45.95085" lon="3.63278">
        <ele>844.8</ele>
        <time>2018-12-23T09:10:43Z</time>
      </trkpt>
      <trkpt lat="45.95081" lon="3.63278">
        <ele>844.3</ele>
        <time>2018-12-23T09:10:46Z</time>
      </trkpt>
      <trkpt lat="45.95078" lon="3.63277">
        <ele>843.9</ele>
        <time>2018-12-23T09:10:49Z</time>
      </trkpt>
      <trkpt lat="45.95074" lon="3.63274">
        <ele>843.4</ele>
        <time>2018-12-23T09:10:52Z</time>
      </trkpt>
      <trkpt lat="45.95071" lon="3.63274">
        <ele>842.7</ele>
        <time>2018-12-23T09:10:56Z</time>
      </trkpt>
      <trkpt lat="45.95068" lon="3.63272">
        <ele>842</ele>
        <time>2018-12-23T09:10:59Z</time>
      </trkpt>
      <trkpt lat="45.95066" lon="3.63269">
        <ele>841.6</ele>
        <time>2018-12-23T09:11:02Z</time>
      </trkpt>
      <trkpt lat="45.95063" lon="3.63269">
        <ele>841.2</ele>
        <time>2018-12-23T09:11:05Z</time>
      </trkpt>
      <trkpt lat="45.9506" lon="3.63268">
        <ele>840.9</ele>
        <time>2018-12-23T09:11:08Z</time>
      </trkpt>
      <trkpt lat="45.95056" lon="3.63267">
        <ele>840</ele>
        <time>2018-12-23T09:11:11Z</time>
      </trkpt>
      <trkpt lat="45.95054" lon="3.63265">
        <ele>839.3</ele>
        <time>2018-12-23T09:11:14Z</time>
      </trkpt>
      <trkpt lat="45.9505" lon="3.63264">
        <ele>838.6</ele>
        <time>2018-12-23T09:11:17Z</time>
      </trkpt>
      <trkpt lat="45.95048" lon="3.63262">
        <ele>838</ele>
        <time>2018-12-23T09:11:21Z</time>
      </trkpt>
      <trkpt lat="45.95045" lon="3.6326">
        <ele>837.5</ele>
        <time>2018-12-23T09:11:24Z</time>
      </trkpt>
      <trkpt lat="45.95043" lon="3.63257">
        <ele>836.9</ele>
        <time>2018-12-23T09:11:28Z</time>
      </trkpt>
      <trkpt lat="45.9504" lon="3.63255">
        <ele>836.2</ele>
        <time>2018-12-23T09:11:31Z</time>
      </trkpt>
      <trkpt lat="45.95037" lon="3.63252">
        <ele>835.4</ele>
        <time>2018-12-23T09:11:35Z</time>
      </trkpt>
      <trkpt lat="45.95035" lon="3.6325">
        <ele>834.8</ele>
        <time>2018-12-23T09:11:38Z</time>
      </trkpt>
      <trkpt lat="45.95031" lon="3.63248">
        <ele>834.1</ele>
        <time>2018-12-23T09:11:41Z</time>
      </trkpt>
      <trkpt lat="45.95028" lon="3.63245">
        <ele>833.4</ele>
        <time>2018-12-23T09:11:43Z</time>
      </trkpt>
      <trkpt lat="45.95026" lon="3.63241">
        <ele>832.9</ele>
        <time>2018-12-23T09:11:46Z</time>
      </trkpt>
      <trkpt lat="45.95024" lon="3.63237">
        <ele>832.4</ele>
        <time>2018-12-23T09:11:49Z</time>
      </trkpt>
      <trkpt lat="45.95022" lon="3.63233">
        <ele>831.9</ele>
        <time>2018-12-23T09:11:52Z</time>
      </trkpt>
      <trkpt lat="45.9502" lon="3.63229">
        <ele>831.4</ele>
        <time>2018-12-23T09:11:55Z</time>
      </trkpt>
      <trkpt lat="45.95017" lon="3.63226">
        <ele>830.8</ele>
        <time>2018-12-23T09:11:58Z</time>
      </trkpt>
      <trkpt lat="45.95014" lon="3.63224">
        <ele>830.3</ele>
        <time>2018-12-23T09:12:00Z</time>
      </trkpt>
      <trkpt lat="45.95011" lon="3.63221">
        <ele>829.8</ele>
        <time>2018-12-23T09:12:03Z</time>
      </trkpt>
      <trkpt lat="45.95009" lon="3.63219">
        <ele>829.4</ele>
        <time>2018-12-23T09:12:06Z</time>
      </trkpt>
      <trkpt lat="45.95007" lon="3.63215">
        <ele>829.1</ele>
        <time>2018-12-23T09:12:09Z</time>
      </trkpt>
      <trkpt lat="45.95004" lon="3.63213">
        <ele>828.9</ele>
        <time>2018-12-23T09:12:12Z</time>
      </trkpt>
      <trkpt lat="45.95001" lon="3.63212">
        <ele>828.5</ele>
        <time>2018-12-23T09:12:15Z</time>
      </trkpt>
      <trkpt lat="45.94998" lon="3.63211">
        <ele>828.1</ele>
        <time>2018-12-23T09:12:17Z</time>
      </trkpt>
      <trkpt lat="45.94995" lon="3.63209">
        <ele>827.7</ele>
        <time>2018-12-23T09:12:19Z</time>
      </trkpt>
      <trkpt lat="45.94992" lon="3.63208">
        <ele>827.3</ele>
        <time>2018-12-23T09:12:21Z</time>
      </trkpt>
      <trkpt lat="45.94989" lon="3.63207">
        <ele>826.9</ele>
        <time>2018-12-23T09:12:23Z</time>
      </trkpt>
      <trkpt lat="45.94985" lon="3.63207">
        <ele>826.7</ele>
        <time>2018-12-23T09:12:26Z</time>
      </trkpt>
      <trkpt lat="45.94982" lon="3.63207">
        <ele>826.5</ele>
        <time>2018-12-23T09:12:28Z</time>
      </trkpt>
      <trkpt lat="45.94979" lon="3.63205">
        <ele>826.1</ele>
        <time>2018-12-23T09:12:31Z</time>
      </trkpt>
      <trkpt lat="45.94976" lon="3.63205">
        <ele>825.7</ele>
        <time>2018-12-23T09:12:33Z</time>
      </trkpt>
      <trkpt lat="45.94973" lon="3.63204">
        <ele>825.7</ele>
        <time>2018-12-23T09:12:36Z</time>
      </trkpt>
      <trkpt lat="45.94969" lon="3.63204">
        <ele>825.7</ele>
        <time>2018-12-23T09:12:38Z</time>
      </trkpt>
      <trkpt lat="45.94966" lon="3.63203">
        <ele>825.5</ele>
        <time>2018-12-23T09:12:41Z</time>
      </trkpt>
      <trkpt lat="45.94962" lon="3.63202">
        <ele>825.2</ele>
        <time>2018-12-23T09:12:44Z</time>
      </trkpt>
      <trkpt lat="45.94958" lon="3.63202">
        <ele>824.9</ele>
        <time>2018-12-23T09:12:47Z</time>
      </trkpt>
      <trkpt lat="45.94955" lon="3.632">
        <ele>824.8</ele>
        <time>2018-12-23T09:12:51Z</time>
      </trkpt>
      <trkpt lat="45.94952" lon="3.63199">
        <ele>824.6</ele>
        <time>2018-12-23T09:12:56Z</time>
      </trkpt>
      <trkpt lat="45.94949" lon="3.632">
        <ele>824.5</ele>
        <time>2018-12-23T09:13:25Z</time>
      </trkpt>
      <trkpt lat="45.94949" lon="3.63204">
        <ele>824.4</ele>
        <time>2018-12-23T09:13:48Z</time>
      </trkpt>
      <trkpt lat="45.94948" lon="3.63208">
        <ele>824.3</ele>
        <time>2018-12-23T09:14:23Z</time>
      </trkpt>
      <trkpt lat="45.94951" lon="3.63206">
        <ele>824.3</ele>
        <time>2018-12-23T09:14:37Z</time>
      </trkpt>
      <trkpt lat="45.94952" lon="3.63201">
        <ele>824.2</ele>
        <time>2018-12-23T09:14:39Z</time>
      </trkpt>
      <trkpt lat="45.94951" lon="3.63197">
        <ele>824.3</ele>
        <time>2018-12-23T09:14:41Z</time>
      </trkpt>
      <trkpt lat="45.9495" lon="3.63192">
        <ele>824.3</ele>
        <time>2018-12-23T09:14:44Z</time>
      </trkpt>
      <trkpt lat="45.94947" lon="3.6319">
        <ele>824.4</ele>
        <time>2018-12-23T09:14:47Z</time>
      </trkpt>
      <trkpt lat="45.94944" lon="3.6319">
        <ele>824.4</ele>
        <time>2018-12-23T09:14:53Z</time>
      </trkpt>
      <trkpt lat="45.94941" lon="3.6319">
        <ele>824.5</ele>
        <time>2018-12-23T09:15:26Z</time>
      </trkpt>
      <trkpt lat="45.94938" lon="3.63191">
        <ele>824.5</ele>
        <time>2018-12-23T09:15:34Z</time>
      </trkpt>
      <trkpt lat="45.94935" lon="3.63191">
        <ele>824.4</ele>
        <time>2018-12-23T09:15:37Z</time>
      </trkpt>
      <trkpt lat="45.94931" lon="3.63191">
        <ele>824.3</ele>
        <time>2018-12-23T09:15:40Z</time>
      </trkpt>
      <trkpt lat="45.94928" lon="3.6319">
        <ele>824.2</ele>
        <time>2018-12-23T09:15:43Z</time>
      </trkpt>
      <trkpt lat="45.94924" lon="3.63188">
        <ele>824.1</ele>
        <time>2018-12-23T09:15:46Z</time>
      </trkpt>
      <trkpt lat="45.9492" lon="3.63188">
        <ele>824</ele>
        <time>2018-12-23T09:15:48Z</time>
      </trkpt>
      <trkpt lat="45.94918" lon="3.63186">
        <ele>823.9</ele>
        <time>2018-12-23T09:15:51Z</time>
      </trkpt>
      <trkpt lat="45.94915" lon="3.63185">
        <ele>823.8</ele>
        <time>2018-12-23T09:15:53Z</time>
      </trkpt>
      <trkpt lat="45.94911" lon="3.63186">
        <ele>823.7</ele>
        <time>2018-12-23T09:15:55Z</time>
      </trkpt>
      <trkpt lat="45.94908" lon="3.63186">
        <ele>823.5</ele>
        <time>2018-12-23T09:15:57Z</time>
      </trkpt>
      <trkpt lat="45.94905" lon="3.63185">
        <ele>823.4</ele>
        <time>2018-12-23T09:16:00Z</time>
      </trkpt>
      <trkpt lat="45.94902" lon="3.63183">
        <ele>823.2</ele>
        <time>2018-12-23T09:16:03Z</time>
      </trkpt>
      <trkpt lat="45.94899" lon="3.63181">
        <ele>823.1</ele>
        <time>2018-12-23T09:16:06Z</time>
      </trkpt>
      <trkpt lat="45.94896" lon="3.63179">
        <ele>822.9</ele>
        <time>2018-12-23T09:16:08Z</time>
      </trkpt>
      <trkpt lat="45.94893" lon="3.63177">
        <ele>822.7</ele>
        <time>2018-12-23T09:16:11Z</time>
      </trkpt>
      <trkpt lat="45.9489" lon="3.63176">
        <ele>822.4</ele>
        <time>2018-12-23T09:16:14Z</time>
      </trkpt>
      <trkpt lat="45.94886" lon="3.63175">
        <ele>822.1</ele>
        <time>2018-12-23T09:16:17Z</time>
      </trkpt>
      <trkpt lat="45.94884" lon="3.63173">
        <ele>821.8</ele>
        <time>2018-12-23T09:16:20Z</time>
      </trkpt>
      <trkpt lat="45.9488" lon="3.63171">
        <ele>821.5</ele>
        <time>2018-12-23T09:16:23Z</time>
      </trkpt>
      <trkpt lat="45.94877" lon="3.6317">
        <ele>821.2</ele>
        <time>2018-12-23T09:16:26Z</time>
      </trkpt>
      <trkpt lat="45.94874" lon="3.63169">
        <ele>820.9</ele>
        <time>2018-12-23T09:16:29Z</time>
      </trkpt>
      <trkpt lat="45.94871" lon="3.63168">
        <ele>820.6</ele>
        <time>2018-12-23T09:16:32Z</time>
      </trkpt>
      <trkpt lat="45.94869" lon="3.63166">
        <ele>820.2</ele>
        <time>2018-12-23T09:16:35Z</time>
      </trkpt>
      <trkpt lat="45.94865" lon="3.63164">
        <ele>819.8</ele>
        <time>2018-12-23T09:16:38Z</time>
      </trkpt>
      <trkpt lat="45.94863" lon="3.63165">
        <ele>819.4</ele>
        <time>2018-12-23T09:16:41Z</time>
      </trkpt>
      <trkpt lat="45.9486" lon="3.63164">
        <ele>818.9</ele>
        <time>2018-12-23T09:16:44Z</time>
      </trkpt>
      <trkpt lat="45.94856" lon="3.63164">
        <ele>818.4</ele>
        <time>2018-12-23T09:16:46Z</time>
      </trkpt>
      <trkpt lat="45.94853" lon="3.63165">
        <ele>818</ele>
        <time>2018-12-23T09:16:48Z</time>
      </trkpt>
      <trkpt lat="45.94849" lon="3.63165">
        <ele>817.5</ele>
        <time>2018-12-23T09:16:50Z</time>
      </trkpt>
      <trkpt lat="45.94846" lon="3.63165">
        <ele>817</ele>
        <time>2018-12-23T09:16:52Z</time>
      </trkpt>
      <trkpt lat="45.94843" lon="3.63165">
        <ele>816.4</ele>
        <time>2018-12-23T09:16:54Z</time>
      </trkpt>
      <trkpt lat="45.94839" lon="3.63165">
        <ele>815.7</ele>
        <time>2018-12-23T09:16:56Z</time>
      </trkpt>
      <trkpt lat="45.94835" lon="3.63165">
        <ele>815.1</ele>
        <time>2018-12-23T09:16:58Z</time>
      </trkpt>
      <trkpt lat="45.94832" lon="3.63166">
        <ele>814.5</ele>
        <time>2018-12-23T09:17:01Z</time>
      </trkpt>
      <trkpt lat="45.94828" lon="3.63164">
        <ele>813.8</ele>
        <time>2018-12-23T09:17:04Z</time>
      </trkpt>
      <trkpt lat="45.94825" lon="3.63163">
        <ele>813.3</ele>
        <time>2018-12-23T09:17:07Z</time>
      </trkpt>
      <trkpt lat="45.94822" lon="3.63162">
        <ele>812.9</ele>
        <time>2018-12-23T09:17:10Z</time>
      </trkpt>
      <trkpt lat="45.94818" lon="3.63162">
        <ele>812.1</ele>
        <time>2018-12-23T09:17:13Z</time>
      </trkpt>
      <trkpt lat="45.94814" lon="3.63162">
        <ele>811.4</ele>
        <time>2018-12-23T09:17:16Z</time>
      </trkpt>
      <trkpt lat="45.94812" lon="3.6316">
        <ele>810.8</ele>
        <time>2018-12-23T09:17:19Z</time>
      </trkpt>
      <trkpt lat="45.94812" lon="3.63155">
        <ele>810.2</ele>
        <time>2018-12-23T09:17:22Z</time>
      </trkpt>
      <trkpt lat="45.94809" lon="3.63152">
        <ele>809.4</ele>
        <time>2018-12-23T09:17:25Z</time>
      </trkpt>
      <trkpt lat="45.94808" lon="3.63147">
        <ele>808.3</ele>
        <time>2018-12-23T09:17:28Z</time>
      </trkpt>
      <trkpt lat="45.94807" lon="3.63142">
        <ele>807.3</ele>
        <time>2018-12-23T09:17:31Z</time>
      </trkpt>
      <trkpt lat="45.94805" lon="3.63138">
        <ele>806.3</ele>
        <time>2018-12-23T09:17:34Z</time>
      </trkpt>
      <trkpt lat="45.94804" lon="3.63133">
        <ele>805.4</ele>
        <time>2018-12-23T09:17:37Z</time>
      </trkpt>
      <trkpt lat="45.94802" lon="3.63128">
        <ele>804.6</ele>
        <time>2018-12-23T09:17:40Z</time>
      </trkpt>
      <trkpt lat="45.948" lon="3.63124">
        <ele>803.8</ele>
        <time>2018-12-23T09:17:43Z</time>
      </trkpt>
      <trkpt lat="45.94799" lon="3.63119">
        <ele>803</ele>
        <time>2018-12-23T09:17:46Z</time>
      </trkpt>
      <trkpt lat="45.94797" lon="3.63114">
        <ele>801.8</ele>
        <time>2018-12-23T09:17:49Z</time>
      </trkpt>
      <trkpt lat="45.94795" lon="3.6311">
        <ele>800.9</ele>
        <time>2018-12-23T09:17:51Z</time>
      </trkpt>
      <trkpt lat="45.94794" lon="3.63106">
        <ele>800.2</ele>
        <time>2018-12-23T09:17:54Z</time>
      </trkpt>
      <trkpt lat="45.94792" lon="3.631">
        <ele>799.3</ele>
        <time>2018-12-23T09:17:57Z</time>
      </trkpt>
      <trkpt lat="45.9479" lon="3.63095">
        <ele>798.5</ele>
        <time>2018-12-23T09:18:00Z</time>
      </trkpt>
      <trkpt lat="45.94789" lon="3.63091">
        <ele>797.9</ele>
        <time>2018-12-23T09:18:02Z</time>
      </trkpt>
      <trkpt lat="45.94787" lon="3.63087">
        <ele>797.1</ele>
        <time>2018-12-23T09:18:05Z</time>
      </trkpt>
      <trkpt lat="45.94786" lon="3.63082">
        <ele>796.1</ele>
        <time>2018-12-23T09:18:08Z</time>
      </trkpt>
      <trkpt lat="45.94785" lon="3.63078">
        <ele>795.4</ele>
        <time>2018-12-23T09:18:10Z</time>
      </trkpt>
      <trkpt lat="45.94784" lon="3.63073">
        <ele>794.6</ele>
        <time>2018-12-23T09:18:13Z</time>
      </trkpt>
      <trkpt lat="45.94783" lon="3.63069">
        <ele>793.9</ele>
        <time>2018-12-23T09:18:16Z</time>
      </trkpt>
      <trkpt lat="45.94781" lon="3.63072">
        <ele>793.1</ele>
        <time>2018-12-23T09:18:19Z</time>
      </trkpt>
      <trkpt lat="45.94779" lon="3.63077">
        <ele>792.3</ele>
        <time>2018-12-23T09:18:23Z</time>
      </trkpt>
      <trkpt lat="45.94778" lon="3.63073">
        <ele>791.7</ele>
        <time>2018-12-23T09:18:31Z</time>
      </trkpt>
      <trkpt lat="45.94779" lon="3.63068">
        <ele>791.3</ele>
        <time>2018-12-23T09:18:35Z</time>
      </trkpt>
      <trkpt lat="45.94779" lon="3.63063">
        <ele>790.9</ele>
        <time>2018-12-23T09:18:38Z</time>
      </trkpt>
      <trkpt lat="45.94779" lon="3.63058">
        <ele>790.4</ele>
        <time>2018-12-23T09:18:41Z</time>
      </trkpt>
      <trkpt lat="45.94779" lon="3.63054">
        <ele>790</ele>
        <time>2018-12-23T09:18:43Z</time>
      </trkpt>
      <trkpt lat="45.94778" lon="3.6305">
        <ele>789.6</ele>
        <time>2018-12-23T09:18:45Z</time>
      </trkpt>
      <trkpt lat="45.94779" lon="3.63045">
        <ele>789.1</ele>
        <time>2018-12-23T09:18:48Z</time>
      </trkpt>
      <trkpt lat="45.9478" lon="3.6304">
        <ele>789.1</ele>
        <time>2018-12-23T09:18:52Z</time>
      </trkpt>
      <trkpt lat="45.94782" lon="3.63036">
        <ele>789.1</ele>
        <time>2018-12-23T09:18:57Z</time>
      </trkpt>
      <trkpt lat="45.94785" lon="3.63033">
        <ele>789.6</ele>
        <time>2018-12-23T09:19:01Z</time>
      </trkpt>
      <trkpt lat="45.94786" lon="3.63037">
        <ele>790.1</ele>
        <time>2018-12-23T09:19:11Z</time>
      </trkpt>
      <trkpt lat="45.94785" lon="3.63033">
        <ele>790.5</ele>
        <time>2018-12-23T09:20:15Z</time>
      </trkpt>
      <trkpt lat="45.94788" lon="3.63033">
        <ele>791.3</ele>
        <time>2018-12-23T09:20:21Z</time>
      </trkpt>
      <trkpt lat="45.94792" lon="3.63034">
        <ele>792.2</ele>
        <time>2018-12-23T09:20:24Z</time>
      </trkpt>
      <trkpt lat="45.94795" lon="3.63034">
        <ele>792.9</ele>
        <time>2018-12-23T09:20:26Z</time>
      </trkpt>
      <trkpt lat="45.94798" lon="3.63034">
        <ele>793.8</ele>
        <time>2018-12-23T09:20:28Z</time>
      </trkpt>
      <trkpt lat="45.94801" lon="3.63033">
        <ele>794.6</ele>
        <time>2018-12-23T09:20:30Z</time>
      </trkpt>
      <trkpt lat="45.94805" lon="3.63033">
        <ele>795.5</ele>
        <time>2018-12-23T09:20:32Z</time>
      </trkpt>
      <trkpt lat="45.94809" lon="3.63033">
        <ele>796.2</ele>
        <time>2018-12-23T09:20:34Z</time>
      </trkpt>
      <trkpt lat="45.94812" lon="3.63033">
        <ele>796.8</ele>
        <time>2018-12-23T09:20:36Z</time>
      </trkpt>
      <trkpt lat="45.94816" lon="3.63033">
        <ele>797.5</ele>
        <time>2018-12-23T09:20:38Z</time>
      </trkpt>
      <trkpt lat="45.9482" lon="3.63032">
        <ele>798.4</ele>
        <time>2018-12-23T09:20:40Z</time>
      </trkpt>
      <trkpt lat="45.94823" lon="3.63031">
        <ele>799.2</ele>
        <time>2018-12-23T09:20:42Z</time>
      </trkpt>
      <trkpt lat="45.94827" lon="3.6303">
        <ele>799.9</ele>
        <time>2018-12-23T09:20:44Z</time>
      </trkpt>
      <trkpt lat="45.94829" lon="3.63029">
        <ele>800.6</ele>
        <time>2018-12-23T09:20:46Z</time>
      </trkpt>
      <trkpt lat="45.94833" lon="3.63025">
        <ele>803.5</ele>
        <time>2018-12-23T09:20:49Z</time>
      </trkpt>
      <trkpt lat="45.94836" lon="3.63022">
        <ele>803.5</ele>
        <time>2018-12-23T09:20:51Z</time>
      </trkpt>
      <trkpt lat="45.94838" lon="3.63018">
        <ele>803.4</ele>
        <time>2018-12-23T09:20:53Z</time>
      </trkpt>
      <trkpt lat="45.94839" lon="3.63014">
        <ele>803.4</ele>
        <time>2018-12-23T09:20:56Z</time>
      </trkpt>
      <trkpt lat="45.94838" lon="3.63008">
        <ele>803.4</ele>
        <time>2018-12-23T09:20:59Z</time>
      </trkpt>
      <trkpt lat="45.94837" lon="3.63003">
        <ele>803.6</ele>
        <time>2018-12-23T09:21:02Z</time>
      </trkpt>
      <trkpt lat="45.94838" lon="3.62999">
        <ele>803.7</ele>
        <time>2018-12-23T09:21:08Z</time>
      </trkpt>
      <trkpt lat="45.94841" lon="3.63002">
        <ele>803.6</ele>
        <time>2018-12-23T09:21:11Z</time>
      </trkpt>
      <trkpt lat="45.94844" lon="3.63004">
        <ele>803.5</ele>
        <time>2018-12-23T09:21:13Z</time>
      </trkpt>
      <trkpt lat="45.94847" lon="3.63006">
        <ele>803.3</ele>
        <time>2018-12-23T09:21:16Z</time>
      </trkpt>
      <trkpt lat="45.94851" lon="3.63007">
        <ele>803.3</ele>
        <time>2018-12-23T09:21:22Z</time>
      </trkpt>
      <trkpt lat="45.94848" lon="3.63005">
        <ele>803.3</ele>
        <time>2018-12-23T09:21:36Z</time>
      </trkpt>
      <trkpt lat="45.94845" lon="3.63004">
        <ele>803.3</ele>
        <time>2018-12-23T09:21:38Z</time>
      </trkpt>
      <trkpt lat="45.94843" lon="3.63003">
        <ele>803.3</ele>
        <time>2018-12-23T09:21:40Z</time>
      </trkpt>
      <trkpt lat="45.9484" lon="3.63002">
        <ele>803.2</ele>
        <time>2018-12-23T09:21:43Z</time>
      </trkpt>
      <trkpt lat="45.9484" lon="3.63006">
        <ele>803.2</ele>
        <time>2018-12-23T09:21:53Z</time>
      </trkpt>
      <trkpt lat="45.94839" lon="3.63003">
        <ele>803.1</ele>
        <time>2018-12-23T09:22:02Z</time>
      </trkpt>
      <trkpt lat="45.94838" lon="3.62999">
        <ele>803.1</ele>
        <time>2018-12-23T09:22:12Z</time>
      </trkpt>
      <trkpt lat="45.94836" lon="3.62994">
        <ele>803</ele>
        <time>2018-12-23T09:22:18Z</time>
      </trkpt>
      <trkpt lat="45.94834" lon="3.62989">
        <ele>803</ele>
        <time>2018-12-23T09:22:21Z</time>
      </trkpt>
      <trkpt lat="45.94834" lon="3.62985">
        <ele>803.1</ele>
        <time>2018-12-23T09:22:24Z</time>
      </trkpt>
      <trkpt lat="45.94833" lon="3.6298">
        <ele>803.2</ele>
        <time>2018-12-23T09:22:27Z</time>
      </trkpt>
      <trkpt lat="45.94831" lon="3.62976">
        <ele>803.2</ele>
        <time>2018-12-23T09:22:30Z</time>
      </trkpt>
      <trkpt lat="45.94828" lon="3.62972">
        <ele>803.2</ele>
        <time>2018-12-23T09:22:33Z</time>
      </trkpt>
      <trkpt lat="45.94827" lon="3.62968">
        <ele>803.1</ele>
        <time>2018-12-23T09:22:35Z</time>
      </trkpt>
      <trkpt lat="45.94826" lon="3.62964">
        <ele>803.2</ele>
        <time>2018-12-23T09:22:36Z</time>
      </trkpt>
      <trkpt lat="45.94824" lon="3.62958">
        <ele>803.5</ele>
        <time>2018-12-23T09:22:38Z</time>
      </trkpt>
      <trkpt lat="45.94823" lon="3.62953">
        <ele>803.7</ele>
        <time>2018-12-23T09:22:40Z</time>
      </trkpt>
      <trkpt lat="45.94822" lon="3.62949">
        <ele>803.8</ele>
        <time>2018-12-23T09:22:42Z</time>
      </trkpt>
      <trkpt lat="45.9482" lon="3.62944">
        <ele>804</ele>
        <time>2018-12-23T09:22:45Z</time>
      </trkpt>
      <trkpt lat="45.94818" lon="3.6294">
        <ele>804.2</ele>
        <time>2018-12-23T09:22:48Z</time>
      </trkpt>
      <trkpt lat="45.94815" lon="3.62936">
        <ele>804.4</ele>
        <time>2018-12-23T09:22:51Z</time>
      </trkpt>
      <trkpt lat="45.94813" lon="3.62934">
        <ele>804.5</ele>
        <time>2018-12-23T09:22:53Z</time>
      </trkpt>
      <trkpt lat="45.94811" lon="3.62932">
        <ele>804.7</ele>
        <time>2018-12-23T09:22:55Z</time>
      </trkpt>
      <trkpt lat="45.9481" lon="3.62928">
        <ele>804.6</ele>
        <time>2018-12-23T09:22:58Z</time>
      </trkpt>
      <trkpt lat="45.94809" lon="3.62923">
        <ele>804.5</ele>
        <time>2018-12-23T09:23:01Z</time>
      </trkpt>
      <trkpt lat="45.94807" lon="3.62919">
        <ele>804.5</ele>
        <time>2018-12-23T09:23:04Z</time>
      </trkpt>
      <trkpt lat="45.94805" lon="3.62914">
        <ele>804.9</ele>
        <time>2018-12-23T09:23:08Z</time>
      </trkpt>
      <trkpt lat="45.94802" lon="3.6291">
        <ele>805.2</ele>
        <time>2018-12-23T09:23:11Z</time>
      </trkpt>
      <trkpt lat="45.948" lon="3.62907">
        <ele>805</ele>
        <time>2018-12-23T09:23:14Z</time>
      </trkpt>
      <trkpt lat="45.94798" lon="3.62903">
        <ele>804.5</ele>
        <time>2018-12-23T09:23:18Z</time>
      </trkpt>
      <trkpt lat="45.94796" lon="3.629">
        <ele>804</ele>
        <time>2018-12-23T09:23:21Z</time>
      </trkpt>
      <trkpt lat="45.94794" lon="3.62896">
        <ele>803.5</ele>
        <time>2018-12-23T09:23:24Z</time>
      </trkpt>
      <trkpt lat="45.94792" lon="3.62892">
        <ele>803.3</ele>
        <time>2018-12-23T09:23:26Z</time>
      </trkpt>
      <trkpt lat="45.94791" lon="3.62889">
        <ele>803</ele>
        <time>2018-12-23T09:23:28Z</time>
      </trkpt>
      <trkpt lat="45.94788" lon="3.62885">
        <ele>802.6</ele>
        <time>2018-12-23T09:23:31Z</time>
      </trkpt>
      <trkpt lat="45.94786" lon="3.62881">
        <ele>802.3</ele>
        <time>2018-12-23T09:23:34Z</time>
      </trkpt>
      <trkpt lat="45.94783" lon="3.62876">
        <ele>802</ele>
        <time>2018-12-23T09:23:37Z</time>
      </trkpt>
      <trkpt lat="45.94781" lon="3.62873">
        <ele>801.8</ele>
        <time>2018-12-23T09:23:40Z</time>
      </trkpt>
      <trkpt lat="45.94779" lon="3.6287">
        <ele>801.6</ele>
        <time>2018-12-23T09:23:42Z</time>
      </trkpt>
      <trkpt lat="45.94777" lon="3.62866">
        <ele>801.4</ele>
        <time>2018-12-23T09:23:45Z</time>
      </trkpt>
      <trkpt lat="45.94776" lon="3.62862">
        <ele>801.2</ele>
        <time>2018-12-23T09:23:48Z</time>
      </trkpt>
      <trkpt lat="45.94774" lon="3.62858">
        <ele>800.7</ele>
        <time>2018-12-23T09:23:51Z</time>
      </trkpt>
      <trkpt lat="45.94772" lon="3.62854">
        <ele>800.2</ele>
        <time>2018-12-23T09:23:55Z</time>
      </trkpt>
      <trkpt lat="45.94769" lon="3.6285">
        <ele>799.7</ele>
        <time>2018-12-23T09:23:58Z</time>
      </trkpt>
      <trkpt lat="45.94767" lon="3.62847">
        <ele>799.3</ele>
        <time>2018-12-23T09:24:01Z</time>
      </trkpt>
      <trkpt lat="45.94764" lon="3.62843">
        <ele>799</ele>
        <time>2018-12-23T09:24:04Z</time>
      </trkpt>
      <trkpt lat="45.94761" lon="3.6284">
        <ele>798.6</ele>
        <time>2018-12-23T09:24:06Z</time>
      </trkpt>
      <trkpt lat="45.94759" lon="3.62836">
        <ele>798.4</ele>
        <time>2018-12-23T09:24:09Z</time>
      </trkpt>
      <trkpt lat="45.94757" lon="3.62833">
        <ele>798.2</ele>
        <time>2018-12-23T09:24:12Z</time>
      </trkpt>
      <trkpt lat="45.94754" lon="3.62829">
        <ele>798.1</ele>
        <time>2018-12-23T09:24:15Z</time>
      </trkpt>
      <trkpt lat="45.94753" lon="3.62825">
        <ele>798.2</ele>
        <time>2018-12-23T09:24:18Z</time>
      </trkpt>
      <trkpt lat="45.94751" lon="3.62822">
        <ele>798.4</ele>
        <time>2018-12-23T09:24:21Z</time>
      </trkpt>
      <trkpt lat="45.94748" lon="3.62818">
        <ele>798.6</ele>
        <time>2018-12-23T09:24:24Z</time>
      </trkpt>
      <trkpt lat="45.94746" lon="3.62815">
        <ele>798.5</ele>
        <time>2018-12-23T09:24:27Z</time>
      </trkpt>
      <trkpt lat="45.94741" lon="3.62809">
        <ele>798.6</ele>
        <time>2018-12-23T09:24:38Z</time>
      </trkpt>
      <trkpt lat="45.94738" lon="3.62806">
        <ele>798.8</ele>
        <time>2018-12-23T09:25:10Z</time>
      </trkpt>
      <trkpt lat="45.94738" lon="3.62802">
        <ele>799.1</ele>
        <time>2018-12-23T09:25:11Z</time>
      </trkpt>
      <trkpt lat="45.94738" lon="3.62798">
        <ele>799.3</ele>
        <time>2018-12-23T09:25:12Z</time>
      </trkpt>
      <trkpt lat="45.94738" lon="3.62794">
        <ele>799.5</ele>
        <time>2018-12-23T09:25:14Z</time>
      </trkpt>
      <trkpt lat="45.94739" lon="3.62789">
        <ele>799.5</ele>
        <time>2018-12-23T09:25:18Z</time>
      </trkpt>
      <trkpt lat="45.9474" lon="3.62784">
        <ele>799.5</ele>
        <time>2018-12-23T09:25:21Z</time>
      </trkpt>
      <trkpt lat="45.9474" lon="3.6278">
        <ele>799.7</ele>
        <time>2018-12-23T09:25:24Z</time>
      </trkpt>
      <trkpt lat="45.94739" lon="3.62774">
        <ele>800.1</ele>
        <time>2018-12-23T09:25:27Z</time>
      </trkpt>
      <trkpt lat="45.9474" lon="3.62769">
        <ele>800.3</ele>
        <time>2018-12-23T09:25:29Z</time>
      </trkpt>
      <trkpt lat="45.94741" lon="3.62765">
        <ele>800.6</ele>
        <time>2018-12-23T09:25:31Z</time>
      </trkpt>
      <trkpt lat="45.94742" lon="3.62761">
        <ele>800.9</ele>
        <time>2018-12-23T09:25:34Z</time>
      </trkpt>
      <trkpt lat="45.94744" lon="3.62758">
        <ele>801.2</ele>
        <time>2018-12-23T09:25:37Z</time>
      </trkpt>
      <trkpt lat="45.94744" lon="3.62754">
        <ele>801.4</ele>
        <time>2018-12-23T09:25:40Z</time>
      </trkpt>
      <trkpt lat="45.94743" lon="3.62749">
        <ele>801.7</ele>
        <time>2018-12-23T09:25:53Z</time>
      </trkpt>
      <trkpt lat="45.94745" lon="3.62747">
        <ele>801.9</ele>
        <time>2018-12-23T09:26:33Z</time>
      </trkpt>
      <trkpt lat="45.94745" lon="3.62743">
        <ele>802.2</ele>
        <time>2018-12-23T09:26:38Z</time>
      </trkpt>
      <trkpt lat="45.94743" lon="3.6274">
        <ele>802.1</ele>
        <time>2018-12-23T09:26:49Z</time>
      </trkpt>
      <trkpt lat="45.94742" lon="3.62743">
        <ele>802.2</ele>
        <time>2018-12-23T09:27:02Z</time>
      </trkpt>
      <trkpt lat="45.94742" lon="3.62739">
        <ele>802.1</ele>
        <time>2018-12-23T09:27:10Z</time>
      </trkpt>
      <trkpt lat="45.94744" lon="3.62736">
        <ele>802.1</ele>
        <time>2018-12-23T09:27:14Z</time>
      </trkpt>
      <trkpt lat="45.94744" lon="3.62732">
        <ele>802.1</ele>
        <time>2018-12-23T09:27:17Z</time>
      </trkpt>
      <trkpt lat="45.94745" lon="3.62728">
        <ele>802</ele>
        <time>2018-12-23T09:27:36Z</time>
      </trkpt>
      <trkpt lat="45.94744" lon="3.62723">
        <ele>801.9</ele>
        <time>2018-12-23T09:27:41Z</time>
      </trkpt>
      <trkpt lat="45.94744" lon="3.62717">
        <ele>801.7</ele>
        <time>2018-12-23T09:27:44Z</time>
      </trkpt>
      <trkpt lat="45.94743" lon="3.62714">
        <ele>801.6</ele>
        <time>2018-12-23T09:27:46Z</time>
      </trkpt>
      <trkpt lat="45.94742" lon="3.6271">
        <ele>801.5</ele>
        <time>2018-12-23T09:27:48Z</time>
      </trkpt>
      <trkpt lat="45.94741" lon="3.62706">
        <ele>801.2</ele>
        <time>2018-12-23T09:27:50Z</time>
      </trkpt>
      <trkpt lat="45.9474" lon="3.62702">
        <ele>800.9</ele>
        <time>2018-12-23T09:27:52Z</time>
      </trkpt>
      <trkpt lat="45.94738" lon="3.62698">
        <ele>800.5</ele>
        <time>2018-12-23T09:27:55Z</time>
      </trkpt>
      <trkpt lat="45.94737" lon="3.62692">
        <ele>800.1</ele>
        <time>2018-12-23T09:27:58Z</time>
      </trkpt>
      <trkpt lat="45.94736" lon="3.62688">
        <ele>799.6</ele>
        <time>2018-12-23T09:28:00Z</time>
      </trkpt>
      <trkpt lat="45.94735" lon="3.62684">
        <ele>799.1</ele>
        <time>2018-12-23T09:28:02Z</time>
      </trkpt>
      <trkpt lat="45.94734" lon="3.6268">
        <ele>798.6</ele>
        <time>2018-12-23T09:28:04Z</time>
      </trkpt>
      <trkpt lat="45.94733" lon="3.62676">
        <ele>798.1</ele>
        <time>2018-12-23T09:28:06Z</time>
      </trkpt>
      <trkpt lat="45.94732" lon="3.62672">
        <ele>797.5</ele>
        <time>2018-12-23T09:28:08Z</time>
      </trkpt>
      <trkpt lat="45.94732" lon="3.62667">
        <ele>796.9</ele>
        <time>2018-12-23T09:28:10Z</time>
      </trkpt>
      <trkpt lat="45.94731" lon="3.62662">
        <ele>796.1</ele>
        <time>2018-12-23T09:28:13Z</time>
      </trkpt>
      <trkpt lat="45.94731" lon="3.62658">
        <ele>795.6</ele>
        <time>2018-12-23T09:28:15Z</time>
      </trkpt>
      <trkpt lat="45.94731" lon="3.62654">
        <ele>795.2</ele>
        <time>2018-12-23T09:28:17Z</time>
      </trkpt>
      <trkpt lat="45.94731" lon="3.62649">
        <ele>794.8</ele>
        <time>2018-12-23T09:28:19Z</time>
      </trkpt>
      <trkpt lat="45.9473" lon="3.62646">
        <ele>794.5</ele>
        <time>2018-12-23T09:28:21Z</time>
      </trkpt>
      <trkpt lat="45.9473" lon="3.6264">
        <ele>793.7</ele>
        <time>2018-12-23T09:28:24Z</time>
      </trkpt>
      <trkpt lat="45.94731" lon="3.62634">
        <ele>793</ele>
        <time>2018-12-23T09:28:27Z</time>
      </trkpt>
      <trkpt lat="45.9473" lon="3.62628">
        <ele>792.6</ele>
        <time>2018-12-23T09:28:30Z</time>
      </trkpt>
      <trkpt lat="45.9473" lon="3.62623">
        <ele>792.2</ele>
        <time>2018-12-23T09:28:32Z</time>
      </trkpt>
      <trkpt lat="45.9473" lon="3.62617">
        <ele>791.7</ele>
        <time>2018-12-23T09:28:34Z</time>
      </trkpt>
      <trkpt lat="45.9473" lon="3.62612">
        <ele>791.2</ele>
        <time>2018-12-23T09:28:36Z</time>
      </trkpt>
      <trkpt lat="45.9473" lon="3.62606">
        <ele>790.7</ele>
        <time>2018-12-23T09:28:38Z</time>
      </trkpt>
      <trkpt lat="45.9473" lon="3.62601">
        <ele>790.2</ele>
        <time>2018-12-23T09:28:40Z</time>
      </trkpt>
      <trkpt lat="45.94731" lon="3.62597">
        <ele>790.2</ele>
        <time>2018-12-23T09:28:42Z</time>
      </trkpt>
      <trkpt lat="45.94731" lon="3.62593">
        <ele>790.2</ele>
        <time>2018-12-23T09:28:45Z</time>
      </trkpt>
      <trkpt lat="45.94731" lon="3.62589">
        <ele>790.2</ele>
        <time>2018-12-23T09:28:49Z</time>
      </trkpt>
      <trkpt lat="45.94731" lon="3.62585">
        <ele>790.1</ele>
        <time>2018-12-23T09:28:52Z</time>
      </trkpt>
      <trkpt lat="45.94731" lon="3.6258">
        <ele>789.9</ele>
        <time>2018-12-23T09:28:55Z</time>
      </trkpt>
      <trkpt lat="45.94732" lon="3.62574">
        <ele>789.6</ele>
        <time>2018-12-23T09:28:58Z</time>
      </trkpt>
      <trkpt lat="45.94733" lon="3.6257">
        <ele>789.6</ele>
        <time>2018-12-23T09:29:00Z</time>
      </trkpt>
      <trkpt lat="45.94734" lon="3.62566">
        <ele>789.5</ele>
        <time>2018-12-23T09:29:02Z</time>
      </trkpt>
      <trkpt lat="45.94734" lon="3.62561">
        <ele>789.4</ele>
        <time>2018-12-23T09:29:05Z</time>
      </trkpt>
      <trkpt lat="45.94734" lon="3.62556">
        <ele>789.4</ele>
        <time>2018-12-23T09:29:08Z</time>
      </trkpt>
      <trkpt lat="45.94734" lon="3.62551">
        <ele>789.4</ele>
        <time>2018-12-23T09:29:11Z</time>
      </trkpt>
      <trkpt lat="45.94735" lon="3.62546">
        <ele>789.5</ele>
        <time>2018-12-23T09:29:14Z</time>
      </trkpt>
      <trkpt lat="45.94734" lon="3.62542">
        <ele>789.5</ele>
        <time>2018-12-23T09:29:16Z</time>
      </trkpt>
      <trkpt lat="45.94733" lon="3.62536">
        <ele>789.6</ele>
        <time>2018-12-23T09:29:19Z</time>
      </trkpt>
      <trkpt lat="45.94733" lon="3.62532">
        <ele>789.6</ele>
        <time>2018-12-23T09:29:21Z</time>
      </trkpt>
      <trkpt lat="45.94732" lon="3.62528">
        <ele>789.6</ele>
        <time>2018-12-23T09:29:27Z</time>
      </trkpt>
      <trkpt lat="45.94732" lon="3.62524">
        <ele>789.6</ele>
        <time>2018-12-23T09:29:34Z</time>
      </trkpt>
      <trkpt lat="45.94732" lon="3.62519">
        <ele>789.9</ele>
        <time>2018-12-23T09:29:43Z</time>
      </trkpt>
      <trkpt lat="45.94733" lon="3.62514">
        <ele>790.2</ele>
        <time>2018-12-23T09:29:46Z</time>
      </trkpt>
      <trkpt lat="45.94733" lon="3.6251">
        <ele>790.3</ele>
        <time>2018-12-23T09:29:48Z</time>
      </trkpt>
      <trkpt lat="45.94733" lon="3.62505">
        <ele>790.3</ele>
        <time>2018-12-23T09:29:51Z</time>
      </trkpt>
      <trkpt lat="45.94732" lon="3.625">
        <ele>790.3</ele>
        <time>2018-12-23T09:29:54Z</time>
      </trkpt>
      <trkpt lat="45.94731" lon="3.62495">
        <ele>790.2</ele>
        <time>2018-12-23T09:29:57Z</time>
      </trkpt>
      <trkpt lat="45.9473" lon="3.6249">
        <ele>790.2</ele>
        <time>2018-12-23T09:29:59Z</time>
      </trkpt>
      <trkpt lat="45.9473" lon="3.62485">
        <ele>790.1</ele>
        <time>2018-12-23T09:30:02Z</time>
      </trkpt>
      <trkpt lat="45.9473" lon="3.62481">
        <ele>790</ele>
        <time>2018-12-23T09:30:04Z</time>
      </trkpt>
      <trkpt lat="45.94731" lon="3.62476">
        <ele>790</ele>
        <time>2018-12-23T09:30:07Z</time>
      </trkpt>
      <trkpt lat="45.94732" lon="3.62471">
        <ele>789.9</ele>
        <time>2018-12-23T09:30:10Z</time>
      </trkpt>
      <trkpt lat="45.94732" lon="3.62466">
        <ele>789.7</ele>
        <time>2018-12-23T09:30:14Z</time>
      </trkpt>
      <trkpt lat="45.94731" lon="3.62462">
        <ele>789.7</ele>
        <time>2018-12-23T09:30:16Z</time>
      </trkpt>
      <trkpt lat="45.94732" lon="3.62457">
        <ele>789.6</ele>
        <time>2018-12-23T09:30:18Z</time>
      </trkpt>
      <trkpt lat="45.94732" lon="3.62453">
        <ele>789.6</ele>
        <time>2018-12-23T09:30:20Z</time>
      </trkpt>
      <trkpt lat="45.94732" lon="3.62448">
        <ele>789.6</ele>
        <time>2018-12-23T09:30:22Z</time>
      </trkpt>
      <trkpt lat="45.94732" lon="3.62442">
        <ele>789.5</ele>
        <time>2018-12-23T09:30:25Z</time>
      </trkpt>
      <trkpt lat="45.94734" lon="3.62436">
        <ele>789.5</ele>
        <time>2018-12-23T09:30:27Z</time>
      </trkpt>
      <trkpt lat="45.94734" lon="3.62431">
        <ele>789.4</ele>
        <time>2018-12-23T09:30:29Z</time>
      </trkpt>
      <trkpt lat="45.94735" lon="3.62425">
        <ele>789.4</ele>
        <time>2018-12-23T09:30:31Z</time>
      </trkpt>
      <trkpt lat="45.94735" lon="3.6242">
        <ele>789.3</ele>
        <time>2018-12-23T09:30:33Z</time>
      </trkpt>
      <trkpt lat="45.94735" lon="3.62416">
        <ele>789.3</ele>
        <time>2018-12-23T09:30:35Z</time>
      </trkpt>
      <trkpt lat="45.94736" lon="3.62411">
        <ele>789.2</ele>
        <time>2018-12-23T09:30:38Z</time>
      </trkpt>
      <trkpt lat="45.94736" lon="3.62407">
        <ele>789.1</ele>
        <time>2018-12-23T09:30:40Z</time>
      </trkpt>
      <trkpt lat="45.94736" lon="3.62402">
        <ele>789.1</ele>
        <time>2018-12-23T09:30:42Z</time>
      </trkpt>
      <trkpt lat="45.94736" lon="3.62398">
        <ele>789.1</ele>
        <time>2018-12-23T09:30:44Z</time>
      </trkpt>
      <trkpt lat="45.94736" lon="3.62393">
        <ele>789.4</ele>
        <time>2018-12-23T09:30:47Z</time>
      </trkpt>
      <trkpt lat="45.94736" lon="3.62388">
        <ele>789.8</ele>
        <time>2018-12-23T09:30:49Z</time>
      </trkpt>
      <trkpt lat="45.94737" lon="3.62384">
        <ele>789.8</ele>
        <time>2018-12-23T09:30:51Z</time>
      </trkpt>
      <trkpt lat="45.94737" lon="3.6238">
        <ele>789.8</ele>
        <time>2018-12-23T09:30:53Z</time>
      </trkpt>
      <trkpt lat="45.94737" lon="3.62376">
        <ele>789.9</ele>
        <time>2018-12-23T09:30:56Z</time>
      </trkpt>
      <trkpt lat="45.94736" lon="3.62371">
        <ele>789.9</ele>
        <time>2018-12-23T09:30:59Z</time>
      </trkpt>
      <trkpt lat="45.94736" lon="3.62366">
        <ele>789.7</ele>
        <time>2018-12-23T09:31:01Z</time>
      </trkpt>
      <trkpt lat="45.94735" lon="3.62362">
        <ele>789.4</ele>
        <time>2018-12-23T09:31:03Z</time>
      </trkpt>
      <trkpt lat="45.94734" lon="3.62357">
        <ele>789.2</ele>
        <time>2018-12-23T09:31:05Z</time>
      </trkpt>
      <trkpt lat="45.94733" lon="3.62354">
        <ele>789</ele>
        <time>2018-12-23T09:31:08Z</time>
      </trkpt>
      <trkpt lat="45.9473" lon="3.62352">
        <ele>788.8</ele>
        <time>2018-12-23T09:32:00Z</time>
      </trkpt>
      <trkpt lat="45.94729" lon="3.62348">
        <ele>788.7</ele>
        <time>2018-12-23T09:32:02Z</time>
      </trkpt>
      <trkpt lat="45.94728" lon="3.62345">
        <ele>788.5</ele>
        <time>2018-12-23T09:32:04Z</time>
      </trkpt>
      <trkpt lat="45.94725" lon="3.62343">
        <ele>788.2</ele>
        <time>2018-12-23T09:32:06Z</time>
      </trkpt>
      <trkpt lat="45.94722" lon="3.6234">
        <ele>787.7</ele>
        <time>2018-12-23T09:32:09Z</time>
      </trkpt>
      <trkpt lat="45.94719" lon="3.62337">
        <ele>787.3</ele>
        <time>2018-12-23T09:32:12Z</time>
      </trkpt>
      <trkpt lat="45.94718" lon="3.62333">
        <ele>786.9</ele>
        <time>2018-12-23T09:32:15Z</time>
      </trkpt>
      <trkpt lat="45.94716" lon="3.62328">
        <ele>786.4</ele>
        <time>2018-12-23T09:32:18Z</time>
      </trkpt>
      <trkpt lat="45.94713" lon="3.62325">
        <ele>786</ele>
        <time>2018-12-23T09:32:20Z</time>
      </trkpt>
      <trkpt lat="45.94711" lon="3.62323">
        <ele>785.7</ele>
        <time>2018-12-23T09:32:22Z</time>
      </trkpt>
      <trkpt lat="45.94709" lon="3.6232">
        <ele>785.4</ele>
        <time>2018-12-23T09:32:24Z</time>
      </trkpt>
      <trkpt lat="45.94707" lon="3.62318">
        <ele>785.1</ele>
        <time>2018-12-23T09:32:26Z</time>
      </trkpt>
      <trkpt lat="45.94704" lon="3.62315">
        <ele>784.8</ele>
        <time>2018-12-23T09:32:28Z</time>
      </trkpt>
      <trkpt lat="45.94702" lon="3.62311">
        <ele>784.5</ele>
        <time>2018-12-23T09:32:30Z</time>
      </trkpt>
      <trkpt lat="45.94701" lon="3.62308">
        <ele>784.1</ele>
        <time>2018-12-23T09:32:32Z</time>
      </trkpt>
      <trkpt lat="45.94699" lon="3.62304">
        <ele>783.7</ele>
        <time>2018-12-23T09:32:35Z</time>
      </trkpt>
      <trkpt lat="45.94697" lon="3.62301">
        <ele>783.3</ele>
        <time>2018-12-23T09:32:37Z</time>
      </trkpt>
      <trkpt lat="45.94696" lon="3.62296">
        <ele>782.9</ele>
        <time>2018-12-23T09:32:40Z</time>
      </trkpt>
      <trkpt lat="45.94695" lon="3.62291">
        <ele>782.4</ele>
        <time>2018-12-23T09:32:44Z</time>
      </trkpt>
      <trkpt lat="45.94695" lon="3.62286">
        <ele>782.3</ele>
        <time>2018-12-23T09:32:47Z</time>
      </trkpt>
      <trkpt lat="45.94695" lon="3.62281">
        <ele>782.3</ele>
        <time>2018-12-23T09:32:49Z</time>
      </trkpt>
      <trkpt lat="45.94695" lon="3.62276">
        <ele>782.2</ele>
        <time>2018-12-23T09:32:52Z</time>
      </trkpt>
      <trkpt lat="45.94694" lon="3.62272">
        <ele>782</ele>
        <time>2018-12-23T09:32:54Z</time>
      </trkpt>
      <trkpt lat="45.94693" lon="3.62267">
        <ele>781.8</ele>
        <time>2018-12-23T09:32:56Z</time>
      </trkpt>
      <trkpt lat="45.94692" lon="3.62261">
        <ele>781.8</ele>
        <time>2018-12-23T09:32:59Z</time>
      </trkpt>
      <trkpt lat="45.94691" lon="3.62257">
        <ele>781.8</ele>
        <time>2018-12-23T09:33:01Z</time>
      </trkpt>
      <trkpt lat="45.9469" lon="3.62253">
        <ele>781.8</ele>
        <time>2018-12-23T09:33:03Z</time>
      </trkpt>
      <trkpt lat="45.9469" lon="3.62249">
        <ele>781.8</ele>
        <time>2018-12-23T09:33:05Z</time>
      </trkpt>
      <trkpt lat="45.9469" lon="3.62245">
        <ele>781.8</ele>
        <time>2018-12-23T09:33:08Z</time>
      </trkpt>
      <trkpt lat="45.94689" lon="3.62238">
        <ele>781.8</ele>
        <time>2018-12-23T09:33:11Z</time>
      </trkpt>
      <trkpt lat="45.94689" lon="3.62234">
        <ele>781.8</ele>
        <time>2018-12-23T09:33:14Z</time>
      </trkpt>
      <trkpt lat="45.94689" lon="3.62229">
        <ele>781.8</ele>
        <time>2018-12-23T09:33:17Z</time>
      </trkpt>
      <trkpt lat="45.94689" lon="3.62224">
        <ele>781.9</ele>
        <time>2018-12-23T09:33:20Z</time>
      </trkpt>
      <trkpt lat="45.94689" lon="3.62219">
        <ele>782</ele>
        <time>2018-12-23T09:33:24Z</time>
      </trkpt>
      <trkpt lat="45.94689" lon="3.62214">
        <ele>782.1</ele>
        <time>2018-12-23T09:33:27Z</time>
      </trkpt>
      <trkpt lat="45.94688" lon="3.6221">
        <ele>782.1</ele>
        <time>2018-12-23T09:33:30Z</time>
      </trkpt>
      <trkpt lat="45.94688" lon="3.62205">
        <ele>782.2</ele>
        <time>2018-12-23T09:33:33Z</time>
      </trkpt>
      <trkpt lat="45.94687" lon="3.622">
        <ele>782.4</ele>
        <time>2018-12-23T09:33:37Z</time>
      </trkpt>
      <trkpt lat="45.94687" lon="3.62195">
        <ele>782.7</ele>
        <time>2018-12-23T09:33:40Z</time>
      </trkpt>
      <trkpt lat="45.94686" lon="3.6219">
        <ele>782.9</ele>
        <time>2018-12-23T09:33:42Z</time>
      </trkpt>
      <trkpt lat="45.94685" lon="3.62186">
        <ele>783</ele>
        <time>2018-12-23T09:33:45Z</time>
      </trkpt>
      <trkpt lat="45.94685" lon="3.62182">
        <ele>783.2</ele>
        <time>2018-12-23T09:33:51Z</time>
      </trkpt>
      <trkpt lat="45.94688" lon="3.6218">
        <ele>783.2</ele>
        <time>2018-12-23T09:34:09Z</time>
      </trkpt>
      <trkpt lat="45.94689" lon="3.62176">
        <ele>783.2</ele>
        <time>2018-12-23T09:34:14Z</time>
      </trkpt>
      <trkpt lat="45.94692" lon="3.62175">
        <ele>783.2</ele>
        <time>2018-12-23T09:34:17Z</time>
      </trkpt>
      <trkpt lat="45.94688" lon="3.62173">
        <ele>783.2</ele>
        <time>2018-12-23T09:35:36Z</time>
      </trkpt>
      <trkpt lat="45.94685" lon="3.62169">
        <ele>783.2</ele>
        <time>2018-12-23T09:35:42Z</time>
      </trkpt>
      <trkpt lat="45.94681" lon="3.62162">
        <ele>783.2</ele>
        <time>2018-12-23T09:35:51Z</time>
      </trkpt>
      <trkpt lat="45.94684" lon="3.62158">
        <ele>783.2</ele>
        <time>2018-12-23T09:35:53Z</time>
      </trkpt>
      <trkpt lat="45.94686" lon="3.6216">
        <ele>783.2</ele>
        <time>2018-12-23T09:35:55Z</time>
      </trkpt>
      <trkpt lat="45.94694" lon="3.62163">
        <ele>783.2</ele>
        <time>2018-12-23T09:36:03Z</time>
      </trkpt>
      <trkpt lat="45.94691" lon="3.62163">
        <ele>783.2</ele>
        <time>2018-12-23T09:36:14Z</time>
      </trkpt>
      <trkpt lat="45.94687" lon="3.62162">
        <ele>783.2</ele>
        <time>2018-12-23T09:36:23Z</time>
      </trkpt>
      <trkpt lat="45.94685" lon="3.62166">
        <ele>783.2</ele>
        <time>2018-12-23T09:36:56Z</time>
      </trkpt>
      <trkpt lat="45.94681" lon="3.62165">
        <ele>783.1</ele>
        <time>2018-12-23T09:36:58Z</time>
      </trkpt>
      <trkpt lat="45.9468" lon="3.6216">
        <ele>783.1</ele>
        <time>2018-12-23T09:37:00Z</time>
      </trkpt>
      <trkpt lat="45.9468" lon="3.62155">
        <ele>783.1</ele>
        <time>2018-12-23T09:37:02Z</time>
      </trkpt>
      <trkpt lat="45.94679" lon="3.6215">
        <ele>783.1</ele>
        <time>2018-12-23T09:37:04Z</time>
      </trkpt>
      <trkpt lat="45.94678" lon="3.62147">
        <ele>783.1</ele>
        <time>2018-12-23T09:37:06Z</time>
      </trkpt>
      <trkpt lat="45.94677" lon="3.62142">
        <ele>783</ele>
        <time>2018-12-23T09:37:09Z</time>
      </trkpt>
      <trkpt lat="45.94675" lon="3.62138">
        <ele>782.9</ele>
        <time>2018-12-23T09:37:12Z</time>
      </trkpt>
      <trkpt lat="45.94673" lon="3.62132">
        <ele>782.8</ele>
        <time>2018-12-23T09:37:15Z</time>
      </trkpt>
      <trkpt lat="45.94673" lon="3.62129">
        <ele>782.7</ele>
        <time>2018-12-23T09:37:17Z</time>
      </trkpt>
      <trkpt lat="45.94672" lon="3.62125">
        <ele>782.7</ele>
        <time>2018-12-23T09:37:19Z</time>
      </trkpt>
      <trkpt lat="45.94671" lon="3.62121">
        <ele>782.7</ele>
        <time>2018-12-23T09:37:22Z</time>
      </trkpt>
      <trkpt lat="45.9467" lon="3.62117">
        <ele>782.6</ele>
        <time>2018-12-23T09:37:24Z</time>
      </trkpt>
      <trkpt lat="45.94669" lon="3.62112">
        <ele>782.6</ele>
        <time>2018-12-23T09:37:27Z</time>
      </trkpt>
      <trkpt lat="45.94668" lon="3.62108">
        <ele>782.6</ele>
        <time>2018-12-23T09:37:29Z</time>
      </trkpt>
      <trkpt lat="45.94667" lon="3.62103">
        <ele>782.5</ele>
        <time>2018-12-23T09:37:32Z</time>
      </trkpt>
      <trkpt lat="45.94666" lon="3.62099">
        <ele>782.4</ele>
        <time>2018-12-23T09:37:35Z</time>
      </trkpt>
      <trkpt lat="45.94666" lon="3.62093">
        <ele>782.3</ele>
        <time>2018-12-23T09:37:38Z</time>
      </trkpt>
      <trkpt lat="45.94666" lon="3.62089">
        <ele>782.3</ele>
        <time>2018-12-23T09:37:41Z</time>
      </trkpt>
      <trkpt lat="45.94666" lon="3.62084">
        <ele>782.3</ele>
        <time>2018-12-23T09:37:44Z</time>
      </trkpt>
      <trkpt lat="45.94667" lon="3.6208">
        <ele>782.2</ele>
        <time>2018-12-23T09:38:04Z</time>
      </trkpt>
      <trkpt lat="45.9467" lon="3.62076">
        <ele>782.2</ele>
        <time>2018-12-23T09:38:07Z</time>
      </trkpt>
      <trkpt lat="45.94672" lon="3.62073">
        <ele>782.1</ele>
        <time>2018-12-23T09:38:10Z</time>
      </trkpt>
      <trkpt lat="45.94675" lon="3.62071">
        <ele>781.9</ele>
        <time>2018-12-23T09:38:26Z</time>
      </trkpt>
      <trkpt lat="45.94677" lon="3.62067">
        <ele>781.8</ele>
        <time>2018-12-23T09:38:29Z</time>
      </trkpt>
      <trkpt lat="45.9468" lon="3.62067">
        <ele>781.6</ele>
        <time>2018-12-23T09:39:24Z</time>
      </trkpt>
      <trkpt lat="45.94683" lon="3.62065">
        <ele>781.5</ele>
        <time>2018-12-23T09:39:28Z</time>
      </trkpt>
      <trkpt lat="45.94682" lon="3.62069">
        <ele>781.3</ele>
        <time>2018-12-23T09:39:55Z</time>
      </trkpt>
      <trkpt lat="45.9468" lon="3.62065">
        <ele>781.2</ele>
        <time>2018-12-23T09:40:06Z</time>
      </trkpt>
      <trkpt lat="45.94677" lon="3.62061">
        <ele>780.8</ele>
        <time>2018-12-23T09:40:11Z</time>
      </trkpt>
      <trkpt lat="45.94675" lon="3.62056">
        <ele>780.4</ele>
        <time>2018-12-23T09:40:14Z</time>
      </trkpt>
      <trkpt lat="45.94675" lon="3.62051">
        <ele>780</ele>
        <time>2018-12-23T09:40:16Z</time>
      </trkpt>
      <trkpt lat="45.94675" lon="3.62047">
        <ele>779.7</ele>
        <time>2018-12-23T09:40:18Z</time>
      </trkpt>
      <trkpt lat="45.94674" lon="3.62043">
        <ele>776.4</ele>
        <time>2018-12-23T09:40:21Z</time>
      </trkpt>
      <trkpt lat="45.94673" lon="3.62038">
        <ele>776.6</ele>
        <time>2018-12-23T09:40:24Z</time>
      </trkpt>
      <trkpt lat="45.94672" lon="3.62034">
        <ele>776.8</ele>
        <time>2018-12-23T09:40:27Z</time>
      </trkpt>
      <trkpt lat="45.94671" lon="3.62038">
        <ele>777.1</ele>
        <time>2018-12-23T09:41:09Z</time>
      </trkpt>
      <trkpt lat="45.94669" lon="3.62041">
        <ele>777.4</ele>
        <time>2018-12-23T09:41:20Z</time>
      </trkpt>
      <trkpt lat="45.94667" lon="3.62043">
        <ele>777.8</ele>
        <time>2018-12-23T09:41:24Z</time>
      </trkpt>
      <trkpt lat="45.94664" lon="3.62044">
        <ele>777.8</ele>
        <time>2018-12-23T09:41:26Z</time>
      </trkpt>
      <trkpt lat="45.94661" lon="3.62043">
        <ele>777.9</ele>
        <time>2018-12-23T09:41:28Z</time>
      </trkpt>
      <trkpt lat="45.94658" lon="3.62043">
        <ele>777.9</ele>
        <time>2018-12-23T09:41:30Z</time>
      </trkpt>
      <trkpt lat="45.94655" lon="3.62041">
        <ele>777.9</ele>
        <time>2018-12-23T09:41:34Z</time>
      </trkpt>
      <trkpt lat="45.94658" lon="3.62045">
        <ele>777.9</ele>
        <time>2018-12-23T09:42:11Z</time>
      </trkpt>
      <trkpt lat="45.94661" lon="3.62047">
        <ele>777.9</ele>
        <time>2018-12-23T09:42:14Z</time>
      </trkpt>
      <trkpt lat="45.94664" lon="3.62048">
        <ele>777.9</ele>
        <time>2018-12-23T09:42:17Z</time>
      </trkpt>
      <trkpt lat="45.94667" lon="3.62046">
        <ele>777.8</ele>
        <time>2018-12-23T09:42:19Z</time>
      </trkpt>
      <trkpt lat="45.9467" lon="3.62042">
        <ele>777.7</ele>
        <time>2018-12-23T09:42:21Z</time>
      </trkpt>
      <trkpt lat="45.94671" lon="3.62038">
        <ele>777.6</ele>
        <time>2018-12-23T09:42:23Z</time>
      </trkpt>
      <trkpt lat="45.9467" lon="3.62033">
        <ele>777.4</ele>
        <time>2018-12-23T09:42:26Z</time>
      </trkpt>
      <trkpt lat="45.94673" lon="3.62037">
        <ele>777.1</ele>
        <time>2018-12-23T09:42:33Z</time>
      </trkpt>
      <trkpt lat="45.94675" lon="3.6204">
        <ele>776.8</ele>
        <time>2018-12-23T09:42:35Z</time>
      </trkpt>
      <trkpt lat="45.94677" lon="3.62044">
        <ele>776.5</ele>
        <time>2018-12-23T09:42:38Z</time>
      </trkpt>
      <trkpt lat="45.94675" lon="3.62041">
        <ele>776.5</ele>
        <time>2018-12-23T09:42:42Z</time>
      </trkpt>
      <trkpt lat="45.94673" lon="3.62038">
        <ele>776.4</ele>
        <time>2018-12-23T09:42:44Z</time>
      </trkpt>
      <trkpt lat="45.94671" lon="3.62035">
        <ele>776.4</ele>
        <time>2018-12-23T09:42:50Z</time>
      </trkpt>
      <trkpt lat="45.94669" lon="3.62032">
        <ele>776.2</ele>
        <time>2018-12-23T09:42:52Z</time>
      </trkpt>
      <trkpt lat="45.94666" lon="3.62028">
        <ele>775.9</ele>
        <time>2018-12-23T09:43:13Z</time>
      </trkpt>
      <trkpt lat="45.94664" lon="3.62025">
        <ele>775.6</ele>
        <time>2018-12-23T09:43:15Z</time>
      </trkpt>
      <trkpt lat="45.94662" lon="3.62022">
        <ele>775.3</ele>
        <time>2018-12-23T09:43:17Z</time>
      </trkpt>
      <trkpt lat="45.9466" lon="3.62019">
        <ele>774.9</ele>
        <time>2018-12-23T09:43:19Z</time>
      </trkpt>
      <trkpt lat="45.94657" lon="3.62016">
        <ele>774.5</ele>
        <time>2018-12-23T09:43:22Z</time>
      </trkpt>
      <trkpt lat="45.94655" lon="3.62013">
        <ele>774.1</ele>
        <time>2018-12-23T09:43:25Z</time>
      </trkpt>
      <trkpt lat="45.94652" lon="3.6201">
        <ele>773.8</ele>
        <time>2018-12-23T09:43:27Z</time>
      </trkpt>
      <trkpt lat="45.9465" lon="3.62006">
        <ele>773.4</ele>
        <time>2018-12-23T09:43:30Z</time>
      </trkpt>
      <trkpt lat="45.94648" lon="3.62003">
        <ele>773.1</ele>
        <time>2018-12-23T09:43:32Z</time>
      </trkpt>
      <trkpt lat="45.94646" lon="3.61998">
        <ele>772.7</ele>
        <time>2018-12-23T09:43:35Z</time>
      </trkpt>
      <trkpt lat="45.94644" lon="3.61994">
        <ele>772.1</ele>
        <time>2018-12-23T09:43:38Z</time>
      </trkpt>
      <trkpt lat="45.94642" lon="3.6199">
        <ele>771.4</ele>
        <time>2018-12-23T09:43:41Z</time>
      </trkpt>
      <trkpt lat="45.9464" lon="3.61985">
        <ele>770.9</ele>
        <time>2018-12-23T09:43:44Z</time>
      </trkpt>
      <trkpt lat="45.94638" lon="3.61981">
        <ele>770.5</ele>
        <time>2018-12-23T09:43:46Z</time>
      </trkpt>
      <trkpt lat="45.94637" lon="3.61978">
        <ele>770.1</ele>
        <time>2018-12-23T09:43:48Z</time>
      </trkpt>
      <trkpt lat="45.94635" lon="3.61974">
        <ele>769.6</ele>
        <time>2018-12-23T09:43:50Z</time>
      </trkpt>
      <trkpt lat="45.94634" lon="3.6197">
        <ele>769</ele>
        <time>2018-12-23T09:43:52Z</time>
      </trkpt>
      <trkpt lat="45.94632" lon="3.61967">
        <ele>768.5</ele>
        <time>2018-12-23T09:43:54Z</time>
      </trkpt>
      <trkpt lat="45.94631" lon="3.61964">
        <ele>768</ele>
        <time>2018-12-23T09:43:56Z</time>
      </trkpt>
      <trkpt lat="45.94629" lon="3.6196">
        <ele>767.5</ele>
        <time>2018-12-23T09:43:58Z</time>
      </trkpt>
      <trkpt lat="45.94628" lon="3.61956">
        <ele>767.1</ele>
        <time>2018-12-23T09:44:00Z</time>
      </trkpt>
      <trkpt lat="45.94626" lon="3.61951">
        <ele>766.5</ele>
        <time>2018-12-23T09:44:03Z</time>
      </trkpt>
      <trkpt lat="45.94625" lon="3.61946">
        <ele>766</ele>
        <time>2018-12-23T09:44:06Z</time>
      </trkpt>
      <trkpt lat="45.94624" lon="3.61942">
        <ele>765.5</ele>
        <time>2018-12-23T09:44:08Z</time>
      </trkpt>
      <trkpt lat="45.94622" lon="3.61938">
        <ele>765.1</ele>
        <time>2018-12-23T09:44:10Z</time>
      </trkpt>
      <trkpt lat="45.94621" lon="3.61935">
        <ele>764.6</ele>
        <time>2018-12-23T09:44:12Z</time>
      </trkpt>
      <trkpt lat="45.9462" lon="3.61931">
        <ele>764</ele>
        <time>2018-12-23T09:44:14Z</time>
      </trkpt>
      <trkpt lat="45.94618" lon="3.61926">
        <ele>763.1</ele>
        <time>2018-12-23T09:44:17Z</time>
      </trkpt>
      <trkpt lat="45.94616" lon="3.61921">
        <ele>762.5</ele>
        <time>2018-12-23T09:44:20Z</time>
      </trkpt>
      <trkpt lat="45.94615" lon="3.61918">
        <ele>762</ele>
        <time>2018-12-23T09:44:22Z</time>
      </trkpt>
      <trkpt lat="45.94613" lon="3.61913">
        <ele>761.5</ele>
        <time>2018-12-23T09:44:25Z</time>
      </trkpt>
      <trkpt lat="45.94612" lon="3.61909">
        <ele>761</ele>
        <time>2018-12-23T09:44:27Z</time>
      </trkpt>
      <trkpt lat="45.94611" lon="3.61905">
        <ele>760.6</ele>
        <time>2018-12-23T09:44:29Z</time>
      </trkpt>
      <trkpt lat="45.94609" lon="3.619">
        <ele>759.9</ele>
        <time>2018-12-23T09:44:32Z</time>
      </trkpt>
      <trkpt lat="45.94608" lon="3.61895">
        <ele>759.2</ele>
        <time>2018-12-23T09:44:35Z</time>
      </trkpt>
      <trkpt lat="45.94606" lon="3.6189">
        <ele>758.5</ele>
        <time>2018-12-23T09:44:38Z</time>
      </trkpt>
      <trkpt lat="45.94604" lon="3.61886">
        <ele>757.8</ele>
        <time>2018-12-23T09:44:41Z</time>
      </trkpt>
      <trkpt lat="45.94603" lon="3.61882">
        <ele>757.3</ele>
        <time>2018-12-23T09:44:43Z</time>
      </trkpt>
      <trkpt lat="45.94602" lon="3.61878">
        <ele>756.9</ele>
        <time>2018-12-23T09:44:45Z</time>
      </trkpt>
      <trkpt lat="45.946" lon="3.61874">
        <ele>756.4</ele>
        <time>2018-12-23T09:44:48Z</time>
      </trkpt>
      <trkpt lat="45.94598" lon="3.6187">
        <ele>755.9</ele>
        <time>2018-12-23T09:44:50Z</time>
      </trkpt>
      <trkpt lat="45.94597" lon="3.61866">
        <ele>755.5</ele>
        <time>2018-12-23T09:44:52Z</time>
      </trkpt>
      <trkpt lat="45.94595" lon="3.61863">
        <ele>755</ele>
        <time>2018-12-23T09:44:54Z</time>
      </trkpt>
      <trkpt lat="45.94594" lon="3.61858">
        <ele>754.6</ele>
        <time>2018-12-23T09:44:57Z</time>
      </trkpt>
      <trkpt lat="45.94592" lon="3.61853">
        <ele>754.4</ele>
        <time>2018-12-23T09:45:00Z</time>
      </trkpt>
      <trkpt lat="45.94591" lon="3.61847">
        <ele>754</ele>
        <time>2018-12-23T09:45:03Z</time>
      </trkpt>
      <trkpt lat="45.9459" lon="3.61843">
        <ele>753.6</ele>
        <time>2018-12-23T09:45:06Z</time>
      </trkpt>
      <trkpt lat="45.94589" lon="3.61839">
        <ele>753.3</ele>
        <time>2018-12-23T09:45:09Z</time>
      </trkpt>
      <trkpt lat="45.94587" lon="3.61834">
        <ele>753.1</ele>
        <time>2018-12-23T09:45:12Z</time>
      </trkpt>
      <trkpt lat="45.94585" lon="3.6183">
        <ele>752.9</ele>
        <time>2018-12-23T09:45:15Z</time>
      </trkpt>
      <trkpt lat="45.94583" lon="3.61827">
        <ele>752.8</ele>
        <time>2018-12-23T09:45:18Z</time>
      </trkpt>
      <trkpt lat="45.94581" lon="3.61823">
        <ele>752.6</ele>
        <time>2018-12-23T09:45:21Z</time>
      </trkpt>
      <trkpt lat="45.94578" lon="3.6182">
        <ele>752.4</ele>
        <time>2018-12-23T09:45:24Z</time>
      </trkpt>
      <trkpt lat="45.94576" lon="3.61817">
        <ele>752.1</ele>
        <time>2018-12-23T09:45:28Z</time>
      </trkpt>
      <trkpt lat="45.94572" lon="3.61815">
        <ele>751.6</ele>
        <time>2018-12-23T09:45:31Z</time>
      </trkpt>
      <trkpt lat="45.94569" lon="3.61812">
        <ele>751.2</ele>
        <time>2018-12-23T09:45:34Z</time>
      </trkpt>
      <trkpt lat="45.94566" lon="3.6181">
        <ele>751</ele>
        <time>2018-12-23T09:45:36Z</time>
      </trkpt>
      <trkpt lat="45.94564" lon="3.61808">
        <ele>750.8</ele>
        <time>2018-12-23T09:45:38Z</time>
      </trkpt>
      <trkpt lat="45.94561" lon="3.61806">
        <ele>750.7</ele>
        <time>2018-12-23T09:45:40Z</time>
      </trkpt>
      <trkpt lat="45.94558" lon="3.61804">
        <ele>750.6</ele>
        <time>2018-12-23T09:45:43Z</time>
      </trkpt>
      <trkpt lat="45.94555" lon="3.61802">
        <ele>750.6</ele>
        <time>2018-12-23T09:45:46Z</time>
      </trkpt>
      <trkpt lat="45.94552" lon="3.61801">
        <ele>750.5</ele>
        <time>2018-12-23T09:45:49Z</time>
      </trkpt>
      <trkpt lat="45.94549" lon="3.61799">
        <ele>750.4</ele>
        <time>2018-12-23T09:45:53Z</time>
      </trkpt>
      <trkpt lat="45.94545" lon="3.61796">
        <ele>750.2</ele>
        <time>2018-12-23T09:45:56Z</time>
      </trkpt>
      <trkpt lat="45.94543" lon="3.61794">
        <ele>750</ele>
        <time>2018-12-23T09:45:59Z</time>
      </trkpt>
      <trkpt lat="45.9454" lon="3.61791">
        <ele>749.8</ele>
        <time>2018-12-23T09:46:04Z</time>
      </trkpt>
      <trkpt lat="45.94537" lon="3.6179">
        <ele>749.6</ele>
        <time>2018-12-23T09:46:07Z</time>
      </trkpt>
      <trkpt lat="45.94534" lon="3.61788">
        <ele>749.5</ele>
        <time>2018-12-23T09:46:10Z</time>
      </trkpt>
      <trkpt lat="45.94531" lon="3.61786">
        <ele>749.3</ele>
        <time>2018-12-23T09:46:13Z</time>
      </trkpt>
      <trkpt lat="45.94528" lon="3.61785">
        <ele>749.1</ele>
        <time>2018-12-23T09:46:15Z</time>
      </trkpt>
      <trkpt lat="45.94525" lon="3.61784">
        <ele>748.9</ele>
        <time>2018-12-23T09:46:17Z</time>
      </trkpt>
      <trkpt lat="45.94522" lon="3.61782">
        <ele>748.7</ele>
        <time>2018-12-23T09:46:19Z</time>
      </trkpt>
      <trkpt lat="45.94518" lon="3.61781">
        <ele>748.7</ele>
        <time>2018-12-23T09:46:21Z</time>
      </trkpt>
      <trkpt lat="45.94515" lon="3.61779">
        <ele>748.8</ele>
        <time>2018-12-23T09:46:23Z</time>
      </trkpt>
      <trkpt lat="45.94513" lon="3.61778">
        <ele>748.8</ele>
        <time>2018-12-23T09:46:25Z</time>
      </trkpt>
      <trkpt lat="45.94509" lon="3.61775">
        <ele>748.7</ele>
        <time>2018-12-23T09:46:28Z</time>
      </trkpt>
      <trkpt lat="45.94506" lon="3.61775">
        <ele>748.5</ele>
        <time>2018-12-23T09:46:31Z</time>
      </trkpt>
      <trkpt lat="45.94503" lon="3.61775">
        <ele>748.4</ele>
        <time>2018-12-23T09:46:34Z</time>
      </trkpt>
      <trkpt lat="45.945" lon="3.61774">
        <ele>748.4</ele>
        <time>2018-12-23T09:46:38Z</time>
      </trkpt>
      <trkpt lat="45.94497" lon="3.61776">
        <ele>748.3</ele>
        <time>2018-12-23T09:46:42Z</time>
      </trkpt>
      <trkpt lat="45.94494" lon="3.61777">
        <ele>748.2</ele>
        <time>2018-12-23T09:46:46Z</time>
      </trkpt>
      <trkpt lat="45.94491" lon="3.61777">
        <ele>748.1</ele>
        <time>2018-12-23T09:46:50Z</time>
      </trkpt>
      <trkpt lat="45.94487" lon="3.61778">
        <ele>748.1</ele>
        <time>2018-12-23T09:46:53Z</time>
      </trkpt>
      <trkpt lat="45.94484" lon="3.61777">
        <ele>747.9</ele>
        <time>2018-12-23T09:46:55Z</time>
      </trkpt>
      <trkpt lat="45.94481" lon="3.61778">
        <ele>747.7</ele>
        <time>2018-12-23T09:46:58Z</time>
      </trkpt>
      <trkpt lat="45.94478" lon="3.61778">
        <ele>747.5</ele>
        <time>2018-12-23T09:47:01Z</time>
      </trkpt>
      <trkpt lat="45.94475" lon="3.61777">
        <ele>747.2</ele>
        <time>2018-12-23T09:47:04Z</time>
      </trkpt>
      <trkpt lat="45.94472" lon="3.61779">
        <ele>746.8</ele>
        <time>2018-12-23T09:47:09Z</time>
      </trkpt>
      <trkpt lat="45.94469" lon="3.6178">
        <ele>746.5</ele>
        <time>2018-12-23T09:47:12Z</time>
      </trkpt>
      <trkpt lat="45.94466" lon="3.61782">
        <ele>746.2</ele>
        <time>2018-12-23T09:47:15Z</time>
      </trkpt>
      <trkpt lat="45.94463" lon="3.61783">
        <ele>746</ele>
        <time>2018-12-23T09:47:18Z</time>
      </trkpt>
      <trkpt lat="45.94459" lon="3.61784">
        <ele>745.6</ele>
        <time>2018-12-23T09:47:22Z</time>
      </trkpt>
      <trkpt lat="45.94457" lon="3.61784">
        <ele>745</ele>
        <time>2018-12-23T09:47:25Z</time>
      </trkpt>
      <trkpt lat="45.94454" lon="3.61784">
        <ele>744.5</ele>
        <time>2018-12-23T09:47:28Z</time>
      </trkpt>
      <trkpt lat="45.9445" lon="3.61784">
        <ele>743.9</ele>
        <time>2018-12-23T09:47:33Z</time>
      </trkpt>
      <trkpt lat="45.94447" lon="3.61783">
        <ele>743.3</ele>
        <time>2018-12-23T09:47:36Z</time>
      </trkpt>
      <trkpt lat="45.94444" lon="3.61782">
        <ele>742.8</ele>
        <time>2018-12-23T09:47:39Z</time>
      </trkpt>
      <trkpt lat="45.9444" lon="3.61781">
        <ele>742.1</ele>
        <time>2018-12-23T09:47:43Z</time>
      </trkpt>
      <trkpt lat="45.94437" lon="3.6178">
        <ele>741.3</ele>
        <time>2018-12-23T09:47:46Z</time>
      </trkpt>
      <trkpt lat="45.94434" lon="3.6178">
        <ele>740.4</ele>
        <time>2018-12-23T09:47:50Z</time>
      </trkpt>
      <trkpt lat="45.94432" lon="3.61777">
        <ele>739.7</ele>
        <time>2018-12-23T09:48:00Z</time>
      </trkpt>
      <trkpt lat="45.94429" lon="3.61776">
        <ele>739</ele>
        <time>2018-12-23T09:48:03Z</time>
      </trkpt>
      <trkpt lat="45.94426" lon="3.61775">
        <ele>738.3</ele>
        <time>2018-12-23T09:48:06Z</time>
      </trkpt>
      <trkpt lat="45.94423" lon="3.61773">
        <ele>737.7</ele>
        <time>2018-12-23T09:48:15Z</time>
      </trkpt>
      <trkpt lat="45.9442" lon="3.61775">
        <ele>737</ele>
        <time>2018-12-23T09:48:33Z</time>
      </trkpt>
      <trkpt lat="45.94417" lon="3.61774">
        <ele>736.2</ele>
        <time>2018-12-23T09:48:36Z</time>
      </trkpt>
      <trkpt lat="45.94413" lon="3.61773">
        <ele>735.3</ele>
        <time>2018-12-23T09:48:38Z</time>
      </trkpt>
      <trkpt lat="45.9441" lon="3.61771">
        <ele>734.2</ele>
        <time>2018-12-23T09:48:41Z</time>
      </trkpt>
      <trkpt lat="45.94407" lon="3.6177">
        <ele>733.3</ele>
        <time>2018-12-23T09:48:43Z</time>
      </trkpt>
      <trkpt lat="45.94404" lon="3.61769">
        <ele>732.7</ele>
        <time>2018-12-23T09:48:46Z</time>
      </trkpt>
      <trkpt lat="45.94401" lon="3.61768">
        <ele>732</ele>
        <time>2018-12-23T09:48:50Z</time>
      </trkpt>
      <trkpt lat="45.94397" lon="3.61766">
        <ele>731.4</ele>
        <time>2018-12-23T09:48:53Z</time>
      </trkpt>
      <trkpt lat="45.94394" lon="3.61763">
        <ele>730.6</ele>
        <time>2018-12-23T09:48:56Z</time>
      </trkpt>
      <trkpt lat="45.94391" lon="3.61762">
        <ele>730</ele>
        <time>2018-12-23T09:48:59Z</time>
      </trkpt>
      <trkpt lat="45.94388" lon="3.61761">
        <ele>729.6</ele>
        <time>2018-12-23T09:49:01Z</time>
      </trkpt>
      <trkpt lat="45.94385" lon="3.6176">
        <ele>729.5</ele>
        <time>2018-12-23T09:49:04Z</time>
      </trkpt>
      <trkpt lat="45.94382" lon="3.6176">
        <ele>729.4</ele>
        <time>2018-12-23T09:49:07Z</time>
      </trkpt>
      <trkpt lat="45.94379" lon="3.6176">
        <ele>729.2</ele>
        <time>2018-12-23T09:49:09Z</time>
      </trkpt>
      <trkpt lat="45.94376" lon="3.6176">
        <ele>728.9</ele>
        <time>2018-12-23T09:49:11Z</time>
      </trkpt>
      <trkpt lat="45.94373" lon="3.61761">
        <ele>728.5</ele>
        <time>2018-12-23T09:49:13Z</time>
      </trkpt>
      <trkpt lat="45.9437" lon="3.61761">
        <ele>728.1</ele>
        <time>2018-12-23T09:49:15Z</time>
      </trkpt>
      <trkpt lat="45.94367" lon="3.61762">
        <ele>727.5</ele>
        <time>2018-12-23T09:49:18Z</time>
      </trkpt>
      <trkpt lat="45.94363" lon="3.61763">
        <ele>726.7</ele>
        <time>2018-12-23T09:49:21Z</time>
      </trkpt>
      <trkpt lat="45.94359" lon="3.61764">
        <ele>726.2</ele>
        <time>2018-12-23T09:49:24Z</time>
      </trkpt>
      <trkpt lat="45.94356" lon="3.61765">
        <ele>725.8</ele>
        <time>2018-12-23T09:49:27Z</time>
      </trkpt>
      <trkpt lat="45.94352" lon="3.61765">
        <ele>725.1</ele>
        <time>2018-12-23T09:49:30Z</time>
      </trkpt>
      <trkpt lat="45.94349" lon="3.61766">
        <ele>724.4</ele>
        <time>2018-12-23T09:49:32Z</time>
      </trkpt>
      <trkpt lat="45.94345" lon="3.61767">
        <ele>723.3</ele>
        <time>2018-12-23T09:49:35Z</time>
      </trkpt>
      <trkpt lat="45.94341" lon="3.61769">
        <ele>722.6</ele>
        <time>2018-12-23T09:49:38Z</time>
      </trkpt>
      <trkpt lat="45.94338" lon="3.6177">
        <ele>722.1</ele>
        <time>2018-12-23T09:49:40Z</time>
      </trkpt>
      <trkpt lat="45.94334" lon="3.6177">
        <ele>721.6</ele>
        <time>2018-12-23T09:49:43Z</time>
      </trkpt>
      <trkpt lat="45.9433" lon="3.6177">
        <ele>720.6</ele>
        <time>2018-12-23T09:49:46Z</time>
      </trkpt>
      <trkpt lat="45.94327" lon="3.61769">
        <ele>719.9</ele>
        <time>2018-12-23T09:49:49Z</time>
      </trkpt>
      <trkpt lat="45.94324" lon="3.61768">
        <ele>719.4</ele>
        <time>2018-12-23T09:49:51Z</time>
      </trkpt>
      <trkpt lat="45.94321" lon="3.61766">
        <ele>719.1</ele>
        <time>2018-12-23T09:49:53Z</time>
      </trkpt>
      <trkpt lat="45.94318" lon="3.61766">
        <ele>718.7</ele>
        <time>2018-12-23T09:49:56Z</time>
      </trkpt>
      <trkpt lat="45.94315" lon="3.61767">
        <ele>718.4</ele>
        <time>2018-12-23T09:49:59Z</time>
      </trkpt>
      <trkpt lat="45.94311" lon="3.61766">
        <ele>717.9</ele>
        <time>2018-12-23T09:50:02Z</time>
      </trkpt>
      <trkpt lat="45.94308" lon="3.61764">
        <ele>717.6</ele>
        <time>2018-12-23T09:50:04Z</time>
      </trkpt>
      <trkpt lat="45.94304" lon="3.61762">
        <ele>716.8</ele>
        <time>2018-12-23T09:50:07Z</time>
      </trkpt>
      <trkpt lat="45.94302" lon="3.6176">
        <ele>716.2</ele>
        <time>2018-12-23T09:50:09Z</time>
      </trkpt>
      <trkpt lat="45.94299" lon="3.61758">
        <ele>715.7</ele>
        <time>2018-12-23T09:50:11Z</time>
      </trkpt>
      <trkpt lat="45.94296" lon="3.61757">
        <ele>715.3</ele>
        <time>2018-12-23T09:50:13Z</time>
      </trkpt>
      <trkpt lat="45.94293" lon="3.61754">
        <ele>714.8</ele>
        <time>2018-12-23T09:50:15Z</time>
      </trkpt>
      <trkpt lat="45.9429" lon="3.61751">
        <ele>714.1</ele>
        <time>2018-12-23T09:50:18Z</time>
      </trkpt>
      <trkpt lat="45.94286" lon="3.6175">
        <ele>713.3</ele>
        <time>2018-12-23T09:50:21Z</time>
      </trkpt>
      <trkpt lat="45.94284" lon="3.61748">
        <ele>712.6</ele>
        <time>2018-12-23T09:50:24Z</time>
      </trkpt>
      <trkpt lat="45.9428" lon="3.61747">
        <ele>711.9</ele>
        <time>2018-12-23T09:50:27Z</time>
      </trkpt>
      <trkpt lat="45.94278" lon="3.61745">
        <ele>711.2</ele>
        <time>2018-12-23T09:50:30Z</time>
      </trkpt>
      <trkpt lat="45.94275" lon="3.61742">
        <ele>710.4</ele>
        <time>2018-12-23T09:50:33Z</time>
      </trkpt>
      <trkpt lat="45.94271" lon="3.61739">
        <ele>709.9</ele>
        <time>2018-12-23T09:50:36Z</time>
      </trkpt>
      <trkpt lat="45.94268" lon="3.61735">
        <ele>709.4</ele>
        <time>2018-12-23T09:50:39Z</time>
      </trkpt>
      <trkpt lat="45.94266" lon="3.61732">
        <ele>708.8</ele>
        <time>2018-12-23T09:50:41Z</time>
      </trkpt>
      <trkpt lat="45.94263" lon="3.61728">
        <ele>708.1</ele>
        <time>2018-12-23T09:50:44Z</time>
      </trkpt>
      <trkpt lat="45.94261" lon="3.61725">
        <ele>707.5</ele>
        <time>2018-12-23T09:50:46Z</time>
      </trkpt>
      <trkpt lat="45.94259" lon="3.61722">
        <ele>707.1</ele>
        <time>2018-12-23T09:50:48Z</time>
      </trkpt>
      <trkpt lat="45.94257" lon="3.61718">
        <ele>706.6</ele>
        <time>2018-12-23T09:50:52Z</time>
      </trkpt>
      <trkpt lat="45.94254" lon="3.61715">
        <ele>706.2</ele>
        <time>2018-12-23T09:50:55Z</time>
      </trkpt>
      <trkpt lat="45.94252" lon="3.61712">
        <ele>705.9</ele>
        <time>2018-12-23T09:50:58Z</time>
      </trkpt>
      <trkpt lat="45.94249" lon="3.61709">
        <ele>705.6</ele>
        <time>2018-12-23T09:51:01Z</time>
      </trkpt>
      <trkpt lat="45.94248" lon="3.61706">
        <ele>705.3</ele>
        <time>2018-12-23T09:51:04Z</time>
      </trkpt>
      <trkpt lat="45.94245" lon="3.61703">
        <ele>705.2</ele>
        <time>2018-12-23T09:51:07Z</time>
      </trkpt>
      <trkpt lat="45.94242" lon="3.61701">
        <ele>705.1</ele>
        <time>2018-12-23T09:51:11Z</time>
      </trkpt>
      <trkpt lat="45.9424" lon="3.61699">
        <ele>704.9</ele>
        <time>2018-12-23T09:51:16Z</time>
      </trkpt>
      <trkpt lat="45.94237" lon="3.61695">
        <ele>704.5</ele>
        <time>2018-12-23T09:51:21Z</time>
      </trkpt>
      <trkpt lat="45.94235" lon="3.61692">
        <ele>704.2</ele>
        <time>2018-12-23T09:51:25Z</time>
      </trkpt>
      <trkpt lat="45.94232" lon="3.6169">
        <ele>703.8</ele>
        <time>2018-12-23T09:51:28Z</time>
      </trkpt>
      <trkpt lat="45.9423" lon="3.61688">
        <ele>703.5</ele>
        <time>2018-12-23T09:51:31Z</time>
      </trkpt>
      <trkpt lat="45.94227" lon="3.61687">
        <ele>703.2</ele>
        <time>2018-12-23T09:51:34Z</time>
      </trkpt>
      <trkpt lat="45.94224" lon="3.61684">
        <ele>702.8</ele>
        <time>2018-12-23T09:51:37Z</time>
      </trkpt>
      <trkpt lat="45.94221" lon="3.61682">
        <ele>702.6</ele>
        <time>2018-12-23T09:51:40Z</time>
      </trkpt>
      <trkpt lat="45.94218" lon="3.61679">
        <ele>702.5</ele>
        <time>2018-12-23T09:51:43Z</time>
      </trkpt>
      <trkpt lat="45.94215" lon="3.61677">
        <ele>702.3</ele>
        <time>2018-12-23T09:51:46Z</time>
      </trkpt>
      <trkpt lat="45.94212" lon="3.61673">
        <ele>702</ele>
        <time>2018-12-23T09:51:49Z</time>
      </trkpt>
      <trkpt lat="45.9421" lon="3.6167">
        <ele>701.8</ele>
        <time>2018-12-23T09:51:52Z</time>
      </trkpt>
      <trkpt lat="45.94208" lon="3.61667">
        <ele>701.6</ele>
        <time>2018-12-23T09:51:54Z</time>
      </trkpt>
      <trkpt lat="45.94205" lon="3.61665">
        <ele>701.5</ele>
        <time>2018-12-23T09:51:57Z</time>
      </trkpt>
      <trkpt lat="45.94202" lon="3.61662">
        <ele>701.4</ele>
        <time>2018-12-23T09:52:00Z</time>
      </trkpt>
      <trkpt lat="45.942" lon="3.6166">
        <ele>701.3</ele>
        <time>2018-12-23T09:52:03Z</time>
      </trkpt>
      <trkpt lat="45.94197" lon="3.61658">
        <ele>701.2</ele>
        <time>2018-12-23T09:52:06Z</time>
      </trkpt>
      <trkpt lat="45.94193" lon="3.61656">
        <ele>701.1</ele>
        <time>2018-12-23T09:52:09Z</time>
      </trkpt>
      <trkpt lat="45.9419" lon="3.61655">
        <ele>701</ele>
        <time>2018-12-23T09:52:12Z</time>
      </trkpt>
      <trkpt lat="45.94187" lon="3.61654">
        <ele>700.9</ele>
        <time>2018-12-23T09:52:15Z</time>
      </trkpt>
      <trkpt lat="45.94183" lon="3.61653">
        <ele>700.8</ele>
        <time>2018-12-23T09:52:18Z</time>
      </trkpt>
      <trkpt lat="45.9418" lon="3.61652">
        <ele>700.8</ele>
        <time>2018-12-23T09:52:21Z</time>
      </trkpt>
      <trkpt lat="45.94177" lon="3.61651">
        <ele>700.7</ele>
        <time>2018-12-23T09:52:24Z</time>
      </trkpt>
      <trkpt lat="45.94174" lon="3.61648">
        <ele>700.5</ele>
        <time>2018-12-23T09:52:27Z</time>
      </trkpt>
      <trkpt lat="45.9417" lon="3.61646">
        <ele>700.3</ele>
        <time>2018-12-23T09:52:30Z</time>
      </trkpt>
      <trkpt lat="45.94168" lon="3.61644">
        <ele>700.1</ele>
        <time>2018-12-23T09:52:32Z</time>
      </trkpt>
      <trkpt lat="45.94165" lon="3.61642">
        <ele>700</ele>
        <time>2018-12-23T09:52:35Z</time>
      </trkpt>
      <trkpt lat="45.94162" lon="3.61638">
        <ele>699.9</ele>
        <time>2018-12-23T09:52:38Z</time>
      </trkpt>
      <trkpt lat="45.9416" lon="3.61634">
        <ele>699.7</ele>
        <time>2018-12-23T09:52:40Z</time>
      </trkpt>
      <trkpt lat="45.94157" lon="3.6163">
        <ele>699.5</ele>
        <time>2018-12-23T09:52:43Z</time>
      </trkpt>
      <trkpt lat="45.94154" lon="3.61627">
        <ele>699.3</ele>
        <time>2018-12-23T09:52:46Z</time>
      </trkpt>
      <trkpt lat="45.94152" lon="3.61623">
        <ele>699</ele>
        <time>2018-12-23T09:52:48Z</time>
      </trkpt>
      <trkpt lat="45.94149" lon="3.61621">
        <ele>698.8</ele>
        <time>2018-12-23T09:52:50Z</time>
      </trkpt>
      <trkpt lat="45.94147" lon="3.61618">
        <ele>698.6</ele>
        <time>2018-12-23T09:52:52Z</time>
      </trkpt>
      <trkpt lat="45.94144" lon="3.61616">
        <ele>698.4</ele>
        <time>2018-12-23T09:52:54Z</time>
      </trkpt>
      <trkpt lat="45.94141" lon="3.61613">
        <ele>698.1</ele>
        <time>2018-12-23T09:52:56Z</time>
      </trkpt>
      <trkpt lat="45.94139" lon="3.61611">
        <ele>697.8</ele>
        <time>2018-12-23T09:52:58Z</time>
      </trkpt>
      <trkpt lat="45.94136" lon="3.61608">
        <ele>697.6</ele>
        <time>2018-12-23T09:53:01Z</time>
      </trkpt>
      <trkpt lat="45.94134" lon="3.61606">
        <ele>697.5</ele>
        <time>2018-12-23T09:53:06Z</time>
      </trkpt>
      <trkpt lat="45.94131" lon="3.61605">
        <ele>697.3</ele>
        <time>2018-12-23T09:53:10Z</time>
      </trkpt>
      <trkpt lat="45.94129" lon="3.61601">
        <ele>697.1</ele>
        <time>2018-12-23T09:53:19Z</time>
      </trkpt>
      <trkpt lat="45.94126" lon="3.61598">
        <ele>696.8</ele>
        <time>2018-12-23T09:53:23Z</time>
      </trkpt>
      <trkpt lat="45.94124" lon="3.61594">
        <ele>696.5</ele>
        <time>2018-12-23T09:53:27Z</time>
      </trkpt>
      <trkpt lat="45.94121" lon="3.61592">
        <ele>696.3</ele>
        <time>2018-12-23T09:53:30Z</time>
      </trkpt>
      <trkpt lat="45.94118" lon="3.6159">
        <ele>695.9</ele>
        <time>2018-12-23T09:53:33Z</time>
      </trkpt>
      <trkpt lat="45.94115" lon="3.61587">
        <ele>695.6</ele>
        <time>2018-12-23T09:53:36Z</time>
      </trkpt>
      <trkpt lat="45.94113" lon="3.61584">
        <ele>695.3</ele>
        <time>2018-12-23T09:53:38Z</time>
      </trkpt>
      <trkpt lat="45.94111" lon="3.61581">
        <ele>695.1</ele>
        <time>2018-12-23T09:53:40Z</time>
      </trkpt>
      <trkpt lat="45.94109" lon="3.61578">
        <ele>694.8</ele>
        <time>2018-12-23T09:53:42Z</time>
      </trkpt>
      <trkpt lat="45.94108" lon="3.61575">
        <ele>694.6</ele>
        <time>2018-12-23T09:53:44Z</time>
      </trkpt>
      <trkpt lat="45.94106" lon="3.61571">
        <ele>694.3</ele>
        <time>2018-12-23T09:53:47Z</time>
      </trkpt>
      <trkpt lat="45.94103" lon="3.61568">
        <ele>694</ele>
        <time>2018-12-23T09:53:50Z</time>
      </trkpt>
      <trkpt lat="45.94099" lon="3.61565">
        <ele>693.6</ele>
        <time>2018-12-23T09:53:53Z</time>
      </trkpt>
      <trkpt lat="45.94097" lon="3.61561">
        <ele>693.3</ele>
        <time>2018-12-23T09:53:56Z</time>
      </trkpt>
      <trkpt lat="45.94095" lon="3.61558">
        <ele>693.1</ele>
        <time>2018-12-23T09:53:58Z</time>
      </trkpt>
      <trkpt lat="45.94094" lon="3.61554">
        <ele>693</ele>
        <time>2018-12-23T09:54:02Z</time>
      </trkpt>
      <trkpt lat="45.94092" lon="3.61551">
        <ele>692.8</ele>
        <time>2018-12-23T09:54:05Z</time>
      </trkpt>
      <trkpt lat="45.94089" lon="3.61549">
        <ele>692.6</ele>
        <time>2018-12-23T09:54:07Z</time>
      </trkpt>
      <trkpt lat="45.94086" lon="3.61546">
        <ele>692.2</ele>
        <time>2018-12-23T09:54:09Z</time>
      </trkpt>
      <trkpt lat="45.94083" lon="3.61545">
        <ele>691.9</ele>
        <time>2018-12-23T09:54:11Z</time>
      </trkpt>
      <trkpt lat="45.9408" lon="3.61543">
        <ele>691.7</ele>
        <time>2018-12-23T09:54:13Z</time>
      </trkpt>
      <trkpt lat="45.94077" lon="3.61541">
        <ele>691.6</ele>
        <time>2018-12-23T09:54:15Z</time>
      </trkpt>
      <trkpt lat="45.94074" lon="3.61538">
        <ele>691.4</ele>
        <time>2018-12-23T09:54:18Z</time>
      </trkpt>
      <trkpt lat="45.94071" lon="3.61535">
        <ele>691.4</ele>
        <time>2018-12-23T09:54:35Z</time>
      </trkpt>
      <trkpt lat="45.94073" lon="3.61531">
        <ele>691.1</ele>
        <time>2018-12-23T09:56:09Z</time>
      </trkpt>
      <trkpt lat="45.94074" lon="3.61527">
        <ele>690.6</ele>
        <time>2018-12-23T09:56:12Z</time>
      </trkpt>
      <trkpt lat="45.94074" lon="3.61522">
        <ele>690.1</ele>
        <time>2018-12-23T09:56:15Z</time>
      </trkpt>
      <trkpt lat="45.94074" lon="3.61517">
        <ele>689.7</ele>
        <time>2018-12-23T09:56:18Z</time>
      </trkpt>
      <trkpt lat="45.94075" lon="3.61513">
        <ele>689.3</ele>
        <time>2018-12-23T09:56:22Z</time>
      </trkpt>
      <trkpt lat="45.94077" lon="3.6151">
        <ele>688.7</ele>
        <time>2018-12-23T09:56:29Z</time>
      </trkpt>
      <trkpt lat="45.94079" lon="3.61507">
        <ele>688</ele>
        <time>2018-12-23T09:56:32Z</time>
      </trkpt>
      <trkpt lat="45.94082" lon="3.61504">
        <ele>687.5</ele>
        <time>2018-12-23T09:56:35Z</time>
      </trkpt>
      <trkpt lat="45.94085" lon="3.61501">
        <ele>686.8</ele>
        <time>2018-12-23T09:56:38Z</time>
      </trkpt>
      <trkpt lat="45.94088" lon="3.61498">
        <ele>686.2</ele>
        <time>2018-12-23T09:56:41Z</time>
      </trkpt>
      <trkpt lat="45.94091" lon="3.61496">
        <ele>685.6</ele>
        <time>2018-12-23T09:56:44Z</time>
      </trkpt>
      <trkpt lat="45.94095" lon="3.61496">
        <ele>685</ele>
        <time>2018-12-23T09:56:47Z</time>
      </trkpt>
      <trkpt lat="45.94098" lon="3.61496">
        <ele>684.8</ele>
        <time>2018-12-23T09:56:49Z</time>
      </trkpt>
      <trkpt lat="45.94101" lon="3.61496">
        <ele>684.5</ele>
        <time>2018-12-23T09:56:52Z</time>
      </trkpt>
      <trkpt lat="45.94104" lon="3.61494">
        <ele>684.3</ele>
        <time>2018-12-23T09:56:55Z</time>
      </trkpt>
      <trkpt lat="45.94108" lon="3.61494">
        <ele>684.1</ele>
        <time>2018-12-23T09:56:58Z</time>
      </trkpt>
      <trkpt lat="45.94111" lon="3.61493">
        <ele>684</ele>
        <time>2018-12-23T09:57:01Z</time>
      </trkpt>
      <trkpt lat="45.94114" lon="3.61493">
        <ele>683.8</ele>
        <time>2018-12-23T09:57:04Z</time>
      </trkpt>
      <trkpt lat="45.94118" lon="3.61493">
        <ele>683.6</ele>
        <time>2018-12-23T09:57:08Z</time>
      </trkpt>
      <trkpt lat="45.94121" lon="3.61493">
        <ele>683.4</ele>
        <time>2018-12-23T09:57:10Z</time>
      </trkpt>
      <trkpt lat="45.94124" lon="3.61494">
        <ele>683.2</ele>
        <time>2018-12-23T09:57:12Z</time>
      </trkpt>
      <trkpt lat="45.94127" lon="3.61495">
        <ele>683.2</ele>
        <time>2018-12-23T09:57:15Z</time>
      </trkpt>
      <trkpt lat="45.9413" lon="3.61495">
        <ele>683.2</ele>
        <time>2018-12-23T09:57:19Z</time>
      </trkpt>
      <trkpt lat="45.94133" lon="3.61495">
        <ele>683.3</ele>
        <time>2018-12-23T09:57:22Z</time>
      </trkpt>
      <trkpt lat="45.94137" lon="3.61495">
        <ele>683</ele>
        <time>2018-12-23T09:57:25Z</time>
      </trkpt>
      <trkpt lat="45.9414" lon="3.61498">
        <ele>682.5</ele>
        <time>2018-12-23T09:57:28Z</time>
      </trkpt>
      <trkpt lat="45.94144" lon="3.615">
        <ele>682.2</ele>
        <time>2018-12-23T09:57:30Z</time>
      </trkpt>
      <trkpt lat="45.94147" lon="3.61502">
        <ele>681.8</ele>
        <time>2018-12-23T09:57:32Z</time>
      </trkpt>
      <trkpt lat="45.9415" lon="3.61503">
        <ele>681.5</ele>
        <time>2018-12-23T09:57:34Z</time>
      </trkpt>
      <trkpt lat="45.94153" lon="3.61503">
        <ele>681.4</ele>
        <time>2018-12-23T09:57:36Z</time>
      </trkpt>
      <trkpt lat="45.94156" lon="3.61504">
        <ele>681.5</ele>
        <time>2018-12-23T09:57:39Z</time>
      </trkpt>
      <trkpt lat="45.94159" lon="3.61505">
        <ele>681.5</ele>
        <time>2018-12-23T09:57:41Z</time>
      </trkpt>
      <trkpt lat="45.94162" lon="3.61506">
        <ele>681.4</ele>
        <time>2018-12-23T09:57:43Z</time>
      </trkpt>
      <trkpt lat="45.94165" lon="3.61507">
        <ele>681.2</ele>
        <time>2018-12-23T09:57:45Z</time>
      </trkpt>
      <trkpt lat="45.94168" lon="3.61508">
        <ele>681</ele>
        <time>2018-12-23T09:57:47Z</time>
      </trkpt>
      <trkpt lat="45.94171" lon="3.61509">
        <ele>680.8</ele>
        <time>2018-12-23T09:57:49Z</time>
      </trkpt>
      <trkpt lat="45.94174" lon="3.6151">
        <ele>680.6</ele>
        <time>2018-12-23T09:57:51Z</time>
      </trkpt>
      <trkpt lat="45.94178" lon="3.6151">
        <ele>680.4</ele>
        <time>2018-12-23T09:57:54Z</time>
      </trkpt>
      <trkpt lat="45.94181" lon="3.61511">
        <ele>680.5</ele>
        <time>2018-12-23T09:57:56Z</time>
      </trkpt>
      <trkpt lat="45.94184" lon="3.61511">
        <ele>680.5</ele>
        <time>2018-12-23T09:57:58Z</time>
      </trkpt>
      <trkpt lat="45.94187" lon="3.61511">
        <ele>680.5</ele>
        <time>2018-12-23T09:58:01Z</time>
      </trkpt>
      <trkpt lat="45.9419" lon="3.61511">
        <ele>680.3</ele>
        <time>2018-12-23T09:58:04Z</time>
      </trkpt>
      <trkpt lat="45.94193" lon="3.6151">
        <ele>680.1</ele>
        <time>2018-12-23T09:58:07Z</time>
      </trkpt>
      <trkpt lat="45.94196" lon="3.61511">
        <ele>679.8</ele>
        <time>2018-12-23T09:58:09Z</time>
      </trkpt>
      <trkpt lat="45.94199" lon="3.61511">
        <ele>679.5</ele>
        <time>2018-12-23T09:58:11Z</time>
      </trkpt>
      <trkpt lat="45.94202" lon="3.6151">
        <ele>679.3</ele>
        <time>2018-12-23T09:58:13Z</time>
      </trkpt>
      <trkpt lat="45.94205" lon="3.61511">
        <ele>679</ele>
        <time>2018-12-23T09:58:15Z</time>
      </trkpt>
      <trkpt lat="45.94209" lon="3.61511">
        <ele>678.6</ele>
        <time>2018-12-23T09:58:18Z</time>
      </trkpt>
      <trkpt lat="45.94211" lon="3.61511">
        <ele>678.3</ele>
        <time>2018-12-23T09:58:20Z</time>
      </trkpt>
      <trkpt lat="45.94215" lon="3.61511">
        <ele>678</ele>
        <time>2018-12-23T09:58:23Z</time>
      </trkpt>
      <trkpt lat="45.94219" lon="3.61511">
        <ele>677.8</ele>
        <time>2018-12-23T09:58:26Z</time>
      </trkpt>
      <trkpt lat="45.94222" lon="3.61511">
        <ele>677.5</ele>
        <time>2018-12-23T09:58:29Z</time>
      </trkpt>
      <trkpt lat="45.94224" lon="3.61509">
        <ele>677.1</ele>
        <time>2018-12-23T09:58:32Z</time>
      </trkpt>
      <trkpt lat="45.94225" lon="3.61505">
        <ele>676.7</ele>
        <time>2018-12-23T09:58:40Z</time>
      </trkpt>
      <trkpt lat="45.94228" lon="3.61504">
        <ele>676.3</ele>
        <time>2018-12-23T09:59:16Z</time>
      </trkpt>
      <trkpt lat="45.94232" lon="3.61506">
        <ele>675.6</ele>
        <time>2018-12-23T09:59:20Z</time>
      </trkpt>
      <trkpt lat="45.94234" lon="3.61506">
        <ele>675.1</ele>
        <time>2018-12-23T09:59:22Z</time>
      </trkpt>
      <trkpt lat="45.94238" lon="3.61504">
        <ele>674.6</ele>
        <time>2018-12-23T09:59:24Z</time>
      </trkpt>
      <trkpt lat="45.9424" lon="3.61502">
        <ele>674.2</ele>
        <time>2018-12-23T09:59:26Z</time>
      </trkpt>
      <trkpt lat="45.94244" lon="3.615">
        <ele>673.7</ele>
        <time>2018-12-23T09:59:29Z</time>
      </trkpt>
      <trkpt lat="45.94247" lon="3.61498">
        <ele>673.3</ele>
        <time>2018-12-23T09:59:31Z</time>
      </trkpt>
      <trkpt lat="45.9425" lon="3.61497">
        <ele>672.9</ele>
        <time>2018-12-23T09:59:33Z</time>
      </trkpt>
      <trkpt lat="45.94253" lon="3.61494">
        <ele>672.5</ele>
        <time>2018-12-23T09:59:35Z</time>
      </trkpt>
      <trkpt lat="45.94256" lon="3.61491">
        <ele>672.1</ele>
        <time>2018-12-23T09:59:37Z</time>
      </trkpt>
      <trkpt lat="45.9426" lon="3.61491">
        <ele>671.6</ele>
        <time>2018-12-23T09:59:40Z</time>
      </trkpt>
      <trkpt lat="45.94263" lon="3.61493">
        <ele>671.3</ele>
        <time>2018-12-23T09:59:42Z</time>
      </trkpt>
      <trkpt lat="45.94267" lon="3.61493">
        <ele>671.1</ele>
        <time>2018-12-23T09:59:44Z</time>
      </trkpt>
      <trkpt lat="45.94269" lon="3.61493">
        <ele>670.9</ele>
        <time>2018-12-23T09:59:46Z</time>
      </trkpt>
      <trkpt lat="45.94272" lon="3.61492">
        <ele>670.7</ele>
        <time>2018-12-23T09:59:48Z</time>
      </trkpt>
      <trkpt lat="45.94275" lon="3.6149">
        <ele>670.4</ele>
        <time>2018-12-23T09:59:50Z</time>
      </trkpt>
      <trkpt lat="45.94278" lon="3.61488">
        <ele>670.1</ele>
        <time>2018-12-23T09:59:53Z</time>
      </trkpt>
      <trkpt lat="45.94281" lon="3.61487">
        <ele>669.8</ele>
        <time>2018-12-23T09:59:56Z</time>
      </trkpt>
      <trkpt lat="45.94283" lon="3.61486">
        <ele>669.6</ele>
        <time>2018-12-23T09:59:59Z</time>
      </trkpt>
      <trkpt lat="45.94287" lon="3.61486">
        <ele>669.4</ele>
        <time>2018-12-23T10:00:02Z</time>
      </trkpt>
      <trkpt lat="45.9429" lon="3.61486">
        <ele>669.3</ele>
        <time>2018-12-23T10:00:04Z</time>
      </trkpt>
      <trkpt lat="45.94293" lon="3.61487">
        <ele>669.2</ele>
        <time>2018-12-23T10:00:06Z</time>
      </trkpt>
      <trkpt lat="45.94297" lon="3.61485">
        <ele>669.1</ele>
        <time>2018-12-23T10:00:09Z</time>
      </trkpt>
      <trkpt lat="45.943" lon="3.61483">
        <ele>669</ele>
        <time>2018-12-23T10:00:11Z</time>
      </trkpt>
      <trkpt lat="45.94303" lon="3.61479">
        <ele>669</ele>
        <time>2018-12-23T10:00:13Z</time>
      </trkpt>
      <trkpt lat="45.94305" lon="3.61477">
        <ele>669.1</ele>
        <time>2018-12-23T10:00:15Z</time>
      </trkpt>
      <trkpt lat="45.94308" lon="3.61477">
        <ele>669.2</ele>
        <time>2018-12-23T10:00:17Z</time>
      </trkpt>
      <trkpt lat="45.94312" lon="3.61479">
        <ele>669.3</ele>
        <time>2018-12-23T10:00:19Z</time>
      </trkpt>
      <trkpt lat="45.94315" lon="3.61479">
        <ele>669.4</ele>
        <time>2018-12-23T10:00:21Z</time>
      </trkpt>
      <trkpt lat="45.94318" lon="3.61478">
        <ele>669.6</ele>
        <time>2018-12-23T10:00:23Z</time>
      </trkpt>
      <trkpt lat="45.94321" lon="3.61479">
        <ele>669.9</ele>
        <time>2018-12-23T10:00:25Z</time>
      </trkpt>
      <trkpt lat="45.94325" lon="3.61476">
        <ele>670.2</ele>
        <time>2018-12-23T10:00:27Z</time>
      </trkpt>
      <trkpt lat="45.94327" lon="3.61475">
        <ele>670.4</ele>
        <time>2018-12-23T10:00:29Z</time>
      </trkpt>
      <trkpt lat="45.94331" lon="3.61477">
        <ele>670.7</ele>
        <time>2018-12-23T10:00:31Z</time>
      </trkpt>
      <trkpt lat="45.94335" lon="3.61478">
        <ele>671.4</ele>
        <time>2018-12-23T10:00:34Z</time>
      </trkpt>
      <trkpt lat="45.94339" lon="3.61479">
        <ele>672.2</ele>
        <time>2018-12-23T10:00:37Z</time>
      </trkpt>
      <trkpt lat="45.94342" lon="3.61479">
        <ele>672.6</ele>
        <time>2018-12-23T10:00:40Z</time>
      </trkpt>
      <trkpt lat="45.94345" lon="3.61478">
        <ele>673.1</ele>
        <time>2018-12-23T10:00:44Z</time>
      </trkpt>
      <trkpt lat="45.94349" lon="3.61478">
        <ele>673.7</ele>
        <time>2018-12-23T10:00:49Z</time>
      </trkpt>
      <trkpt lat="45.94352" lon="3.6148">
        <ele>674.2</ele>
        <time>2018-12-23T10:00:51Z</time>
      </trkpt>
      <trkpt lat="45.94355" lon="3.61481">
        <ele>674.9</ele>
        <time>2018-12-23T10:00:54Z</time>
      </trkpt>
      <trkpt lat="45.94358" lon="3.61482">
        <ele>675.5</ele>
        <time>2018-12-23T10:00:56Z</time>
      </trkpt>
      <trkpt lat="45.94361" lon="3.61482">
        <ele>676.2</ele>
        <time>2018-12-23T10:00:59Z</time>
      </trkpt>
      <trkpt lat="45.94358" lon="3.61478">
        <ele>677.6</ele>
        <time>2018-12-23T10:01:05Z</time>
      </trkpt>
      <trkpt lat="45.94356" lon="3.61474">
        <ele>678.6</ele>
        <time>2018-12-23T10:01:16Z</time>
      </trkpt>
      <trkpt lat="45.94355" lon="3.6147">
        <ele>679.1</ele>
        <time>2018-12-23T10:01:21Z</time>
      </trkpt>
      <trkpt lat="45.94354" lon="3.61466">
        <ele>679.4</ele>
        <time>2018-12-23T10:01:28Z</time>
      </trkpt>
      <trkpt lat="45.94353" lon="3.61462">
        <ele>680</ele>
        <time>2018-12-23T10:01:32Z</time>
      </trkpt>
      <trkpt lat="45.94356" lon="3.61461">
        <ele>680</ele>
        <time>2018-12-23T10:01:35Z</time>
      </trkpt>
      <trkpt lat="45.94359" lon="3.61458">
        <ele>680</ele>
        <time>2018-12-23T10:01:41Z</time>
      </trkpt>
      <trkpt lat="45.94361" lon="3.61455">
        <ele>680</ele>
        <time>2018-12-23T10:01:46Z</time>
      </trkpt>
      <trkpt lat="45.9436" lon="3.61451">
        <ele>680.1</ele>
        <time>2018-12-23T10:01:52Z</time>
      </trkpt>
      <trkpt lat="45.94359" lon="3.61448">
        <ele>680.2</ele>
        <time>2018-12-23T10:01:55Z</time>
      </trkpt>
      <trkpt lat="45.94356" lon="3.61444">
        <ele>680.2</ele>
        <time>2018-12-23T10:01:58Z</time>
      </trkpt>
      <trkpt lat="45.94354" lon="3.6144">
        <ele>680.2</ele>
        <time>2018-12-23T10:02:02Z</time>
      </trkpt>
      <trkpt lat="45.94351" lon="3.61437">
        <ele>680.2</ele>
        <time>2018-12-23T10:02:05Z</time>
      </trkpt>
      <trkpt lat="45.94349" lon="3.61434">
        <ele>680.4</ele>
        <time>2018-12-23T10:02:10Z</time>
      </trkpt>
      <trkpt lat="45.94346" lon="3.61434">
        <ele>680.5</ele>
        <time>2018-12-23T10:02:13Z</time>
      </trkpt>
      <trkpt lat="45.94345" lon="3.61438">
        <ele>680.7</ele>
        <time>2018-12-23T10:02:20Z</time>
      </trkpt>
      <trkpt lat="45.94347" lon="3.61448">
        <ele>681</ele>
        <time>2018-12-23T10:02:30Z</time>
      </trkpt>
      <trkpt lat="45.94345" lon="3.61452">
        <ele>681.4</ele>
        <time>2018-12-23T10:02:51Z</time>
      </trkpt>
      <trkpt lat="45.94342" lon="3.61449">
        <ele>681.8</ele>
        <time>2018-12-23T10:02:55Z</time>
      </trkpt>
      <trkpt lat="45.9434" lon="3.61446">
        <ele>682.1</ele>
        <time>2018-12-23T10:02:57Z</time>
      </trkpt>
      <trkpt lat="45.94338" lon="3.61443">
        <ele>682.2</ele>
        <time>2018-12-23T10:03:00Z</time>
      </trkpt>
      <trkpt lat="45.94335" lon="3.61438">
        <ele>682.5</ele>
        <time>2018-12-23T10:03:03Z</time>
      </trkpt>
      <trkpt lat="45.94334" lon="3.61435">
        <ele>682.6</ele>
        <time>2018-12-23T10:03:05Z</time>
      </trkpt>
      <trkpt lat="45.94332" lon="3.61431">
        <ele>682.7</ele>
        <time>2018-12-23T10:03:07Z</time>
      </trkpt>
      <trkpt lat="45.9433" lon="3.61427">
        <ele>682.8</ele>
        <time>2018-12-23T10:03:09Z</time>
      </trkpt>
      <trkpt lat="45.94327" lon="3.61423">
        <ele>682.9</ele>
        <time>2018-12-23T10:03:12Z</time>
      </trkpt>
      <trkpt lat="45.94324" lon="3.61419">
        <ele>682.8</ele>
        <time>2018-12-23T10:03:15Z</time>
      </trkpt>
      <trkpt lat="45.94322" lon="3.61415">
        <ele>682.8</ele>
        <time>2018-12-23T10:03:17Z</time>
      </trkpt>
      <trkpt lat="45.94319" lon="3.61411">
        <ele>682.7</ele>
        <time>2018-12-23T10:03:19Z</time>
      </trkpt>
      <trkpt lat="45.94316" lon="3.61407">
        <ele>682.6</ele>
        <time>2018-12-23T10:03:22Z</time>
      </trkpt>
      <trkpt lat="45.94314" lon="3.61403">
        <ele>682.6</ele>
        <time>2018-12-23T10:03:25Z</time>
      </trkpt>
      <trkpt lat="45.94312" lon="3.614">
        <ele>682.6</ele>
        <time>2018-12-23T10:03:28Z</time>
      </trkpt>
      <trkpt lat="45.9431" lon="3.61398">
        <ele>682.7</ele>
        <time>2018-12-23T10:03:33Z</time>
      </trkpt>
      <trkpt lat="45.94307" lon="3.61395">
        <ele>682.8</ele>
        <time>2018-12-23T10:03:37Z</time>
      </trkpt>
      <trkpt lat="45.94305" lon="3.61392">
        <ele>682.9</ele>
        <time>2018-12-23T10:03:39Z</time>
      </trkpt>
      <trkpt lat="45.94303" lon="3.61389">
        <ele>683.1</ele>
        <time>2018-12-23T10:03:41Z</time>
      </trkpt>
      <trkpt lat="45.94301" lon="3.61385">
        <ele>683.3</ele>
        <time>2018-12-23T10:03:43Z</time>
      </trkpt>
      <trkpt lat="45.94299" lon="3.61382">
        <ele>683.5</ele>
        <time>2018-12-23T10:03:45Z</time>
      </trkpt>
      <trkpt lat="45.94296" lon="3.6138">
        <ele>683.6</ele>
        <time>2018-12-23T10:03:48Z</time>
      </trkpt>
      <trkpt lat="45.94294" lon="3.61376">
        <ele>683.6</ele>
        <time>2018-12-23T10:03:52Z</time>
      </trkpt>
      <trkpt lat="45.94292" lon="3.61373">
        <ele>683.7</ele>
        <time>2018-12-23T10:03:55Z</time>
      </trkpt>
      <trkpt lat="45.9429" lon="3.6137">
        <ele>683.7</ele>
        <time>2018-12-23T10:03:58Z</time>
      </trkpt>
      <trkpt lat="45.94288" lon="3.61368">
        <ele>683.8</ele>
        <time>2018-12-23T10:04:03Z</time>
      </trkpt>
      <trkpt lat="45.94285" lon="3.61365">
        <ele>683.9</ele>
        <time>2018-12-23T10:04:07Z</time>
      </trkpt>
      <trkpt lat="45.94283" lon="3.61362">
        <ele>684</ele>
        <time>2018-12-23T10:04:10Z</time>
      </trkpt>
      <trkpt lat="45.94281" lon="3.6136">
        <ele>684</ele>
        <time>2018-12-23T10:04:13Z</time>
      </trkpt>
      <trkpt lat="45.94278" lon="3.61357">
        <ele>684</ele>
        <time>2018-12-23T10:04:17Z</time>
      </trkpt>
      <trkpt lat="45.94277" lon="3.61353">
        <ele>684</ele>
        <time>2018-12-23T10:04:20Z</time>
      </trkpt>
      <trkpt lat="45.94275" lon="3.61351">
        <ele>684</ele>
        <time>2018-12-23T10:04:23Z</time>
      </trkpt>
      <trkpt lat="45.94273" lon="3.61348">
        <ele>684.2</ele>
        <time>2018-12-23T10:04:26Z</time>
      </trkpt>
      <trkpt lat="45.94271" lon="3.61344">
        <ele>684.4</ele>
        <time>2018-12-23T10:04:29Z</time>
      </trkpt>
      <trkpt lat="45.94269" lon="3.6134">
        <ele>684.7</ele>
        <time>2018-12-23T10:04:33Z</time>
      </trkpt>
      <trkpt lat="45.94267" lon="3.61336">
        <ele>684.9</ele>
        <time>2018-12-23T10:04:37Z</time>
      </trkpt>
      <trkpt lat="45.94265" lon="3.61332">
        <ele>685.1</ele>
        <time>2018-12-23T10:04:40Z</time>
      </trkpt>
      <trkpt lat="45.94263" lon="3.61327">
        <ele>685.4</ele>
        <time>2018-12-23T10:04:43Z</time>
      </trkpt>
      <trkpt lat="45.94261" lon="3.61324">
        <ele>685.4</ele>
        <time>2018-12-23T10:04:45Z</time>
      </trkpt>
      <trkpt lat="45.9426" lon="3.6132">
        <ele>685.4</ele>
        <time>2018-12-23T10:04:48Z</time>
      </trkpt>
      <trkpt lat="45.94258" lon="3.61315">
        <ele>685.5</ele>
        <time>2018-12-23T10:04:51Z</time>
      </trkpt>
      <trkpt lat="45.94257" lon="3.61311">
        <ele>685.5</ele>
        <time>2018-12-23T10:04:54Z</time>
      </trkpt>
      <trkpt lat="45.94256" lon="3.61306">
        <ele>685.5</ele>
        <time>2018-12-23T10:04:58Z</time>
      </trkpt>
      <trkpt lat="45.94254" lon="3.61304">
        <ele>685.5</ele>
        <time>2018-12-23T10:05:01Z</time>
      </trkpt>
      <trkpt lat="45.94253" lon="3.613">
        <ele>685.6</ele>
        <time>2018-12-23T10:05:05Z</time>
      </trkpt>
      <trkpt lat="45.94253" lon="3.61295">
        <ele>685.8</ele>
        <time>2018-12-23T10:05:09Z</time>
      </trkpt>
      <trkpt lat="45.9425" lon="3.61292">
        <ele>686</ele>
        <time>2018-12-23T10:05:13Z</time>
      </trkpt>
      <trkpt lat="45.94248" lon="3.61287">
        <ele>686.1</ele>
        <time>2018-12-23T10:05:17Z</time>
      </trkpt>
      <trkpt lat="45.94245" lon="3.61284">
        <ele>686.2</ele>
        <time>2018-12-23T10:05:21Z</time>
      </trkpt>
      <trkpt lat="45.94243" lon="3.6128">
        <ele>686.3</ele>
        <time>2018-12-23T10:05:23Z</time>
      </trkpt>
      <trkpt lat="45.94242" lon="3.61277">
        <ele>686.2</ele>
        <time>2018-12-23T10:05:25Z</time>
      </trkpt>
      <trkpt lat="45.94241" lon="3.61273">
        <ele>686.1</ele>
        <time>2018-12-23T10:05:28Z</time>
      </trkpt>
      <trkpt lat="45.9424" lon="3.61268">
        <ele>686</ele>
        <time>2018-12-23T10:05:33Z</time>
      </trkpt>
      <trkpt lat="45.94239" lon="3.61263">
        <ele>685.9</ele>
        <time>2018-12-23T10:05:37Z</time>
      </trkpt>
      <trkpt lat="45.94239" lon="3.61258">
        <ele>685.7</ele>
        <time>2018-12-23T10:05:41Z</time>
      </trkpt>
      <trkpt lat="45.94237" lon="3.61254">
        <ele>685.6</ele>
        <time>2018-12-23T10:05:45Z</time>
      </trkpt>
      <trkpt lat="45.94236" lon="3.61251">
        <ele>685.4</ele>
        <time>2018-12-23T10:05:49Z</time>
      </trkpt>
      <trkpt lat="45.94234" lon="3.61246">
        <ele>685.4</ele>
        <time>2018-12-23T10:05:53Z</time>
      </trkpt>
      <trkpt lat="45.94233" lon="3.61242">
        <ele>685.3</ele>
        <time>2018-12-23T10:05:56Z</time>
      </trkpt>
      <trkpt lat="45.94232" lon="3.61239">
        <ele>685.2</ele>
        <time>2018-12-23T10:05:59Z</time>
      </trkpt>
      <trkpt lat="45.9423" lon="3.61236">
        <ele>684.9</ele>
        <time>2018-12-23T10:06:02Z</time>
      </trkpt>
      <trkpt lat="45.94229" lon="3.61232">
        <ele>684.6</ele>
        <time>2018-12-23T10:06:05Z</time>
      </trkpt>
      <trkpt lat="45.94227" lon="3.61228">
        <ele>684.2</ele>
        <time>2018-12-23T10:06:08Z</time>
      </trkpt>
      <trkpt lat="45.94225" lon="3.61224">
        <ele>683.8</ele>
        <time>2018-12-23T10:06:11Z</time>
      </trkpt>
      <trkpt lat="45.94224" lon="3.6122">
        <ele>683.5</ele>
        <time>2018-12-23T10:06:22Z</time>
      </trkpt>
      <trkpt lat="45.94222" lon="3.61216">
        <ele>683.2</ele>
        <time>2018-12-23T10:06:42Z</time>
      </trkpt>
      <trkpt lat="45.9422" lon="3.61213">
        <ele>683.1</ele>
        <time>2018-12-23T10:07:03Z</time>
      </trkpt>
      <trkpt lat="45.94223" lon="3.6121">
        <ele>683</ele>
        <time>2018-12-23T10:07:56Z</time>
      </trkpt>
      <trkpt lat="45.94227" lon="3.61209">
        <ele>682.7</ele>
        <time>2018-12-23T10:08:01Z</time>
      </trkpt>
      <trkpt lat="45.9423" lon="3.61209">
        <ele>682.4</ele>
        <time>2018-12-23T10:08:06Z</time>
      </trkpt>
      <trkpt lat="45.94226" lon="3.61212">
        <ele>682</ele>
        <time>2018-12-23T10:08:21Z</time>
      </trkpt>
      <trkpt lat="45.94223" lon="3.61212">
        <ele>681.9</ele>
        <time>2018-12-23T10:08:24Z</time>
      </trkpt>
      <trkpt lat="45.9422" lon="3.61211">
        <ele>681.8</ele>
        <time>2018-12-23T10:08:27Z</time>
      </trkpt>
      <trkpt lat="45.94217" lon="3.61208">
        <ele>681.7</ele>
        <time>2018-12-23T10:08:31Z</time>
      </trkpt>
      <trkpt lat="45.94214" lon="3.61204">
        <ele>681.6</ele>
        <time>2018-12-23T10:08:44Z</time>
      </trkpt>
      <trkpt lat="45.94212" lon="3.61201">
        <ele>681.6</ele>
        <time>2018-12-23T10:08:48Z</time>
      </trkpt>
      <trkpt lat="45.94209" lon="3.61199">
        <ele>681.5</ele>
        <time>2018-12-23T10:08:52Z</time>
      </trkpt>
      <trkpt lat="45.94206" lon="3.61196">
        <ele>680.9</ele>
        <time>2018-12-23T10:08:56Z</time>
      </trkpt>
      <trkpt lat="45.94205" lon="3.61192">
        <ele>680.4</ele>
        <time>2018-12-23T10:08:58Z</time>
      </trkpt>
      <trkpt lat="45.94203" lon="3.61188">
        <ele>679.8</ele>
        <time>2018-12-23T10:09:02Z</time>
      </trkpt>
      <trkpt lat="45.94201" lon="3.61184">
        <ele>679</ele>
        <time>2018-12-23T10:09:09Z</time>
      </trkpt>
      <trkpt lat="45.94198" lon="3.61182">
        <ele>678.4</ele>
        <time>2018-12-23T10:09:12Z</time>
      </trkpt>
      <trkpt lat="45.94196" lon="3.61179">
        <ele>677.8</ele>
        <time>2018-12-23T10:09:14Z</time>
      </trkpt>
      <trkpt lat="45.94194" lon="3.61175">
        <ele>677.3</ele>
        <time>2018-12-23T10:09:16Z</time>
      </trkpt>
      <trkpt lat="45.94192" lon="3.61172">
        <ele>676.7</ele>
        <time>2018-12-23T10:09:18Z</time>
      </trkpt>
      <trkpt lat="45.9419" lon="3.61169">
        <ele>675.9</ele>
        <time>2018-12-23T10:09:20Z</time>
      </trkpt>
      <trkpt lat="45.94188" lon="3.61166">
        <ele>675.2</ele>
        <time>2018-12-23T10:09:22Z</time>
      </trkpt>
      <trkpt lat="45.94187" lon="3.61162">
        <ele>674.6</ele>
        <time>2018-12-23T10:09:25Z</time>
      </trkpt>
      <trkpt lat="45.94186" lon="3.61158">
        <ele>673.9</ele>
        <time>2018-12-23T10:09:28Z</time>
      </trkpt>
      <trkpt lat="45.94187" lon="3.61153">
        <ele>673</ele>
        <time>2018-12-23T10:09:32Z</time>
      </trkpt>
      <trkpt lat="45.94186" lon="3.61149">
        <ele>672.3</ele>
        <time>2018-12-23T10:09:37Z</time>
      </trkpt>
      <trkpt lat="45.94184" lon="3.61144">
        <ele>671.4</ele>
        <time>2018-12-23T10:09:43Z</time>
      </trkpt>
      <trkpt lat="45.94183" lon="3.6114">
        <ele>670.8</ele>
        <time>2018-12-23T10:09:47Z</time>
      </trkpt>
      <trkpt lat="45.94183" lon="3.61136">
        <ele>670.1</ele>
        <time>2018-12-23T10:09:50Z</time>
      </trkpt>
      <trkpt lat="45.94183" lon="3.61132">
        <ele>669.4</ele>
        <time>2018-12-23T10:09:55Z</time>
      </trkpt>
      <trkpt lat="45.94185" lon="3.61128">
        <ele>668.7</ele>
        <time>2018-12-23T10:09:58Z</time>
      </trkpt>
      <trkpt lat="45.94187" lon="3.61124">
        <ele>667.3</ele>
        <time>2018-12-23T10:10:01Z</time>
      </trkpt>
      <trkpt lat="45.9419" lon="3.61122">
        <ele>666.1</ele>
        <time>2018-12-23T10:10:05Z</time>
      </trkpt>
      <trkpt lat="45.94193" lon="3.61118">
        <ele>665.7</ele>
        <time>2018-12-23T10:10:08Z</time>
      </trkpt>
      <trkpt lat="45.94194" lon="3.61114">
        <ele>665.8</ele>
        <time>2018-12-23T10:10:11Z</time>
      </trkpt>
      <trkpt lat="45.94197" lon="3.61112">
        <ele>665.9</ele>
        <time>2018-12-23T10:10:15Z</time>
      </trkpt>
      <trkpt lat="45.94201" lon="3.61111">
        <ele>666.1</ele>
        <time>2018-12-23T10:10:19Z</time>
      </trkpt>
      <trkpt lat="45.94204" lon="3.6111">
        <ele>666.2</ele>
        <time>2018-12-23T10:10:22Z</time>
      </trkpt>
      <trkpt lat="45.94207" lon="3.61108">
        <ele>666.2</ele>
        <time>2018-12-23T10:10:25Z</time>
      </trkpt>
      <trkpt lat="45.9421" lon="3.61106">
        <ele>666.3</ele>
        <time>2018-12-23T10:10:28Z</time>
      </trkpt>
      <trkpt lat="45.94213" lon="3.61104">
        <ele>666.6</ele>
        <time>2018-12-23T10:10:31Z</time>
      </trkpt>
      <trkpt lat="45.94216" lon="3.61101">
        <ele>667.3</ele>
        <time>2018-12-23T10:10:34Z</time>
      </trkpt>
      <trkpt lat="45.94218" lon="3.61099">
        <ele>667.8</ele>
        <time>2018-12-23T10:10:36Z</time>
      </trkpt>
      <trkpt lat="45.94222" lon="3.61097">
        <ele>667.7</ele>
        <time>2018-12-23T10:10:38Z</time>
      </trkpt>
      <trkpt lat="45.94226" lon="3.61095">
        <ele>667.6</ele>
        <time>2018-12-23T10:10:40Z</time>
      </trkpt>
      <trkpt lat="45.94228" lon="3.61092">
        <ele>667.6</ele>
        <time>2018-12-23T10:10:45Z</time>
      </trkpt>
      <trkpt lat="45.94232" lon="3.61089">
        <ele>667.5</ele>
        <time>2018-12-23T10:10:50Z</time>
      </trkpt>
      <trkpt lat="45.94236" lon="3.61089">
        <ele>667.8</ele>
        <time>2018-12-23T10:10:54Z</time>
      </trkpt>
      <trkpt lat="45.94239" lon="3.61087">
        <ele>668</ele>
        <time>2018-12-23T10:10:56Z</time>
      </trkpt>
      <trkpt lat="45.94242" lon="3.61084">
        <ele>668.1</ele>
        <time>2018-12-23T10:10:58Z</time>
      </trkpt>
      <trkpt lat="45.94244" lon="3.6108">
        <ele>668</ele>
        <time>2018-12-23T10:11:00Z</time>
      </trkpt>
      <trkpt lat="45.94247" lon="3.61078">
        <ele>668</ele>
        <time>2018-12-23T10:11:03Z</time>
      </trkpt>
      <trkpt lat="45.9425" lon="3.61076">
        <ele>668</ele>
        <time>2018-12-23T10:11:06Z</time>
      </trkpt>
      <trkpt lat="45.94253" lon="3.61073">
        <ele>668.1</ele>
        <time>2018-12-23T10:11:09Z</time>
      </trkpt>
      <trkpt lat="45.94254" lon="3.61069">
        <ele>667.4</ele>
        <time>2018-12-23T10:11:14Z</time>
      </trkpt>
      <trkpt lat="45.94256" lon="3.61065">
        <ele>666.8</ele>
        <time>2018-12-23T10:11:16Z</time>
      </trkpt>
      <trkpt lat="45.94258" lon="3.61062">
        <ele>666.1</ele>
        <time>2018-12-23T10:11:19Z</time>
      </trkpt>
      <trkpt lat="45.94261" lon="3.6106">
        <ele>665.6</ele>
        <time>2018-12-23T10:11:23Z</time>
      </trkpt>
      <trkpt lat="45.94263" lon="3.61056">
        <ele>665.2</ele>
        <time>2018-12-23T10:11:27Z</time>
      </trkpt>
      <trkpt lat="45.94265" lon="3.61053">
        <ele>664.6</ele>
        <time>2018-12-23T10:11:32Z</time>
      </trkpt>
      <trkpt lat="45.94267" lon="3.61049">
        <ele>663.8</ele>
        <time>2018-12-23T10:11:36Z</time>
      </trkpt>
      <trkpt lat="45.94269" lon="3.61045">
        <ele>663.2</ele>
        <time>2018-12-23T10:11:38Z</time>
      </trkpt>
      <trkpt lat="45.94272" lon="3.61043">
        <ele>662.5</ele>
        <time>2018-12-23T10:11:42Z</time>
      </trkpt>
      <trkpt lat="45.94275" lon="3.61041">
        <ele>661.8</ele>
        <time>2018-12-23T10:11:45Z</time>
      </trkpt>
      <trkpt lat="45.94275" lon="3.61035">
        <ele>660.7</ele>
        <time>2018-12-23T10:11:49Z</time>
      </trkpt>
      <trkpt lat="45.94275" lon="3.61031">
        <ele>660</ele>
        <time>2018-12-23T10:11:51Z</time>
      </trkpt>
      <trkpt lat="45.94277" lon="3.61028">
        <ele>659.6</ele>
        <time>2018-12-23T10:11:54Z</time>
      </trkpt>
      <trkpt lat="45.94279" lon="3.61023">
        <ele>659.1</ele>
        <time>2018-12-23T10:11:58Z</time>
      </trkpt>
      <trkpt lat="45.94279" lon="3.61018">
        <ele>658.3</ele>
        <time>2018-12-23T10:12:01Z</time>
      </trkpt>
      <trkpt lat="45.94281" lon="3.61017">
        <ele>657.4</ele>
        <time>2018-12-23T10:12:07Z</time>
      </trkpt>
      <trkpt lat="45.94283" lon="3.61011">
        <ele>656</ele>
        <time>2018-12-23T10:12:26Z</time>
      </trkpt>
      <trkpt lat="45.94284" lon="3.61005">
        <ele>655.2</ele>
        <time>2018-12-23T10:12:48Z</time>
      </trkpt>
      <trkpt lat="45.94287" lon="3.61006">
        <ele>654.5</ele>
        <time>2018-12-23T10:13:00Z</time>
      </trkpt>
      <trkpt lat="45.94291" lon="3.61006">
        <ele>653.4</ele>
        <time>2018-12-23T10:13:03Z</time>
      </trkpt>
      <trkpt lat="45.94295" lon="3.61005">
        <ele>652.7</ele>
        <time>2018-12-23T10:13:05Z</time>
      </trkpt>
      <trkpt lat="45.94299" lon="3.61006">
        <ele>652.4</ele>
        <time>2018-12-23T10:13:08Z</time>
      </trkpt>
      <trkpt lat="45.94302" lon="3.61008">
        <ele>651.3</ele>
        <time>2018-12-23T10:13:10Z</time>
      </trkpt>
      <trkpt lat="45.94306" lon="3.6101">
        <ele>650</ele>
        <time>2018-12-23T10:13:12Z</time>
      </trkpt>
      <trkpt lat="45.94308" lon="3.6101">
        <ele>649.7</ele>
        <time>2018-12-23T10:13:15Z</time>
      </trkpt>
      <trkpt lat="45.94311" lon="3.61008">
        <ele>649.4</ele>
        <time>2018-12-23T10:13:18Z</time>
      </trkpt>
      <trkpt lat="45.94314" lon="3.61007">
        <ele>647.4</ele>
        <time>2018-12-23T10:13:21Z</time>
      </trkpt>
      <trkpt lat="45.94317" lon="3.61006">
        <ele>646.5</ele>
        <time>2018-12-23T10:13:24Z</time>
      </trkpt>
      <trkpt lat="45.9432" lon="3.61004">
        <ele>645.5</ele>
        <time>2018-12-23T10:13:27Z</time>
      </trkpt>
      <trkpt lat="45.94322" lon="3.61001">
        <ele>644.7</ele>
        <time>2018-12-23T10:13:30Z</time>
      </trkpt>
      <trkpt lat="45.94322" lon="3.60996">
        <ele>643.8</ele>
        <time>2018-12-23T10:13:33Z</time>
      </trkpt>
      <trkpt lat="45.94322" lon="3.60991">
        <ele>642.8</ele>
        <time>2018-12-23T10:13:38Z</time>
      </trkpt>
      <trkpt lat="45.94321" lon="3.60987">
        <ele>641.9</ele>
        <time>2018-12-23T10:13:42Z</time>
      </trkpt>
      <trkpt lat="45.94319" lon="3.60984">
        <ele>641</ele>
        <time>2018-12-23T10:13:46Z</time>
      </trkpt>
      <trkpt lat="45.94317" lon="3.60981">
        <ele>640.9</ele>
        <time>2018-12-23T10:13:50Z</time>
      </trkpt>
      <trkpt lat="45.94314" lon="3.60979">
        <ele>640.6</ele>
        <time>2018-12-23T10:13:53Z</time>
      </trkpt>
      <trkpt lat="45.94311" lon="3.60977">
        <ele>640.3</ele>
        <time>2018-12-23T10:13:56Z</time>
      </trkpt>
      <trkpt lat="45.9431" lon="3.60974">
        <ele>640</ele>
        <time>2018-12-23T10:13:59Z</time>
      </trkpt>
      <trkpt lat="45.94307" lon="3.60972">
        <ele>639.8</ele>
        <time>2018-12-23T10:14:04Z</time>
      </trkpt>
      <trkpt lat="45.94304" lon="3.6097">
        <ele>639.6</ele>
        <time>2018-12-23T10:14:09Z</time>
      </trkpt>
      <trkpt lat="45.94302" lon="3.60968">
        <ele>639.5</ele>
        <time>2018-12-23T10:14:12Z</time>
      </trkpt>
      <trkpt lat="45.94299" lon="3.60965">
        <ele>639.3</ele>
        <time>2018-12-23T10:14:15Z</time>
      </trkpt>
      <trkpt lat="45.94297" lon="3.60963">
        <ele>639</ele>
        <time>2018-12-23T10:14:17Z</time>
      </trkpt>
      <trkpt lat="45.94294" lon="3.6096">
        <ele>638.8</ele>
        <time>2018-12-23T10:14:19Z</time>
      </trkpt>
      <trkpt lat="45.94291" lon="3.60958">
        <ele>638.3</ele>
        <time>2018-12-23T10:14:22Z</time>
      </trkpt>
      <trkpt lat="45.94288" lon="3.60956">
        <ele>637.6</ele>
        <time>2018-12-23T10:14:25Z</time>
      </trkpt>
      <trkpt lat="45.94284" lon="3.60953">
        <ele>636.7</ele>
        <time>2018-12-23T10:14:28Z</time>
      </trkpt>
      <trkpt lat="45.94282" lon="3.6095">
        <ele>636.1</ele>
        <time>2018-12-23T10:14:30Z</time>
      </trkpt>
      <trkpt lat="45.9428" lon="3.60946">
        <ele>635.4</ele>
        <time>2018-12-23T10:14:33Z</time>
      </trkpt>
      <trkpt lat="45.94277" lon="3.60942">
        <ele>634.7</ele>
        <time>2018-12-23T10:14:36Z</time>
      </trkpt>
      <trkpt lat="45.94275" lon="3.60938">
        <ele>634</ele>
        <time>2018-12-23T10:14:39Z</time>
      </trkpt>
      <trkpt lat="45.94273" lon="3.60935">
        <ele>633.5</ele>
        <time>2018-12-23T10:14:42Z</time>
      </trkpt>
      <trkpt lat="45.9427" lon="3.60932">
        <ele>633.2</ele>
        <time>2018-12-23T10:14:45Z</time>
      </trkpt>
      <trkpt lat="45.94267" lon="3.60929">
        <ele>632.9</ele>
        <time>2018-12-23T10:14:48Z</time>
      </trkpt>
      <trkpt lat="45.94265" lon="3.60926">
        <ele>632.6</ele>
        <time>2018-12-23T10:14:51Z</time>
      </trkpt>
      <trkpt lat="45.94262" lon="3.60924">
        <ele>631.8</ele>
        <time>2018-12-23T10:14:55Z</time>
      </trkpt>
      <trkpt lat="45.94259" lon="3.60921">
        <ele>630.8</ele>
        <time>2018-12-23T10:14:58Z</time>
      </trkpt>
      <trkpt lat="45.94256" lon="3.60918">
        <ele>630</ele>
        <time>2018-12-23T10:15:02Z</time>
      </trkpt>
      <trkpt lat="45.94255" lon="3.60913">
        <ele>629</ele>
        <time>2018-12-23T10:15:05Z</time>
      </trkpt>
      <trkpt lat="45.94254" lon="3.60908">
        <ele>628</ele>
        <time>2018-12-23T10:15:08Z</time>
      </trkpt>
      <trkpt lat="45.94252" lon="3.60903">
        <ele>627.1</ele>
        <time>2018-12-23T10:15:11Z</time>
      </trkpt>
      <trkpt lat="45.94252" lon="3.60899">
        <ele>626.7</ele>
        <time>2018-12-23T10:15:14Z</time>
      </trkpt>
      <trkpt lat="45.94252" lon="3.60894">
        <ele>626.3</ele>
        <time>2018-12-23T10:15:17Z</time>
      </trkpt>
      <trkpt lat="45.94251" lon="3.6089">
        <ele>625.9</ele>
        <time>2018-12-23T10:15:21Z</time>
      </trkpt>
      <trkpt lat="45.94248" lon="3.60888">
        <ele>625.2</ele>
        <time>2018-12-23T10:15:26Z</time>
      </trkpt>
      <trkpt lat="45.94246" lon="3.60884">
        <ele>624.5</ele>
        <time>2018-12-23T10:15:31Z</time>
      </trkpt>
      <trkpt lat="45.94243" lon="3.60884">
        <ele>623.6</ele>
        <time>2018-12-23T10:15:38Z</time>
      </trkpt>
      <trkpt lat="45.94239" lon="3.60883">
        <ele>622.5</ele>
        <time>2018-12-23T10:15:41Z</time>
      </trkpt>
      <trkpt lat="45.94236" lon="3.60884">
        <ele>621.3</ele>
        <time>2018-12-23T10:15:44Z</time>
      </trkpt>
      <trkpt lat="45.94233" lon="3.60885">
        <ele>620.5</ele>
        <time>2018-12-23T10:15:49Z</time>
      </trkpt>
      <trkpt lat="45.94231" lon="3.6089">
        <ele>619.7</ele>
        <time>2018-12-23T10:16:07Z</time>
      </trkpt>
      <trkpt lat="45.94235" lon="3.60888">
        <ele>619.1</ele>
        <time>2018-12-23T10:16:32Z</time>
      </trkpt>
      <trkpt lat="45.94238" lon="3.60888">
        <ele>618.5</ele>
        <time>2018-12-23T10:16:34Z</time>
      </trkpt>
      <trkpt lat="45.9424" lon="3.60888">
        <ele>618</ele>
        <time>2018-12-23T10:16:36Z</time>
      </trkpt>
      <trkpt lat="45.94243" lon="3.60886">
        <ele>617.3</ele>
        <time>2018-12-23T10:16:39Z</time>
      </trkpt>
      <trkpt lat="45.94247" lon="3.60887">
        <ele>616.7</ele>
        <time>2018-12-23T10:16:42Z</time>
      </trkpt>
      <trkpt lat="45.94249" lon="3.60888">
        <ele>612.4</ele>
        <time>2018-12-23T10:16:45Z</time>
      </trkpt>
      <trkpt lat="45.94252" lon="3.60887">
        <ele>612.8</ele>
        <time>2018-12-23T10:16:49Z</time>
      </trkpt>
      <trkpt lat="45.94255" lon="3.60885">
        <ele>613.1</ele>
        <time>2018-12-23T10:17:02Z</time>
      </trkpt>
      <trkpt lat="45.94257" lon="3.60888">
        <ele>613.5</ele>
        <time>2018-12-23T10:17:05Z</time>
      </trkpt>
      <trkpt lat="45.94256" lon="3.60894">
        <ele>614.1</ele>
        <time>2018-12-23T10:17:20Z</time>
      </trkpt>
      <trkpt lat="45.94258" lon="3.60891">
        <ele>614.5</ele>
        <time>2018-12-23T10:17:35Z</time>
      </trkpt>
      <trkpt lat="45.94255" lon="3.60891">
        <ele>614.9</ele>
        <time>2018-12-23T10:18:36Z</time>
      </trkpt>
      <trkpt lat="45.94256" lon="3.60894">
        <ele>615.2</ele>
        <time>2018-12-23T10:19:39Z</time>
      </trkpt>
      <trkpt lat="45.9426" lon="3.60894">
        <ele>615.6</ele>
        <time>2018-12-23T10:20:21Z</time>
      </trkpt>
      <trkpt lat="45.94264" lon="3.60895">
        <ele>616</ele>
        <time>2018-12-23T10:20:24Z</time>
      </trkpt>
      <trkpt lat="45.94266" lon="3.60898">
        <ele>616.4</ele>
        <time>2018-12-23T10:20:26Z</time>
      </trkpt>
      <trkpt lat="45.94269" lon="3.60899">
        <ele>616.7</ele>
        <time>2018-12-23T10:20:29Z</time>
      </trkpt>
      <trkpt lat="45.94273" lon="3.609">
        <ele>617.2</ele>
        <time>2018-12-23T10:20:34Z</time>
      </trkpt>
      <trkpt lat="45.94277" lon="3.60899">
        <ele>617.7</ele>
        <time>2018-12-23T10:20:47Z</time>
      </trkpt>
      <trkpt lat="45.94279" lon="3.60901">
        <ele>618.1</ele>
        <time>2018-12-23T10:21:33Z</time>
      </trkpt>
      <trkpt lat="45.94279" lon="3.60906">
        <ele>618.5</ele>
        <time>2018-12-23T10:21:40Z</time>
      </trkpt>
      <trkpt lat="45.94281" lon="3.6091">
        <ele>618.8</ele>
        <time>2018-12-23T10:21:43Z</time>
      </trkpt>
      <trkpt lat="45.94283" lon="3.60915">
        <ele>619.2</ele>
        <time>2018-12-23T10:21:46Z</time>
      </trkpt>
      <trkpt lat="45.94286" lon="3.60918">
        <ele>619.6</ele>
        <time>2018-12-23T10:21:49Z</time>
      </trkpt>
      <trkpt lat="45.94289" lon="3.6092">
        <ele>620</ele>
        <time>2018-12-23T10:21:51Z</time>
      </trkpt>
      <trkpt lat="45.94292" lon="3.60923">
        <ele>620.5</ele>
        <time>2018-12-23T10:21:54Z</time>
      </trkpt>
      <trkpt lat="45.94295" lon="3.60926">
        <ele>620.8</ele>
        <time>2018-12-23T10:21:56Z</time>
      </trkpt>
      <trkpt lat="45.94298" lon="3.60928">
        <ele>621.3</ele>
        <time>2018-12-23T10:21:59Z</time>
      </trkpt>
      <trkpt lat="45.943" lon="3.6093">
        <ele>621.6</ele>
        <time>2018-12-23T10:22:01Z</time>
      </trkpt>
      <trkpt lat="45.94303" lon="3.60933">
        <ele>622</ele>
        <time>2018-12-23T10:22:04Z</time>
      </trkpt>
      <trkpt lat="45.94306" lon="3.60935">
        <ele>622.4</ele>
        <time>2018-12-23T10:22:07Z</time>
      </trkpt>
      <trkpt lat="45.94309" lon="3.60939">
        <ele>622.8</ele>
        <time>2018-12-23T10:22:11Z</time>
      </trkpt>
      <trkpt lat="45.94312" lon="3.60942">
        <ele>623.3</ele>
        <time>2018-12-23T10:22:14Z</time>
      </trkpt>
      <trkpt lat="45.94315" lon="3.60945">
        <ele>623.7</ele>
        <time>2018-12-23T10:22:17Z</time>
      </trkpt>
      <trkpt lat="45.94318" lon="3.60946">
        <ele>624.1</ele>
        <time>2018-12-23T10:22:19Z</time>
      </trkpt>
      <trkpt lat="45.94322" lon="3.60948">
        <ele>624.6</ele>
        <time>2018-12-23T10:22:21Z</time>
      </trkpt>
      <trkpt lat="45.94325" lon="3.60949">
        <ele>625.1</ele>
        <time>2018-12-23T10:22:23Z</time>
      </trkpt>
      <trkpt lat="45.9433" lon="3.60951">
        <ele>625.8</ele>
        <time>2018-12-23T10:22:26Z</time>
      </trkpt>
      <trkpt lat="45.94333" lon="3.60953">
        <ele>626.2</ele>
        <time>2018-12-23T10:22:28Z</time>
      </trkpt>
      <trkpt lat="45.94336" lon="3.60954">
        <ele>626.6</ele>
        <time>2018-12-23T10:22:30Z</time>
      </trkpt>
      <trkpt lat="45.94338" lon="3.60957">
        <ele>626.9</ele>
        <time>2018-12-23T10:22:33Z</time>
      </trkpt>
      <trkpt lat="45.94339" lon="3.6096">
        <ele>627.3</ele>
        <time>2018-12-23T10:22:36Z</time>
      </trkpt>
      <trkpt lat="45.94341" lon="3.60964">
        <ele>627.6</ele>
        <time>2018-12-23T10:22:40Z</time>
      </trkpt>
      <trkpt lat="45.94344" lon="3.60967">
        <ele>628</ele>
        <time>2018-12-23T10:22:43Z</time>
      </trkpt>
      <trkpt lat="45.94346" lon="3.6097">
        <ele>628.4</ele>
        <time>2018-12-23T10:22:46Z</time>
      </trkpt>
      <trkpt lat="45.94348" lon="3.60973">
        <ele>628.8</ele>
        <time>2018-12-23T10:22:49Z</time>
      </trkpt>
      <trkpt lat="45.94351" lon="3.60977">
        <ele>629.2</ele>
        <time>2018-12-23T10:22:52Z</time>
      </trkpt>
      <trkpt lat="45.94354" lon="3.60979">
        <ele>629.6</ele>
        <time>2018-12-23T10:22:54Z</time>
      </trkpt>
      <trkpt lat="45.94357" lon="3.60981">
        <ele>630</ele>
        <time>2018-12-23T10:22:56Z</time>
      </trkpt>
      <trkpt lat="45.9436" lon="3.60983">
        <ele>630.4</ele>
        <time>2018-12-23T10:22:58Z</time>
      </trkpt>
      <trkpt lat="45.94363" lon="3.60985">
        <ele>630.9</ele>
        <time>2018-12-23T10:23:00Z</time>
      </trkpt>
      <trkpt lat="45.94366" lon="3.60988">
        <ele>631.3</ele>
        <time>2018-12-23T10:23:02Z</time>
      </trkpt>
      <trkpt lat="45.94369" lon="3.60991">
        <ele>631.8</ele>
        <time>2018-12-23T10:23:04Z</time>
      </trkpt>
      <trkpt lat="45.94372" lon="3.60992">
        <ele>632.2</ele>
        <time>2018-12-23T10:23:06Z</time>
      </trkpt>
      <trkpt lat="45.94375" lon="3.60989">
        <ele>632.7</ele>
        <time>2018-12-23T10:23:09Z</time>
      </trkpt>
      <trkpt lat="45.94378" lon="3.60987">
        <ele>633.1</ele>
        <time>2018-12-23T10:23:12Z</time>
      </trkpt>
      <trkpt lat="45.94381" lon="3.60986">
        <ele>633.6</ele>
        <time>2018-12-23T10:23:15Z</time>
      </trkpt>
      <trkpt lat="45.94385" lon="3.60987">
        <ele>634</ele>
        <time>2018-12-23T10:23:18Z</time>
      </trkpt>
      <trkpt lat="45.94388" lon="3.60988">
        <ele>634.3</ele>
        <time>2018-12-23T10:23:20Z</time>
      </trkpt>
      <trkpt lat="45.94391" lon="3.60987">
        <ele>634.7</ele>
        <time>2018-12-23T10:23:24Z</time>
      </trkpt>
      <trkpt lat="45.94394" lon="3.60987">
        <ele>635</ele>
        <time>2018-12-23T10:23:26Z</time>
      </trkpt>
      <trkpt lat="45.94397" lon="3.60987">
        <ele>635.4</ele>
        <time>2018-12-23T10:23:29Z</time>
      </trkpt>
      <trkpt lat="45.944" lon="3.60986">
        <ele>635.8</ele>
        <time>2018-12-23T10:23:34Z</time>
      </trkpt>
      <trkpt lat="45.94404" lon="3.60986">
        <ele>636.2</ele>
        <time>2018-12-23T10:23:41Z</time>
      </trkpt>
      <trkpt lat="45.94406" lon="3.60983">
        <ele>636.6</ele>
        <time>2018-12-23T10:23:43Z</time>
      </trkpt>
      <trkpt lat="45.94409" lon="3.6098">
        <ele>637</ele>
        <time>2018-12-23T10:23:46Z</time>
      </trkpt>
      <trkpt lat="45.94412" lon="3.60979">
        <ele>637.4</ele>
        <time>2018-12-23T10:23:48Z</time>
      </trkpt>
      <trkpt lat="45.94415" lon="3.60978">
        <ele>637.8</ele>
        <time>2018-12-23T10:23:51Z</time>
      </trkpt>
      <trkpt lat="45.94418" lon="3.60978">
        <ele>638.2</ele>
        <time>2018-12-23T10:23:54Z</time>
      </trkpt>
      <trkpt lat="45.94421" lon="3.60978">
        <ele>638.6</ele>
        <time>2018-12-23T10:23:57Z</time>
      </trkpt>
      <trkpt lat="45.94424" lon="3.60979">
        <ele>638.9</ele>
        <time>2018-12-23T10:24:01Z</time>
      </trkpt>
      <trkpt lat="45.94428" lon="3.6098">
        <ele>639.4</ele>
        <time>2018-12-23T10:24:04Z</time>
      </trkpt>
      <trkpt lat="45.94431" lon="3.60982">
        <ele>639.7</ele>
        <time>2018-12-23T10:24:07Z</time>
      </trkpt>
      <trkpt lat="45.94434" lon="3.60982">
        <ele>640</ele>
        <time>2018-12-23T10:24:10Z</time>
      </trkpt>
      <trkpt lat="45.94437" lon="3.60982">
        <ele>640.4</ele>
        <time>2018-12-23T10:24:13Z</time>
      </trkpt>
      <trkpt lat="45.9444" lon="3.60982">
        <ele>640.7</ele>
        <time>2018-12-23T10:24:16Z</time>
      </trkpt>
      <trkpt lat="45.94443" lon="3.60982">
        <ele>641</ele>
        <time>2018-12-23T10:24:19Z</time>
      </trkpt>
      <trkpt lat="45.94446" lon="3.60983">
        <ele>641.3</ele>
        <time>2018-12-23T10:24:23Z</time>
      </trkpt>
      <trkpt lat="45.94449" lon="3.60982">
        <ele>641.6</ele>
        <time>2018-12-23T10:24:27Z</time>
      </trkpt>
      <trkpt lat="45.94452" lon="3.6098">
        <ele>641.9</ele>
        <time>2018-12-23T10:24:32Z</time>
      </trkpt>
      <trkpt lat="45.94455" lon="3.60978">
        <ele>642.2</ele>
        <time>2018-12-23T10:24:35Z</time>
      </trkpt>
      <trkpt lat="45.94458" lon="3.60977">
        <ele>642.7</ele>
        <time>2018-12-23T10:24:40Z</time>
      </trkpt>
      <trkpt lat="45.94461" lon="3.60978">
        <ele>643.3</ele>
        <time>2018-12-23T10:24:43Z</time>
      </trkpt>
      <trkpt lat="45.94465" lon="3.6098">
        <ele>643.9</ele>
        <time>2018-12-23T10:24:45Z</time>
      </trkpt>
      <trkpt lat="45.94468" lon="3.60981">
        <ele>644.3</ele>
        <time>2018-12-23T10:24:47Z</time>
      </trkpt>
      <trkpt lat="45.9447" lon="3.60981">
        <ele>644.6</ele>
        <time>2018-12-23T10:24:50Z</time>
      </trkpt>
      <trkpt lat="45.94474" lon="3.60981">
        <ele>645</ele>
        <time>2018-12-23T10:24:53Z</time>
      </trkpt>
      <trkpt lat="45.94478" lon="3.60981">
        <ele>645.5</ele>
        <time>2018-12-23T10:24:56Z</time>
      </trkpt>
      <trkpt lat="45.94481" lon="3.6098">
        <ele>645.9</ele>
        <time>2018-12-23T10:24:59Z</time>
      </trkpt>
      <trkpt lat="45.94483" lon="3.60979">
        <ele>646.3</ele>
        <time>2018-12-23T10:25:02Z</time>
      </trkpt>
      <trkpt lat="45.94486" lon="3.60975">
        <ele>646.9</ele>
        <time>2018-12-23T10:25:05Z</time>
      </trkpt>
      <trkpt lat="45.9449" lon="3.60974">
        <ele>647.3</ele>
        <time>2018-12-23T10:25:08Z</time>
      </trkpt>
      <trkpt lat="45.94493" lon="3.60973">
        <ele>647.7</ele>
        <time>2018-12-23T10:25:11Z</time>
      </trkpt>
      <trkpt lat="45.94496" lon="3.60973">
        <ele>648.2</ele>
        <time>2018-12-23T10:25:14Z</time>
      </trkpt>
      <trkpt lat="45.94499" lon="3.60973">
        <ele>648.6</ele>
        <time>2018-12-23T10:25:17Z</time>
      </trkpt>
      <trkpt lat="45.94503" lon="3.60975">
        <ele>649</ele>
        <time>2018-12-23T10:25:21Z</time>
      </trkpt>
      <trkpt lat="45.94506" lon="3.60975">
        <ele>649.4</ele>
        <time>2018-12-23T10:25:24Z</time>
      </trkpt>
      <trkpt lat="45.94509" lon="3.60973">
        <ele>649.8</ele>
        <time>2018-12-23T10:25:27Z</time>
      </trkpt>
      <trkpt lat="45.94511" lon="3.6097">
        <ele>650.1</ele>
        <time>2018-12-23T10:25:30Z</time>
      </trkpt>
      <trkpt lat="45.94514" lon="3.60968">
        <ele>650.5</ele>
        <time>2018-12-23T10:25:35Z</time>
      </trkpt>
      <trkpt lat="45.94515" lon="3.60972">
        <ele>650.8</ele>
        <time>2018-12-23T10:25:48Z</time>
      </trkpt>
      <trkpt lat="45.94518" lon="3.60971">
        <ele>651.2</ele>
        <time>2018-12-23T10:26:00Z</time>
      </trkpt>
      <trkpt lat="45.9452" lon="3.6097">
        <ele>651.5</ele>
        <time>2018-12-23T10:26:06Z</time>
      </trkpt>
      <trkpt lat="45.94523" lon="3.60968">
        <ele>651.8</ele>
        <time>2018-12-23T10:26:09Z</time>
      </trkpt>
      <trkpt lat="45.94526" lon="3.60968">
        <ele>652.2</ele>
        <time>2018-12-23T10:26:12Z</time>
      </trkpt>
      <trkpt lat="45.94529" lon="3.60967">
        <ele>652.6</ele>
        <time>2018-12-23T10:26:16Z</time>
      </trkpt>
      <trkpt lat="45.94532" lon="3.60964">
        <ele>653</ele>
        <time>2018-12-23T10:26:21Z</time>
      </trkpt>
      <trkpt lat="45.94536" lon="3.60962">
        <ele>653.5</ele>
        <time>2018-12-23T10:26:24Z</time>
      </trkpt>
      <trkpt lat="45.94539" lon="3.60961">
        <ele>653.9</ele>
        <time>2018-12-23T10:26:27Z</time>
      </trkpt>
      <trkpt lat="45.94542" lon="3.60961">
        <ele>654.3</ele>
        <time>2018-12-23T10:26:29Z</time>
      </trkpt>
      <trkpt lat="45.94545" lon="3.6096">
        <ele>654.6</ele>
        <time>2018-12-23T10:26:32Z</time>
      </trkpt>
      <trkpt lat="45.94548" lon="3.60958">
        <ele>655</ele>
        <time>2018-12-23T10:26:37Z</time>
      </trkpt>
      <trkpt lat="45.94551" lon="3.60959">
        <ele>655.4</ele>
        <time>2018-12-23T10:26:41Z</time>
      </trkpt>
      <trkpt lat="45.94553" lon="3.60957">
        <ele>655.8</ele>
        <time>2018-12-23T10:26:53Z</time>
      </trkpt>
      <trkpt lat="45.94556" lon="3.60955">
        <ele>656.3</ele>
        <time>2018-12-23T10:26:58Z</time>
      </trkpt>
      <trkpt lat="45.94559" lon="3.60953">
        <ele>656.7</ele>
        <time>2018-12-23T10:27:01Z</time>
      </trkpt>
      <trkpt lat="45.94562" lon="3.60953">
        <ele>657.2</ele>
        <time>2018-12-23T10:27:07Z</time>
      </trkpt>
      <trkpt lat="45.94565" lon="3.60954">
        <ele>657.6</ele>
        <time>2018-12-23T10:27:11Z</time>
      </trkpt>
      <trkpt lat="45.94567" lon="3.60951">
        <ele>658</ele>
        <time>2018-12-23T10:27:15Z</time>
      </trkpt>
      <trkpt lat="45.9457" lon="3.60948">
        <ele>658.6</ele>
        <time>2018-12-23T10:27:19Z</time>
      </trkpt>
      <trkpt lat="45.94573" lon="3.60945">
        <ele>659.1</ele>
        <time>2018-12-23T10:27:26Z</time>
      </trkpt>
      <trkpt lat="45.94576" lon="3.60947">
        <ele>659.6</ele>
        <time>2018-12-23T10:27:29Z</time>
      </trkpt>
      <trkpt lat="45.94579" lon="3.60949">
        <ele>660.1</ele>
        <time>2018-12-23T10:27:32Z</time>
      </trkpt>
      <trkpt lat="45.94582" lon="3.60949">
        <ele>660.6</ele>
        <time>2018-12-23T10:27:36Z</time>
      </trkpt>
      <trkpt lat="45.94585" lon="3.6095">
        <ele>661</ele>
        <time>2018-12-23T10:27:42Z</time>
      </trkpt>
      <trkpt lat="45.94588" lon="3.60951">
        <ele>661.3</ele>
        <time>2018-12-23T10:27:48Z</time>
      </trkpt>
      <trkpt lat="45.94589" lon="3.60945">
        <ele>661.9</ele>
        <time>2018-12-23T10:27:56Z</time>
      </trkpt>
      <trkpt lat="45.94589" lon="3.60941">
        <ele>662.2</ele>
        <time>2018-12-23T10:28:00Z</time>
      </trkpt>
      <trkpt lat="45.94591" lon="3.60944">
        <ele>662.6</ele>
        <time>2018-12-23T10:28:10Z</time>
      </trkpt>
      <trkpt lat="45.94594" lon="3.60946">
        <ele>663</ele>
        <time>2018-12-23T10:28:16Z</time>
      </trkpt>
      <trkpt lat="45.94597" lon="3.60944">
        <ele>663.3</ele>
        <time>2018-12-23T10:28:23Z</time>
      </trkpt>
      <trkpt lat="45.946" lon="3.60943">
        <ele>663.7</ele>
        <time>2018-12-23T10:28:28Z</time>
      </trkpt>
      <trkpt lat="45.94603" lon="3.60943">
        <ele>664</ele>
        <time>2018-12-23T10:28:36Z</time>
      </trkpt>
      <trkpt lat="45.94605" lon="3.6094">
        <ele>664.3</ele>
        <time>2018-12-23T10:28:39Z</time>
      </trkpt>
      <trkpt lat="45.94608" lon="3.60939">
        <ele>664.7</ele>
        <time>2018-12-23T10:28:42Z</time>
      </trkpt>
      <trkpt lat="45.94611" lon="3.60939">
        <ele>665</ele>
        <time>2018-12-23T10:28:46Z</time>
      </trkpt>
      <trkpt lat="45.94613" lon="3.60942">
        <ele>665.3</ele>
        <time>2018-12-23T10:28:56Z</time>
      </trkpt>
      <trkpt lat="45.94616" lon="3.60939">
        <ele>665.7</ele>
        <time>2018-12-23T10:29:00Z</time>
      </trkpt>
      <trkpt lat="45.94619" lon="3.60939">
        <ele>666</ele>
        <time>2018-12-23T10:29:03Z</time>
      </trkpt>
      <trkpt lat="45.94622" lon="3.6094">
        <ele>666.4</ele>
        <time>2018-12-23T10:29:06Z</time>
      </trkpt>
      <trkpt lat="45.94624" lon="3.60936">
        <ele>666.7</ele>
        <time>2018-12-23T10:29:13Z</time>
      </trkpt>
      <trkpt lat="45.94627" lon="3.60937">
        <ele>667.1</ele>
        <time>2018-12-23T10:29:21Z</time>
      </trkpt>
      <trkpt lat="45.9463" lon="3.60937">
        <ele>667.4</ele>
        <time>2018-12-23T10:29:24Z</time>
      </trkpt>
      <trkpt lat="45.94633" lon="3.60936">
        <ele>667.7</ele>
        <time>2018-12-23T10:29:27Z</time>
      </trkpt>
      <trkpt lat="45.94636" lon="3.60936">
        <ele>668.1</ele>
        <time>2018-12-23T10:29:30Z</time>
      </trkpt>
      <trkpt lat="45.94639" lon="3.60934">
        <ele>668.8</ele>
        <time>2018-12-23T10:29:33Z</time>
      </trkpt>
      <trkpt lat="45.94642" lon="3.60934">
        <ele>669.1</ele>
        <time>2018-12-23T10:29:36Z</time>
      </trkpt>
      <trkpt lat="45.94645" lon="3.60932">
        <ele>669.4</ele>
        <time>2018-12-23T10:29:40Z</time>
      </trkpt>
      <trkpt lat="45.94647" lon="3.60929">
        <ele>669.7</ele>
        <time>2018-12-23T10:29:44Z</time>
      </trkpt>
      <trkpt lat="45.9465" lon="3.6093">
        <ele>670.1</ele>
        <time>2018-12-23T10:29:51Z</time>
      </trkpt>
      <trkpt lat="45.94653" lon="3.6093">
        <ele>670.5</ele>
        <time>2018-12-23T10:30:01Z</time>
      </trkpt>
      <trkpt lat="45.94656" lon="3.60931">
        <ele>670.9</ele>
        <time>2018-12-23T10:30:05Z</time>
      </trkpt>
      <trkpt lat="45.94661" lon="3.60933">
        <ele>671.5</ele>
        <time>2018-12-23T10:30:59Z</time>
      </trkpt>
      <trkpt lat="45.94664" lon="3.60929">
        <ele>672</ele>
        <time>2018-12-23T10:31:23Z</time>
      </trkpt>
      <trkpt lat="45.94666" lon="3.60934">
        <ele>672.7</ele>
        <time>2018-12-23T10:31:28Z</time>
      </trkpt>
      <trkpt lat="45.94668" lon="3.60937">
        <ele>673.2</ele>
        <time>2018-12-23T10:31:31Z</time>
      </trkpt>
      <trkpt lat="45.94671" lon="3.6094">
        <ele>673.8</ele>
        <time>2018-12-23T10:31:34Z</time>
      </trkpt>
      <trkpt lat="45.94674" lon="3.60943">
        <ele>674.3</ele>
        <time>2018-12-23T10:31:39Z</time>
      </trkpt>
      <trkpt lat="45.94677" lon="3.60945">
        <ele>674.7</ele>
        <time>2018-12-23T10:31:42Z</time>
      </trkpt>
      <trkpt lat="45.9468" lon="3.60948">
        <ele>675.1</ele>
        <time>2018-12-23T10:31:45Z</time>
      </trkpt>
      <trkpt lat="45.94683" lon="3.60952">
        <ele>675.6</ele>
        <time>2018-12-23T10:31:48Z</time>
      </trkpt>
      <trkpt lat="45.94687" lon="3.60953">
        <ele>676</ele>
        <time>2018-12-23T10:31:51Z</time>
      </trkpt>
      <trkpt lat="45.9469" lon="3.60954">
        <ele>676.4</ele>
        <time>2018-12-23T10:31:54Z</time>
      </trkpt>
      <trkpt lat="45.94692" lon="3.60957">
        <ele>676.7</ele>
        <time>2018-12-23T10:31:59Z</time>
      </trkpt>
      <trkpt lat="45.94694" lon="3.6096">
        <ele>677.1</ele>
        <time>2018-12-23T10:32:09Z</time>
      </trkpt>
      <trkpt lat="45.94696" lon="3.60962">
        <ele>677.5</ele>
        <time>2018-12-23T10:32:13Z</time>
      </trkpt>
      <trkpt lat="45.94699" lon="3.60966">
        <ele>677.9</ele>
        <time>2018-12-23T10:32:18Z</time>
      </trkpt>
      <trkpt lat="45.94701" lon="3.60968">
        <ele>678.2</ele>
        <time>2018-12-23T10:32:20Z</time>
      </trkpt>
      <trkpt lat="45.94705" lon="3.6097">
        <ele>678.8</ele>
        <time>2018-12-23T10:32:23Z</time>
      </trkpt>
      <trkpt lat="45.94708" lon="3.60971">
        <ele>679.2</ele>
        <time>2018-12-23T10:32:25Z</time>
      </trkpt>
      <trkpt lat="45.94711" lon="3.60971">
        <ele>679.6</ele>
        <time>2018-12-23T10:32:29Z</time>
      </trkpt>
      <trkpt lat="45.94713" lon="3.60968">
        <ele>680.1</ele>
        <time>2018-12-23T10:32:37Z</time>
      </trkpt>
      <trkpt lat="45.94715" lon="3.6097">
        <ele>680.5</ele>
        <time>2018-12-23T10:32:47Z</time>
      </trkpt>
      <trkpt lat="45.94718" lon="3.60973">
        <ele>680.9</ele>
        <time>2018-12-23T10:32:50Z</time>
      </trkpt>
      <trkpt lat="45.9472" lon="3.60975">
        <ele>681.4</ele>
        <time>2018-12-23T10:32:53Z</time>
      </trkpt>
      <trkpt lat="45.94722" lon="3.60979">
        <ele>681.9</ele>
        <time>2018-12-23T10:32:56Z</time>
      </trkpt>
      <trkpt lat="45.94724" lon="3.60981">
        <ele>682.3</ele>
        <time>2018-12-23T10:32:58Z</time>
      </trkpt>
      <trkpt lat="45.94727" lon="3.60984">
        <ele>682.8</ele>
        <time>2018-12-23T10:33:01Z</time>
      </trkpt>
      <trkpt lat="45.94731" lon="3.60985">
        <ele>683.4</ele>
        <time>2018-12-23T10:33:07Z</time>
      </trkpt>
      <trkpt lat="45.94736" lon="3.60984">
        <ele>684.1</ele>
        <time>2018-12-23T10:33:11Z</time>
      </trkpt>
      <trkpt lat="45.94739" lon="3.60986">
        <ele>684.5</ele>
        <time>2018-12-23T10:33:15Z</time>
      </trkpt>
      <trkpt lat="45.94741" lon="3.60989">
        <ele>685</ele>
        <time>2018-12-23T10:33:18Z</time>
      </trkpt>
      <trkpt lat="45.94743" lon="3.60992">
        <ele>685.3</ele>
        <time>2018-12-23T10:33:21Z</time>
      </trkpt>
      <trkpt lat="45.94746" lon="3.60994">
        <ele>685.9</ele>
        <time>2018-12-23T10:33:24Z</time>
      </trkpt>
      <trkpt lat="45.94749" lon="3.60996">
        <ele>686.4</ele>
        <time>2018-12-23T10:33:26Z</time>
      </trkpt>
      <trkpt lat="45.94752" lon="3.60998">
        <ele>686.9</ele>
        <time>2018-12-23T10:33:28Z</time>
      </trkpt>
      <trkpt lat="45.94755" lon="3.60999">
        <ele>687.4</ele>
        <time>2018-12-23T10:33:31Z</time>
      </trkpt>
      <trkpt lat="45.94758" lon="3.60998">
        <ele>687.6</ele>
        <time>2018-12-23T10:33:34Z</time>
      </trkpt>
      <trkpt lat="45.9476" lon="3.60998">
        <ele>687.9</ele>
        <time>2018-12-23T10:33:36Z</time>
      </trkpt>
      <trkpt lat="45.94763" lon="3.60996">
        <ele>688.2</ele>
        <time>2018-12-23T10:33:40Z</time>
      </trkpt>
      <trkpt lat="45.94767" lon="3.60995">
        <ele>688.6</ele>
        <time>2018-12-23T10:33:43Z</time>
      </trkpt>
      <trkpt lat="45.9477" lon="3.60995">
        <ele>688.9</ele>
        <time>2018-12-23T10:33:47Z</time>
      </trkpt>
      <trkpt lat="45.94773" lon="3.60993">
        <ele>689.2</ele>
        <time>2018-12-23T10:33:50Z</time>
      </trkpt>
      <trkpt lat="45.94776" lon="3.60992">
        <ele>689.4</ele>
        <time>2018-12-23T10:33:52Z</time>
      </trkpt>
      <trkpt lat="45.94779" lon="3.6099">
        <ele>689.7</ele>
        <time>2018-12-23T10:33:55Z</time>
      </trkpt>
      <trkpt lat="45.94781" lon="3.60986">
        <ele>690.1</ele>
        <time>2018-12-23T10:34:00Z</time>
      </trkpt>
      <trkpt lat="45.94782" lon="3.60981">
        <ele>690.5</ele>
        <time>2018-12-23T10:34:04Z</time>
      </trkpt>
      <trkpt lat="45.94784" lon="3.60977">
        <ele>690.9</ele>
        <time>2018-12-23T10:34:07Z</time>
      </trkpt>
      <trkpt lat="45.94787" lon="3.60975">
        <ele>691.2</ele>
        <time>2018-12-23T10:34:10Z</time>
      </trkpt>
      <trkpt lat="45.9479" lon="3.60973">
        <ele>691.5</ele>
        <time>2018-12-23T10:34:13Z</time>
      </trkpt>
      <trkpt lat="45.94793" lon="3.60971">
        <ele>691.9</ele>
        <time>2018-12-23T10:34:16Z</time>
      </trkpt>
      <trkpt lat="45.94795" lon="3.60969">
        <ele>692.3</ele>
        <time>2018-12-23T10:34:19Z</time>
      </trkpt>
      <trkpt lat="45.94799" lon="3.60968">
        <ele>692.7</ele>
        <time>2018-12-23T10:34:22Z</time>
      </trkpt>
      <trkpt lat="45.94802" lon="3.60967">
        <ele>693.1</ele>
        <time>2018-12-23T10:34:26Z</time>
      </trkpt>
      <trkpt lat="45.94804" lon="3.60965">
        <ele>693.5</ele>
        <time>2018-12-23T10:34:29Z</time>
      </trkpt>
      <trkpt lat="45.94808" lon="3.60963">
        <ele>694</ele>
        <time>2018-12-23T10:34:32Z</time>
      </trkpt>
      <trkpt lat="45.9481" lon="3.6096">
        <ele>694.5</ele>
        <time>2018-12-23T10:34:36Z</time>
      </trkpt>
      <trkpt lat="45.94813" lon="3.60957">
        <ele>694.9</ele>
        <time>2018-12-23T10:34:39Z</time>
      </trkpt>
      <trkpt lat="45.94816" lon="3.60953">
        <ele>695.4</ele>
        <time>2018-12-23T10:34:42Z</time>
      </trkpt>
      <trkpt lat="45.94819" lon="3.6095">
        <ele>695.8</ele>
        <time>2018-12-23T10:34:45Z</time>
      </trkpt>
      <trkpt lat="45.94821" lon="3.60948">
        <ele>696.2</ele>
        <time>2018-12-23T10:34:48Z</time>
      </trkpt>
      <trkpt lat="45.94823" lon="3.60945">
        <ele>696.5</ele>
        <time>2018-12-23T10:34:51Z</time>
      </trkpt>
      <trkpt lat="45.94826" lon="3.60943">
        <ele>696.9</ele>
        <time>2018-12-23T10:34:54Z</time>
      </trkpt>
      <trkpt lat="45.94829" lon="3.6094">
        <ele>697.4</ele>
        <time>2018-12-23T10:34:59Z</time>
      </trkpt>
      <trkpt lat="45.94832" lon="3.60938">
        <ele>697.9</ele>
        <time>2018-12-23T10:35:02Z</time>
      </trkpt>
      <trkpt lat="45.94835" lon="3.60936">
        <ele>698.4</ele>
        <time>2018-12-23T10:35:05Z</time>
      </trkpt>
      <trkpt lat="45.94838" lon="3.60935">
        <ele>698.9</ele>
        <time>2018-12-23T10:35:08Z</time>
      </trkpt>
      <trkpt lat="45.94842" lon="3.60934">
        <ele>699.4</ele>
        <time>2018-12-23T10:35:11Z</time>
      </trkpt>
      <trkpt lat="45.94844" lon="3.60933">
        <ele>699.9</ele>
        <time>2018-12-23T10:35:15Z</time>
      </trkpt>
      <trkpt lat="45.94847" lon="3.60931">
        <ele>700.2</ele>
        <time>2018-12-23T10:35:18Z</time>
      </trkpt>
      <trkpt lat="45.94849" lon="3.60929">
        <ele>700.6</ele>
        <time>2018-12-23T10:35:21Z</time>
      </trkpt>
      <trkpt lat="45.94852" lon="3.60928">
        <ele>701.1</ele>
        <time>2018-12-23T10:35:24Z</time>
      </trkpt>
      <trkpt lat="45.94856" lon="3.60925">
        <ele>701.6</ele>
        <time>2018-12-23T10:35:27Z</time>
      </trkpt>
      <trkpt lat="45.94858" lon="3.60923">
        <ele>702</ele>
        <time>2018-12-23T10:35:29Z</time>
      </trkpt>
      <trkpt lat="45.94861" lon="3.60922">
        <ele>702.3</ele>
        <time>2018-12-23T10:35:31Z</time>
      </trkpt>
      <trkpt lat="45.94864" lon="3.60923">
        <ele>702.8</ele>
        <time>2018-12-23T10:35:34Z</time>
      </trkpt>
      <trkpt lat="45.94867" lon="3.60922">
        <ele>703.2</ele>
        <time>2018-12-23T10:35:37Z</time>
      </trkpt>
      <trkpt lat="45.94871" lon="3.60923">
        <ele>703.8</ele>
        <time>2018-12-23T10:35:40Z</time>
      </trkpt>
      <trkpt lat="45.94874" lon="3.60923">
        <ele>704.4</ele>
        <time>2018-12-23T10:35:43Z</time>
      </trkpt>
      <trkpt lat="45.94877" lon="3.60924">
        <ele>704.7</ele>
        <time>2018-12-23T10:35:46Z</time>
      </trkpt>
      <trkpt lat="45.94879" lon="3.60926">
        <ele>704.8</ele>
        <time>2018-12-23T10:35:50Z</time>
      </trkpt>
      <trkpt lat="45.94883" lon="3.60927">
        <ele>705</ele>
        <time>2018-12-23T10:35:53Z</time>
      </trkpt>
      <trkpt lat="45.94884" lon="3.60923">
        <ele>705.1</ele>
        <time>2018-12-23T10:36:00Z</time>
      </trkpt>
      <trkpt lat="45.94887" lon="3.60922">
        <ele>705.2</ele>
        <time>2018-12-23T10:36:09Z</time>
      </trkpt>
      <trkpt lat="45.94886" lon="3.60915">
        <ele>705.5</ele>
        <time>2018-12-23T10:36:17Z</time>
      </trkpt>
      <trkpt lat="45.94888" lon="3.60918">
        <ele>705.6</ele>
        <time>2018-12-23T10:36:34Z</time>
      </trkpt>
      <trkpt lat="45.9489" lon="3.60922">
        <ele>705.7</ele>
        <time>2018-12-23T10:36:38Z</time>
      </trkpt>
      <trkpt lat="45.94892" lon="3.60925">
        <ele>705.9</ele>
        <time>2018-12-23T10:36:42Z</time>
      </trkpt>
      <trkpt lat="45.9489" lon="3.60922">
        <ele>706</ele>
        <time>2018-12-23T10:37:18Z</time>
      </trkpt>
      <trkpt lat="45.94892" lon="3.60919">
        <ele>706.1</ele>
        <time>2018-12-23T10:37:31Z</time>
      </trkpt>
      <trkpt lat="45.94896" lon="3.60918">
        <ele>706.3</ele>
        <time>2018-12-23T10:37:35Z</time>
      </trkpt>
      <trkpt lat="45.949" lon="3.60916">
        <ele>706.5</ele>
        <time>2018-12-23T10:37:37Z</time>
      </trkpt>
      <trkpt lat="45.94903" lon="3.60914">
        <ele>706</ele>
        <time>2018-12-23T10:37:40Z</time>
      </trkpt>
      <trkpt lat="45.94907" lon="3.60913">
        <ele>705.8</ele>
        <time>2018-12-23T10:37:43Z</time>
      </trkpt>
      <trkpt lat="45.94907" lon="3.60909">
        <ele>705.6</ele>
        <time>2018-12-23T10:37:52Z</time>
      </trkpt>
      <trkpt lat="45.94905" lon="3.60904">
        <ele>705.3</ele>
        <time>2018-12-23T10:37:57Z</time>
      </trkpt>
      <trkpt lat="45.94906" lon="3.60899">
        <ele>705</ele>
        <time>2018-12-23T10:38:00Z</time>
      </trkpt>
      <trkpt lat="45.94906" lon="3.60895">
        <ele>704.8</ele>
        <time>2018-12-23T10:38:03Z</time>
      </trkpt>
      <trkpt lat="45.94908" lon="3.60892">
        <ele>704.6</ele>
        <time>2018-12-23T10:38:05Z</time>
      </trkpt>
      <trkpt lat="45.94909" lon="3.60886">
        <ele>704.4</ele>
        <time>2018-12-23T10:38:08Z</time>
      </trkpt>
      <trkpt lat="45.94908" lon="3.60881">
        <ele>704.1</ele>
        <time>2018-12-23T10:38:10Z</time>
      </trkpt>
      <trkpt lat="45.94911" lon="3.60876">
        <ele>703.9</ele>
        <time>2018-12-23T10:38:18Z</time>
      </trkpt>
      <trkpt lat="45.94912" lon="3.60873">
        <ele>703.7</ele>
        <time>2018-12-23T10:38:20Z</time>
      </trkpt>
      <trkpt lat="45.94914" lon="3.60869">
        <ele>703.5</ele>
        <time>2018-12-23T10:38:22Z</time>
      </trkpt>
      <trkpt lat="45.94915" lon="3.60866">
        <ele>703.4</ele>
        <time>2018-12-23T10:38:24Z</time>
      </trkpt>
      <trkpt lat="45.94918" lon="3.60863">
        <ele>703.1</ele>
        <time>2018-12-23T10:38:26Z</time>
      </trkpt>
      <trkpt lat="45.94921" lon="3.60857">
        <ele>702.8</ele>
        <time>2018-12-23T10:38:28Z</time>
      </trkpt>
      <trkpt lat="45.94922" lon="3.60851">
        <ele>702.6</ele>
        <time>2018-12-23T10:38:30Z</time>
      </trkpt>
      <trkpt lat="45.94923" lon="3.60846">
        <ele>702.3</ele>
        <time>2018-12-23T10:38:32Z</time>
      </trkpt>
      <trkpt lat="45.94924" lon="3.60841">
        <ele>702.1</ele>
        <time>2018-12-23T10:38:34Z</time>
      </trkpt>
      <trkpt lat="45.94926" lon="3.60837">
        <ele>701.9</ele>
        <time>2018-12-23T10:38:36Z</time>
      </trkpt>
      <trkpt lat="45.94927" lon="3.60832">
        <ele>701.7</ele>
        <time>2018-12-23T10:38:38Z</time>
      </trkpt>
      <trkpt lat="45.94928" lon="3.60827">
        <ele>701.5</ele>
        <time>2018-12-23T10:38:40Z</time>
      </trkpt>
      <trkpt lat="45.9493" lon="3.60823">
        <ele>701.3</ele>
        <time>2018-12-23T10:38:42Z</time>
      </trkpt>
      <trkpt lat="45.94932" lon="3.60818">
        <ele>701.1</ele>
        <time>2018-12-23T10:38:45Z</time>
      </trkpt>
      <trkpt lat="45.94933" lon="3.60813">
        <ele>700.9</ele>
        <time>2018-12-23T10:38:48Z</time>
      </trkpt>
      <trkpt lat="45.94934" lon="3.60809">
        <ele>700.6</ele>
        <time>2018-12-23T10:38:50Z</time>
      </trkpt>
      <trkpt lat="45.94935" lon="3.60805">
        <ele>700.5</ele>
        <time>2018-12-23T10:38:52Z</time>
      </trkpt>
      <trkpt lat="45.94937" lon="3.60801">
        <ele>700.3</ele>
        <time>2018-12-23T10:38:55Z</time>
      </trkpt>
      <trkpt lat="45.94938" lon="3.60797">
        <ele>700.1</ele>
        <time>2018-12-23T10:38:58Z</time>
      </trkpt>
      <trkpt lat="45.94939" lon="3.60793">
        <ele>699.9</ele>
        <time>2018-12-23T10:39:02Z</time>
      </trkpt>
      <trkpt lat="45.94939" lon="3.60788">
        <ele>699.7</ele>
        <time>2018-12-23T10:39:05Z</time>
      </trkpt>
      <trkpt lat="45.9494" lon="3.60784">
        <ele>699.5</ele>
        <time>2018-12-23T10:39:09Z</time>
      </trkpt>
      <trkpt lat="45.94939" lon="3.6078">
        <ele>699.3</ele>
        <time>2018-12-23T10:39:12Z</time>
      </trkpt>
      <trkpt lat="45.94938" lon="3.60776">
        <ele>699</ele>
        <time>2018-12-23T10:39:15Z</time>
      </trkpt>
      <trkpt lat="45.94937" lon="3.60772">
        <ele>698.8</ele>
        <time>2018-12-23T10:39:52Z</time>
      </trkpt>
      <trkpt lat="45.94935" lon="3.60765">
        <ele>698.5</ele>
        <time>2018-12-23T10:40:20Z</time>
      </trkpt>
      <trkpt lat="45.94933" lon="3.60762">
        <ele>698.4</ele>
        <time>2018-12-23T10:40:34Z</time>
      </trkpt>
      <trkpt lat="45.9493" lon="3.60764">
        <ele>698.3</ele>
        <time>2018-12-23T10:40:38Z</time>
      </trkpt>
      <trkpt lat="45.94929" lon="3.60767">
        <ele>698.1</ele>
        <time>2018-12-23T10:40:40Z</time>
      </trkpt>
      <trkpt lat="45.94927" lon="3.60771">
        <ele>698</ele>
        <time>2018-12-23T10:40:42Z</time>
      </trkpt>
      <trkpt lat="45.94924" lon="3.60773">
        <ele>697.9</ele>
        <time>2018-12-23T10:40:46Z</time>
      </trkpt>
      <trkpt lat="45.94922" lon="3.60776">
        <ele>697.9</ele>
        <time>2018-12-23T10:40:57Z</time>
      </trkpt>
      <trkpt lat="45.94919" lon="3.60778">
        <ele>697.8</ele>
        <time>2018-12-23T10:41:00Z</time>
      </trkpt>
      <trkpt lat="45.94916" lon="3.60779">
        <ele>697.8</ele>
        <time>2018-12-23T10:41:11Z</time>
      </trkpt>
      <trkpt lat="45.94915" lon="3.60775">
        <ele>697.7</ele>
        <time>2018-12-23T10:41:16Z</time>
      </trkpt>
      <trkpt lat="45.94914" lon="3.6077">
        <ele>697.7</ele>
        <time>2018-12-23T10:41:18Z</time>
      </trkpt>
      <trkpt lat="45.94914" lon="3.60765">
        <ele>697.6</ele>
        <time>2018-12-23T10:41:19Z</time>
      </trkpt>
      <trkpt lat="45.94912" lon="3.60758">
        <ele>697.6</ele>
        <time>2018-12-23T10:41:21Z</time>
      </trkpt>
      <trkpt lat="45.94911" lon="3.60754">
        <ele>697.6</ele>
        <time>2018-12-23T10:41:23Z</time>
      </trkpt>
      <trkpt lat="45.94912" lon="3.60758">
        <ele>697.6</ele>
        <time>2018-12-23T10:41:26Z</time>
      </trkpt>
      <trkpt lat="45.94912" lon="3.60763">
        <ele>697.6</ele>
        <time>2018-12-23T10:41:33Z</time>
      </trkpt>
      <trkpt lat="45.9491" lon="3.60767">
        <ele>697.7</ele>
        <time>2018-12-23T10:41:41Z</time>
      </trkpt>
      <trkpt lat="45.94909" lon="3.60772">
        <ele>697.7</ele>
        <time>2018-12-23T10:41:45Z</time>
      </trkpt>
      <trkpt lat="45.94907" lon="3.60775">
        <ele>697.8</ele>
        <time>2018-12-23T10:41:48Z</time>
      </trkpt>
      <trkpt lat="45.94905" lon="3.60778">
        <ele>697.8</ele>
        <time>2018-12-23T10:41:51Z</time>
      </trkpt>
      <trkpt lat="45.94904" lon="3.60783">
        <ele>697.9</ele>
        <time>2018-12-23T10:41:56Z</time>
      </trkpt>
      <trkpt lat="45.94901" lon="3.60785">
        <ele>698</ele>
        <time>2018-12-23T10:42:00Z</time>
      </trkpt>
      <trkpt lat="45.94899" lon="3.60787">
        <ele>698.1</ele>
        <time>2018-12-23T10:42:03Z</time>
      </trkpt>
      <trkpt lat="45.94896" lon="3.60787">
        <ele>698.1</ele>
        <time>2018-12-23T10:42:07Z</time>
      </trkpt>
      <trkpt lat="45.94892" lon="3.60788">
        <ele>698.2</ele>
        <time>2018-12-23T10:42:10Z</time>
      </trkpt>
      <trkpt lat="45.9489" lon="3.60789">
        <ele>698.2</ele>
        <time>2018-12-23T10:42:12Z</time>
      </trkpt>
      <trkpt lat="45.94886" lon="3.60789">
        <ele>698.3</ele>
        <time>2018-12-23T10:42:15Z</time>
      </trkpt>
      <trkpt lat="45.94883" lon="3.60789">
        <ele>698.3</ele>
        <time>2018-12-23T10:42:18Z</time>
      </trkpt>
      <trkpt lat="45.9488" lon="3.60789">
        <ele>698.4</ele>
        <time>2018-12-23T10:42:21Z</time>
      </trkpt>
      <trkpt lat="45.94876" lon="3.60789">
        <ele>698.4</ele>
        <time>2018-12-23T10:42:24Z</time>
      </trkpt>
      <trkpt lat="45.94873" lon="3.60789">
        <ele>698.4</ele>
        <time>2018-12-23T10:42:27Z</time>
      </trkpt>
      <trkpt lat="45.9487" lon="3.60787">
        <ele>698.4</ele>
        <time>2018-12-23T10:42:31Z</time>
      </trkpt>
      <trkpt lat="45.94867" lon="3.60786">
        <ele>698.4</ele>
        <time>2018-12-23T10:42:34Z</time>
      </trkpt>
      <trkpt lat="45.94864" lon="3.60785">
        <ele>698.2</ele>
        <time>2018-12-23T10:42:37Z</time>
      </trkpt>
      <trkpt lat="45.94861" lon="3.60783">
        <ele>698</ele>
        <time>2018-12-23T10:42:40Z</time>
      </trkpt>
      <trkpt lat="45.94858" lon="3.6078">
        <ele>697.7</ele>
        <time>2018-12-23T10:42:43Z</time>
      </trkpt>
      <trkpt lat="45.94855" lon="3.60778">
        <ele>697.5</ele>
        <time>2018-12-23T10:42:46Z</time>
      </trkpt>
      <trkpt lat="45.94852" lon="3.60776">
        <ele>697</ele>
        <time>2018-12-23T10:42:49Z</time>
      </trkpt>
      <trkpt lat="45.9485" lon="3.60774">
        <ele>696.5</ele>
        <time>2018-12-23T10:42:52Z</time>
      </trkpt>
      <trkpt lat="45.94847" lon="3.60773">
        <ele>696</ele>
        <time>2018-12-23T10:42:54Z</time>
      </trkpt>
      <trkpt lat="45.94843" lon="3.60771">
        <ele>695.4</ele>
        <time>2018-12-23T10:42:57Z</time>
      </trkpt>
      <trkpt lat="45.94841" lon="3.60768">
        <ele>695</ele>
        <time>2018-12-23T10:42:59Z</time>
      </trkpt>
      <trkpt lat="45.94838" lon="3.60764">
        <ele>694.3</ele>
        <time>2018-12-23T10:43:02Z</time>
      </trkpt>
      <trkpt lat="45.94837" lon="3.6076">
        <ele>694</ele>
        <time>2018-12-23T10:43:05Z</time>
      </trkpt>
      <trkpt lat="45.94836" lon="3.60755">
        <ele>693.8</ele>
        <time>2018-12-23T10:43:07Z</time>
      </trkpt>
      <trkpt lat="45.94837" lon="3.60751">
        <ele>694.5</ele>
        <time>2018-12-23T10:43:10Z</time>
      </trkpt>
      <trkpt lat="45.94838" lon="3.60747">
        <ele>694.8</ele>
        <time>2018-12-23T10:43:14Z</time>
      </trkpt>
      <trkpt lat="45.94837" lon="3.6075">
        <ele>695</ele>
        <time>2018-12-23T10:44:25Z</time>
      </trkpt>
      <trkpt lat="45.94839" lon="3.60753">
        <ele>695.1</ele>
        <time>2018-12-23T10:44:30Z</time>
      </trkpt>
      <trkpt lat="45.94837" lon="3.60749">
        <ele>695.3</ele>
        <time>2018-12-23T10:44:40Z</time>
      </trkpt>
      <trkpt lat="45.94837" lon="3.60745">
        <ele>695.4</ele>
        <time>2018-12-23T10:44:57Z</time>
      </trkpt>
      <trkpt lat="45.94839" lon="3.60744">
        <ele>695.5</ele>
        <time>2018-12-23T10:45:01Z</time>
      </trkpt>
      <trkpt lat="45.94842" lon="3.60741">
        <ele>695.6</ele>
        <time>2018-12-23T10:45:05Z</time>
      </trkpt>
      <trkpt lat="45.94843" lon="3.60737">
        <ele>695.7</ele>
        <time>2018-12-23T10:45:09Z</time>
      </trkpt>
      <trkpt lat="45.94846" lon="3.60736">
        <ele>695.6</ele>
        <time>2018-12-23T10:45:12Z</time>
      </trkpt>
      <trkpt lat="45.94848" lon="3.60734">
        <ele>695.6</ele>
        <time>2018-12-23T10:45:14Z</time>
      </trkpt>
      <trkpt lat="45.9485" lon="3.60731">
        <ele>695.5</ele>
        <time>2018-12-23T10:45:16Z</time>
      </trkpt>
      <trkpt lat="45.94853" lon="3.60729">
        <ele>695.5</ele>
        <time>2018-12-23T10:45:20Z</time>
      </trkpt>
      <trkpt lat="45.94856" lon="3.60728">
        <ele>695.7</ele>
        <time>2018-12-23T10:45:23Z</time>
      </trkpt>
      <trkpt lat="45.94859" lon="3.60727">
        <ele>695.9</ele>
        <time>2018-12-23T10:45:26Z</time>
      </trkpt>
      <trkpt lat="45.94861" lon="3.60724">
        <ele>696.1</ele>
        <time>2018-12-23T10:45:30Z</time>
      </trkpt>
      <trkpt lat="45.94865" lon="3.60723">
        <ele>696.2</ele>
        <time>2018-12-23T10:45:34Z</time>
      </trkpt>
      <trkpt lat="45.94868" lon="3.60722">
        <ele>696.2</ele>
        <time>2018-12-23T10:45:38Z</time>
      </trkpt>
      <trkpt lat="45.94872" lon="3.60722">
        <ele>696.2</ele>
        <time>2018-12-23T10:45:41Z</time>
      </trkpt>
      <trkpt lat="45.94875" lon="3.60721">
        <ele>696.2</ele>
        <time>2018-12-23T10:45:45Z</time>
      </trkpt>
      <trkpt lat="45.94878" lon="3.60721">
        <ele>696</ele>
        <time>2018-12-23T10:45:49Z</time>
      </trkpt>
      <trkpt lat="45.94881" lon="3.6072">
        <ele>695.9</ele>
        <time>2018-12-23T10:45:52Z</time>
      </trkpt>
      <trkpt lat="45.94884" lon="3.60719">
        <ele>695.8</ele>
        <time>2018-12-23T10:45:56Z</time>
      </trkpt>
      <trkpt lat="45.94887" lon="3.60717">
        <ele>695.9</ele>
        <time>2018-12-23T10:45:59Z</time>
      </trkpt>
      <trkpt lat="45.9489" lon="3.60716">
        <ele>696</ele>
        <time>2018-12-23T10:46:02Z</time>
      </trkpt>
      <trkpt lat="45.94893" lon="3.60715">
        <ele>696.1</ele>
        <time>2018-12-23T10:46:05Z</time>
      </trkpt>
      <trkpt lat="45.94896" lon="3.60713">
        <ele>696.2</ele>
        <time>2018-12-23T10:46:08Z</time>
      </trkpt>
      <trkpt lat="45.94899" lon="3.60712">
        <ele>696.2</ele>
        <time>2018-12-23T10:46:11Z</time>
      </trkpt>
      <trkpt lat="45.94902" lon="3.6071">
        <ele>696.1</ele>
        <time>2018-12-23T10:46:15Z</time>
      </trkpt>
      <trkpt lat="45.94905" lon="3.60708">
        <ele>696.1</ele>
        <time>2018-12-23T10:46:18Z</time>
      </trkpt>
      <trkpt lat="45.94908" lon="3.60707">
        <ele>696.2</ele>
        <time>2018-12-23T10:46:21Z</time>
      </trkpt>
      <trkpt lat="45.94911" lon="3.60706">
        <ele>696.4</ele>
        <time>2018-12-23T10:46:24Z</time>
      </trkpt>
      <trkpt lat="45.94914" lon="3.60704">
        <ele>696.7</ele>
        <time>2018-12-23T10:46:28Z</time>
      </trkpt>
      <trkpt lat="45.94917" lon="3.60701">
        <ele>696.8</ele>
        <time>2018-12-23T10:46:32Z</time>
      </trkpt>
      <trkpt lat="45.94919" lon="3.60699">
        <ele>696.9</ele>
        <time>2018-12-23T10:46:34Z</time>
      </trkpt>
      <trkpt lat="45.94922" lon="3.60697">
        <ele>696.9</ele>
        <time>2018-12-23T10:46:37Z</time>
      </trkpt>
      <trkpt lat="45.94926" lon="3.60694">
        <ele>696.9</ele>
        <time>2018-12-23T10:46:40Z</time>
      </trkpt>
      <trkpt lat="45.94929" lon="3.60694">
        <ele>697</ele>
        <time>2018-12-23T10:46:43Z</time>
      </trkpt>
      <trkpt lat="45.94932" lon="3.60692">
        <ele>697.3</ele>
        <time>2018-12-23T10:46:47Z</time>
      </trkpt>
      <trkpt lat="45.94936" lon="3.6069">
        <ele>697.5</ele>
        <time>2018-12-23T10:46:50Z</time>
      </trkpt>
      <trkpt lat="45.94939" lon="3.60687">
        <ele>697.9</ele>
        <time>2018-12-23T10:46:53Z</time>
      </trkpt>
      <trkpt lat="45.94939" lon="3.60691">
        <ele>698.2</ele>
        <time>2018-12-23T10:47:05Z</time>
      </trkpt>
      <trkpt lat="45.9494" lon="3.60695">
        <ele>698.6</ele>
        <time>2018-12-23T10:47:14Z</time>
      </trkpt>
      <trkpt lat="45.94941" lon="3.607">
        <ele>699</ele>
        <time>2018-12-23T10:47:18Z</time>
      </trkpt>
      <trkpt lat="45.94942" lon="3.60696">
        <ele>699.3</ele>
        <time>2018-12-23T10:47:23Z</time>
      </trkpt>
      <trkpt lat="45.94937" lon="3.60693">
        <ele>699.6</ele>
        <time>2018-12-23T10:47:29Z</time>
      </trkpt>
      <trkpt lat="45.94939" lon="3.60698">
        <ele>699.9</ele>
        <time>2018-12-23T10:47:35Z</time>
      </trkpt>
      <trkpt lat="45.94942" lon="3.60698">
        <ele>700.4</ele>
        <time>2018-12-23T10:47:37Z</time>
      </trkpt>
      <trkpt lat="45.94945" lon="3.60696">
        <ele>700.9</ele>
        <time>2018-12-23T10:47:40Z</time>
      </trkpt>
      <trkpt lat="45.94949" lon="3.60693">
        <ele>701.6</ele>
        <time>2018-12-23T10:47:47Z</time>
      </trkpt>
      <trkpt lat="45.94952" lon="3.60692">
        <ele>702</ele>
        <time>2018-12-23T10:47:50Z</time>
      </trkpt>
      <trkpt lat="45.94955" lon="3.60691">
        <ele>702.3</ele>
        <time>2018-12-23T10:47:52Z</time>
      </trkpt>
      <trkpt lat="45.94957" lon="3.6069">
        <ele>702.7</ele>
        <time>2018-12-23T10:47:54Z</time>
      </trkpt>
      <trkpt lat="45.9496" lon="3.60688">
        <ele>703.1</ele>
        <time>2018-12-23T10:47:56Z</time>
      </trkpt>
      <trkpt lat="45.94964" lon="3.60685">
        <ele>703.7</ele>
        <time>2018-12-23T10:47:59Z</time>
      </trkpt>
      <trkpt lat="45.94967" lon="3.60684">
        <ele>704.3</ele>
        <time>2018-12-23T10:48:02Z</time>
      </trkpt>
      <trkpt lat="45.94971" lon="3.60683">
        <ele>704.9</ele>
        <time>2018-12-23T10:48:04Z</time>
      </trkpt>
      <trkpt lat="45.94975" lon="3.60684">
        <ele>705.6</ele>
        <time>2018-12-23T10:48:07Z</time>
      </trkpt>
      <trkpt lat="45.94977" lon="3.60686">
        <ele>706.1</ele>
        <time>2018-12-23T10:48:09Z</time>
      </trkpt>
      <trkpt lat="45.94982" lon="3.60685">
        <ele>706.7</ele>
        <time>2018-12-23T10:48:12Z</time>
      </trkpt>
      <trkpt lat="45.94984" lon="3.60684">
        <ele>707.2</ele>
        <time>2018-12-23T10:48:15Z</time>
      </trkpt>
      <trkpt lat="45.94988" lon="3.60683">
        <ele>707.8</ele>
        <time>2018-12-23T10:48:19Z</time>
      </trkpt>
      <trkpt lat="45.94991" lon="3.60683">
        <ele>708.3</ele>
        <time>2018-12-23T10:48:23Z</time>
      </trkpt>
      <trkpt lat="45.94995" lon="3.60681">
        <ele>708.9</ele>
        <time>2018-12-23T10:48:26Z</time>
      </trkpt>
      <trkpt lat="45.94997" lon="3.60679">
        <ele>709.3</ele>
        <time>2018-12-23T10:48:29Z</time>
      </trkpt>
      <trkpt lat="45.95" lon="3.60682">
        <ele>709.8</ele>
        <time>2018-12-23T10:48:35Z</time>
      </trkpt>
      <trkpt lat="45.95002" lon="3.60685">
        <ele>710.2</ele>
        <time>2018-12-23T10:48:39Z</time>
      </trkpt>
      <trkpt lat="45.95005" lon="3.60683">
        <ele>710.8</ele>
        <time>2018-12-23T10:49:08Z</time>
      </trkpt>
      <trkpt lat="45.95002" lon="3.60682">
        <ele>711.3</ele>
        <time>2018-12-23T10:49:44Z</time>
      </trkpt>
      <trkpt lat="45.95003" lon="3.60678">
        <ele>711.8</ele>
        <time>2018-12-23T10:49:54Z</time>
      </trkpt>
      <trkpt lat="45.95003" lon="3.60674">
        <ele>712.2</ele>
        <time>2018-12-23T10:49:59Z</time>
      </trkpt>
      <trkpt lat="45.95005" lon="3.60677">
        <ele>712.6</ele>
        <time>2018-12-23T10:50:06Z</time>
      </trkpt>
      <trkpt lat="45.95007" lon="3.6068">
        <ele>712.9</ele>
        <time>2018-12-23T10:50:09Z</time>
      </trkpt>
      <trkpt lat="45.95007" lon="3.60684">
        <ele>713.3</ele>
        <time>2018-12-23T10:50:12Z</time>
      </trkpt>
      <trkpt lat="45.9501" lon="3.60688">
        <ele>713.7</ele>
        <time>2018-12-23T10:50:14Z</time>
      </trkpt>
      <trkpt lat="45.95013" lon="3.6069">
        <ele>713.9</ele>
        <time>2018-12-23T10:50:16Z</time>
      </trkpt>
      <trkpt lat="45.95017" lon="3.60691">
        <ele>714.2</ele>
        <time>2018-12-23T10:50:19Z</time>
      </trkpt>
      <trkpt lat="45.9502" lon="3.6069">
        <ele>714.7</ele>
        <time>2018-12-23T10:50:22Z</time>
      </trkpt>
      <trkpt lat="45.95023" lon="3.6069">
        <ele>715</ele>
        <time>2018-12-23T10:50:25Z</time>
      </trkpt>
      <trkpt lat="45.95026" lon="3.60691">
        <ele>715.4</ele>
        <time>2018-12-23T10:50:29Z</time>
      </trkpt>
      <trkpt lat="45.95029" lon="3.60693">
        <ele>715.8</ele>
        <time>2018-12-23T10:50:32Z</time>
      </trkpt>
      <trkpt lat="45.95032" lon="3.60693">
        <ele>716.1</ele>
        <time>2018-12-23T10:50:36Z</time>
      </trkpt>
      <trkpt lat="45.95036" lon="3.60692">
        <ele>716.4</ele>
        <time>2018-12-23T10:50:38Z</time>
      </trkpt>
      <trkpt lat="45.95038" lon="3.60691">
        <ele>716.6</ele>
        <time>2018-12-23T10:50:40Z</time>
      </trkpt>
      <trkpt lat="45.95041" lon="3.6069">
        <ele>716.7</ele>
        <time>2018-12-23T10:50:42Z</time>
      </trkpt>
      <trkpt lat="45.95045" lon="3.60689">
        <ele>717</ele>
        <time>2018-12-23T10:50:45Z</time>
      </trkpt>
      <trkpt lat="45.95048" lon="3.60691">
        <ele>717.4</ele>
        <time>2018-12-23T10:50:47Z</time>
      </trkpt>
      <trkpt lat="45.9505" lon="3.60694">
        <ele>717.7</ele>
        <time>2018-12-23T10:50:49Z</time>
      </trkpt>
      <trkpt lat="45.95052" lon="3.60697">
        <ele>717.8</ele>
        <time>2018-12-23T10:50:51Z</time>
      </trkpt>
      <trkpt lat="45.95055" lon="3.60699">
        <ele>718.1</ele>
        <time>2018-12-23T10:50:53Z</time>
      </trkpt>
      <trkpt lat="45.95058" lon="3.60702">
        <ele>718.3</ele>
        <time>2018-12-23T10:50:55Z</time>
      </trkpt>
      <trkpt lat="45.95061" lon="3.60705">
        <ele>718.5</ele>
        <time>2018-12-23T10:50:57Z</time>
      </trkpt>
      <trkpt lat="45.95064" lon="3.60709">
        <ele>718.6</ele>
        <time>2018-12-23T10:51:00Z</time>
      </trkpt>
      <trkpt lat="45.95066" lon="3.60713">
        <ele>718.6</ele>
        <time>2018-12-23T10:51:02Z</time>
      </trkpt>
      <trkpt lat="45.95068" lon="3.60715">
        <ele>718.7</ele>
        <time>2018-12-23T10:51:06Z</time>
      </trkpt>
      <trkpt lat="45.95071" lon="3.60715">
        <ele>718.8</ele>
        <time>2018-12-23T10:51:11Z</time>
      </trkpt>
      <trkpt lat="45.95075" lon="3.60716">
        <ele>718.8</ele>
        <time>2018-12-23T10:51:16Z</time>
      </trkpt>
      <trkpt lat="45.95079" lon="3.60717">
        <ele>718.8</ele>
        <time>2018-12-23T10:51:18Z</time>
      </trkpt>
      <trkpt lat="45.95082" lon="3.60716">
        <ele>718.9</ele>
        <time>2018-12-23T10:51:20Z</time>
      </trkpt>
      <trkpt lat="45.95085" lon="3.60715">
        <ele>718.9</ele>
        <time>2018-12-23T10:51:23Z</time>
      </trkpt>
      <trkpt lat="45.95088" lon="3.60714">
        <ele>718.9</ele>
        <time>2018-12-23T10:51:26Z</time>
      </trkpt>
      <trkpt lat="45.95091" lon="3.60715">
        <ele>718.9</ele>
        <time>2018-12-23T10:51:29Z</time>
      </trkpt>
      <trkpt lat="45.95094" lon="3.60717">
        <ele>719</ele>
        <time>2018-12-23T10:51:31Z</time>
      </trkpt>
      <trkpt lat="45.95097" lon="3.60719">
        <ele>718.9</ele>
        <time>2018-12-23T10:51:34Z</time>
      </trkpt>
      <trkpt lat="45.951" lon="3.60721">
        <ele>719</ele>
        <time>2018-12-23T10:51:39Z</time>
      </trkpt>
      <trkpt lat="45.95102" lon="3.60723">
        <ele>719</ele>
        <time>2018-12-23T10:51:45Z</time>
      </trkpt>
      <trkpt lat="45.95105" lon="3.60725">
        <ele>719</ele>
        <time>2018-12-23T10:51:53Z</time>
      </trkpt>
      <trkpt lat="45.95107" lon="3.60728">
        <ele>719.2</ele>
        <time>2018-12-23T10:52:00Z</time>
      </trkpt>
      <trkpt lat="45.9511" lon="3.60731">
        <ele>719.5</ele>
        <time>2018-12-23T10:52:02Z</time>
      </trkpt>
      <trkpt lat="45.95113" lon="3.60733">
        <ele>719.7</ele>
        <time>2018-12-23T10:52:06Z</time>
      </trkpt>
      <trkpt lat="45.95116" lon="3.60732">
        <ele>719.9</ele>
        <time>2018-12-23T10:52:11Z</time>
      </trkpt>
      <trkpt lat="45.95119" lon="3.60733">
        <ele>720.1</ele>
        <time>2018-12-23T10:52:15Z</time>
      </trkpt>
      <trkpt lat="45.95122" lon="3.60736">
        <ele>720.7</ele>
        <time>2018-12-23T10:52:18Z</time>
      </trkpt>
      <trkpt lat="45.95125" lon="3.60738">
        <ele>721.3</ele>
        <time>2018-12-23T10:52:22Z</time>
      </trkpt>
      <trkpt lat="45.95128" lon="3.60739">
        <ele>721.7</ele>
        <time>2018-12-23T10:52:26Z</time>
      </trkpt>
      <trkpt lat="45.95131" lon="3.60741">
        <ele>722.1</ele>
        <time>2018-12-23T10:52:32Z</time>
      </trkpt>
      <trkpt lat="45.95135" lon="3.60741">
        <ele>722.6</ele>
        <time>2018-12-23T10:52:34Z</time>
      </trkpt>
      <trkpt lat="45.95139" lon="3.60743">
        <ele>723.7</ele>
        <time>2018-12-23T10:52:36Z</time>
      </trkpt>
      <trkpt lat="45.95142" lon="3.60746">
        <ele>723.7</ele>
        <time>2018-12-23T10:52:38Z</time>
      </trkpt>
      <trkpt lat="45.95141" lon="3.60753">
        <ele>723.7</ele>
        <time>2018-12-23T10:52:40Z</time>
      </trkpt>
      <trkpt lat="45.95141" lon="3.60757">
        <ele>723.7</ele>
        <time>2018-12-23T10:52:42Z</time>
      </trkpt>
      <trkpt lat="45.95144" lon="3.60758">
        <ele>724.2</ele>
        <time>2018-12-23T10:52:44Z</time>
      </trkpt>
      <trkpt lat="45.95147" lon="3.60759">
        <ele>724.7</ele>
        <time>2018-12-23T10:52:47Z</time>
      </trkpt>
      <trkpt lat="45.9515" lon="3.6076">
        <ele>725.3</ele>
        <time>2018-12-23T10:52:49Z</time>
      </trkpt>
      <trkpt lat="45.95153" lon="3.60758">
        <ele>725.9</ele>
        <time>2018-12-23T10:52:52Z</time>
      </trkpt>
      <trkpt lat="45.95156" lon="3.60756">
        <ele>726.3</ele>
        <time>2018-12-23T10:52:53Z</time>
      </trkpt>
      <trkpt lat="45.95153" lon="3.60756">
        <ele>726.7</ele>
        <time>2018-12-23T10:52:56Z</time>
      </trkpt>
      <trkpt lat="45.9515" lon="3.60758">
        <ele>727</ele>
        <time>2018-12-23T10:52:58Z</time>
      </trkpt>
      <trkpt lat="45.95147" lon="3.60757">
        <ele>727.3</ele>
        <time>2018-12-23T10:53:01Z</time>
      </trkpt>
      <trkpt lat="45.95145" lon="3.6076">
        <ele>727.7</ele>
        <time>2018-12-23T10:53:05Z</time>
      </trkpt>
      <trkpt lat="45.95142" lon="3.60762">
        <ele>728</ele>
        <time>2018-12-23T10:53:08Z</time>
      </trkpt>
      <trkpt lat="45.95141" lon="3.60767">
        <ele>728.4</ele>
        <time>2018-12-23T10:53:12Z</time>
      </trkpt>
      <trkpt lat="45.95143" lon="3.60771">
        <ele>728.7</ele>
        <time>2018-12-23T10:53:19Z</time>
      </trkpt>
      <trkpt lat="45.95145" lon="3.60774">
        <ele>729.1</ele>
        <time>2018-12-23T10:53:39Z</time>
      </trkpt>
      <trkpt lat="45.95148" lon="3.60776">
        <ele>729.4</ele>
        <time>2018-12-23T10:53:43Z</time>
      </trkpt>
      <trkpt lat="45.95146" lon="3.60778">
        <ele>729.8</ele>
        <time>2018-12-23T10:53:56Z</time>
      </trkpt>
      <trkpt lat="45.95144" lon="3.60782">
        <ele>730.1</ele>
        <time>2018-12-23T10:53:58Z</time>
      </trkpt>
      <trkpt lat="45.95147" lon="3.6078">
        <ele>730.4</ele>
        <time>2018-12-23T10:54:07Z</time>
      </trkpt>
      <trkpt lat="45.95146" lon="3.60776">
        <ele>730.8</ele>
        <time>2018-12-23T10:54:18Z</time>
      </trkpt>
      <trkpt lat="45.95148" lon="3.60773">
        <ele>731.1</ele>
        <time>2018-12-23T10:54:25Z</time>
      </trkpt>
      <trkpt lat="45.95148" lon="3.60768">
        <ele>731.5</ele>
        <time>2018-12-23T10:55:26Z</time>
      </trkpt>
      <trkpt lat="45.95151" lon="3.60772">
        <ele>731.9</ele>
        <time>2018-12-23T10:55:45Z</time>
      </trkpt>
      <trkpt lat="45.9515" lon="3.60768">
        <ele>732.2</ele>
        <time>2018-12-23T10:55:58Z</time>
      </trkpt>
      <trkpt lat="45.95148" lon="3.60764">
        <ele>732.5</ele>
        <time>2018-12-23T10:56:02Z</time>
      </trkpt>
      <trkpt lat="45.95146" lon="3.60761">
        <ele>732.8</ele>
        <time>2018-12-23T10:56:04Z</time>
      </trkpt>
      <trkpt lat="45.95143" lon="3.60758">
        <ele>733.2</ele>
        <time>2018-12-23T10:56:07Z</time>
      </trkpt>
      <trkpt lat="45.9514" lon="3.60755">
        <ele>733.4</ele>
        <time>2018-12-23T10:56:10Z</time>
      </trkpt>
      <trkpt lat="45.95138" lon="3.60752">
        <ele>733.7</ele>
        <time>2018-12-23T10:56:15Z</time>
      </trkpt>
      <trkpt lat="45.95136" lon="3.60748">
        <ele>733.9</ele>
        <time>2018-12-23T10:56:18Z</time>
      </trkpt>
      <trkpt lat="45.95139" lon="3.60751">
        <ele>734.1</ele>
        <time>2018-12-23T10:56:27Z</time>
      </trkpt>
      <trkpt lat="45.95141" lon="3.60755">
        <ele>734.3</ele>
        <time>2018-12-23T10:56:30Z</time>
      </trkpt>
      <trkpt lat="45.95143" lon="3.60758">
        <ele>734.5</ele>
        <time>2018-12-23T10:56:33Z</time>
      </trkpt>
      <trkpt lat="45.95146" lon="3.60759">
        <ele>734.7</ele>
        <time>2018-12-23T10:56:45Z</time>
      </trkpt>
      <trkpt lat="45.95143" lon="3.60762">
        <ele>734.9</ele>
        <time>2018-12-23T10:57:11Z</time>
      </trkpt>
      <trkpt lat="45.9514" lon="3.60765">
        <ele>735</ele>
        <time>2018-12-23T10:57:14Z</time>
      </trkpt>
      <trkpt lat="45.95138" lon="3.6077">
        <ele>735.1</ele>
        <time>2018-12-23T10:57:17Z</time>
      </trkpt>
      <trkpt lat="45.95139" lon="3.60774">
        <ele>735.2</ele>
        <time>2018-12-23T10:57:19Z</time>
      </trkpt>
      <trkpt lat="45.95142" lon="3.60777">
        <ele>735.2</ele>
        <time>2018-12-23T10:57:21Z</time>
      </trkpt>
      <trkpt lat="45.95145" lon="3.60779">
        <ele>735.2</ele>
        <time>2018-12-23T10:57:24Z</time>
      </trkpt>
      <trkpt lat="45.95148" lon="3.60779">
        <ele>735.2</ele>
        <time>2018-12-23T10:57:33Z</time>
      </trkpt>
      <trkpt lat="45.9515" lon="3.60782">
        <ele>735.2</ele>
        <time>2018-12-23T10:58:14Z</time>
      </trkpt>
      <trkpt lat="45.95152" lon="3.60785">
        <ele>735.2</ele>
        <time>2018-12-23T10:59:07Z</time>
      </trkpt>
      <trkpt lat="45.95153" lon="3.60789">
        <ele>735.3</ele>
        <time>2018-12-23T10:59:11Z</time>
      </trkpt>
      <trkpt lat="45.95154" lon="3.60792">
        <ele>735.3</ele>
        <time>2018-12-23T10:59:14Z</time>
      </trkpt>
      <trkpt lat="45.95155" lon="3.60796">
        <ele>735.4</ele>
        <time>2018-12-23T10:59:18Z</time>
      </trkpt>
      <trkpt lat="45.95159" lon="3.60798">
        <ele>735.3</ele>
        <time>2018-12-23T10:59:24Z</time>
      </trkpt>
      <trkpt lat="45.95161" lon="3.608">
        <ele>735.2</ele>
        <time>2018-12-23T10:59:27Z</time>
      </trkpt>
      <trkpt lat="45.95165" lon="3.608">
        <ele>735.1</ele>
        <time>2018-12-23T10:59:33Z</time>
      </trkpt>
      <trkpt lat="45.95168" lon="3.60805">
        <ele>735</ele>
        <time>2018-12-23T10:59:39Z</time>
      </trkpt>
      <trkpt lat="45.9517" lon="3.60807">
        <ele>734.8</ele>
        <time>2018-12-23T10:59:41Z</time>
      </trkpt>
      <trkpt lat="45.95173" lon="3.6081">
        <ele>734.7</ele>
        <time>2018-12-23T10:59:44Z</time>
      </trkpt>
      <trkpt lat="45.95175" lon="3.60813">
        <ele>734.5</ele>
        <time>2018-12-23T10:59:47Z</time>
      </trkpt>
      <trkpt lat="45.95178" lon="3.60816">
        <ele>734.4</ele>
        <time>2018-12-23T10:59:50Z</time>
      </trkpt>
      <trkpt lat="45.9518" lon="3.60819">
        <ele>734.1</ele>
        <time>2018-12-23T10:59:53Z</time>
      </trkpt>
      <trkpt lat="45.95182" lon="3.60823">
        <ele>733.8</ele>
        <time>2018-12-23T10:59:56Z</time>
      </trkpt>
      <trkpt lat="45.95184" lon="3.60828">
        <ele>733.6</ele>
        <time>2018-12-23T10:59:59Z</time>
      </trkpt>
      <trkpt lat="45.95186" lon="3.60832">
        <ele>733.3</ele>
        <time>2018-12-23T11:00:02Z</time>
      </trkpt>
      <trkpt lat="45.95187" lon="3.60836">
        <ele>733.1</ele>
        <time>2018-12-23T11:00:05Z</time>
      </trkpt>
      <trkpt lat="45.95189" lon="3.6084">
        <ele>732.9</ele>
        <time>2018-12-23T11:00:08Z</time>
      </trkpt>
      <trkpt lat="45.95191" lon="3.60845">
        <ele>732.7</ele>
        <time>2018-12-23T11:00:11Z</time>
      </trkpt>
      <trkpt lat="45.95193" lon="3.60848">
        <ele>732.5</ele>
        <time>2018-12-23T11:00:14Z</time>
      </trkpt>
      <trkpt lat="45.95195" lon="3.60852">
        <ele>732.3</ele>
        <time>2018-12-23T11:00:17Z</time>
      </trkpt>
      <trkpt lat="45.95196" lon="3.60855">
        <ele>732.1</ele>
        <time>2018-12-23T11:00:20Z</time>
      </trkpt>
      <trkpt lat="45.95198" lon="3.6086">
        <ele>731.9</ele>
        <time>2018-12-23T11:00:24Z</time>
      </trkpt>
      <trkpt lat="45.952" lon="3.60864">
        <ele>731.7</ele>
        <time>2018-12-23T11:00:28Z</time>
      </trkpt>
      <trkpt lat="45.95201" lon="3.60868">
        <ele>731.5</ele>
        <time>2018-12-23T11:00:31Z</time>
      </trkpt>
      <trkpt lat="45.95203" lon="3.60872">
        <ele>731.3</ele>
        <time>2018-12-23T11:00:35Z</time>
      </trkpt>
      <trkpt lat="45.95206" lon="3.60875">
        <ele>731.1</ele>
        <time>2018-12-23T11:00:38Z</time>
      </trkpt>
      <trkpt lat="45.95209" lon="3.60878">
        <ele>730.9</ele>
        <time>2018-12-23T11:00:42Z</time>
      </trkpt>
      <trkpt lat="45.95211" lon="3.60882">
        <ele>730.8</ele>
        <time>2018-12-23T11:00:45Z</time>
      </trkpt>
      <trkpt lat="45.95212" lon="3.60886">
        <ele>730.6</ele>
        <time>2018-12-23T11:00:48Z</time>
      </trkpt>
      <trkpt lat="45.95211" lon="3.6089">
        <ele>730.5</ele>
        <time>2018-12-23T11:00:50Z</time>
      </trkpt>
      <trkpt lat="45.95211" lon="3.60894">
        <ele>730.3</ele>
        <time>2018-12-23T11:00:53Z</time>
      </trkpt>
      <trkpt lat="45.95213" lon="3.60898">
        <ele>730.1</ele>
        <time>2018-12-23T11:00:57Z</time>
      </trkpt>
      <trkpt lat="45.95215" lon="3.60901">
        <ele>730</ele>
        <time>2018-12-23T11:01:00Z</time>
      </trkpt>
      <trkpt lat="45.95217" lon="3.60904">
        <ele>729.8</ele>
        <time>2018-12-23T11:01:02Z</time>
      </trkpt>
      <trkpt lat="45.95219" lon="3.60907">
        <ele>729.6</ele>
        <time>2018-12-23T11:01:04Z</time>
      </trkpt>
      <trkpt lat="45.95221" lon="3.60911">
        <ele>729.4</ele>
        <time>2018-12-23T11:01:07Z</time>
      </trkpt>
      <trkpt lat="45.95222" lon="3.60915">
        <ele>729.2</ele>
        <time>2018-12-23T11:01:10Z</time>
      </trkpt>
      <trkpt lat="45.95224" lon="3.60917">
        <ele>729</ele>
        <time>2018-12-23T11:01:13Z</time>
      </trkpt>
      <trkpt lat="45.95227" lon="3.60919">
        <ele>728.7</ele>
        <time>2018-12-23T11:01:16Z</time>
      </trkpt>
      <trkpt lat="45.9523" lon="3.60922">
        <ele>728.4</ele>
        <time>2018-12-23T11:01:19Z</time>
      </trkpt>
      <trkpt lat="45.95234" lon="3.60923">
        <ele>728</ele>
        <time>2018-12-23T11:01:22Z</time>
      </trkpt>
      <trkpt lat="45.95237" lon="3.60926">
        <ele>727.7</ele>
        <time>2018-12-23T11:01:25Z</time>
      </trkpt>
      <trkpt lat="45.9524" lon="3.6093">
        <ele>727.5</ele>
        <time>2018-12-23T11:01:28Z</time>
      </trkpt>
      <trkpt lat="45.95243" lon="3.60932">
        <ele>727.3</ele>
        <time>2018-12-23T11:01:30Z</time>
      </trkpt>
      <trkpt lat="45.95246" lon="3.60936">
        <ele>727.1</ele>
        <time>2018-12-23T11:01:33Z</time>
      </trkpt>
      <trkpt lat="45.95248" lon="3.60938">
        <ele>726.9</ele>
        <time>2018-12-23T11:01:35Z</time>
      </trkpt>
      <trkpt lat="45.9525" lon="3.60941">
        <ele>726.8</ele>
        <time>2018-12-23T11:01:38Z</time>
      </trkpt>
      <trkpt lat="45.95253" lon="3.60946">
        <ele>726.6</ele>
        <time>2018-12-23T11:01:41Z</time>
      </trkpt>
      <trkpt lat="45.95255" lon="3.60949">
        <ele>726.4</ele>
        <time>2018-12-23T11:01:44Z</time>
      </trkpt>
      <trkpt lat="45.95256" lon="3.60952">
        <ele>726.4</ele>
        <time>2018-12-23T11:01:46Z</time>
      </trkpt>
      <trkpt lat="45.95258" lon="3.60955">
        <ele>726.3</ele>
        <time>2018-12-23T11:01:49Z</time>
      </trkpt>
      <trkpt lat="45.95259" lon="3.60961">
        <ele>726.2</ele>
        <time>2018-12-23T11:01:52Z</time>
      </trkpt>
      <trkpt lat="45.95261" lon="3.60965">
        <ele>726.1</ele>
        <time>2018-12-23T11:01:55Z</time>
      </trkpt>
      <trkpt lat="45.95263" lon="3.6097">
        <ele>726.1</ele>
        <time>2018-12-23T11:01:58Z</time>
      </trkpt>
      <trkpt lat="45.95263" lon="3.60974">
        <ele>726.1</ele>
        <time>2018-12-23T11:02:00Z</time>
      </trkpt>
      <trkpt lat="45.95261" lon="3.60978">
        <ele>726.1</ele>
        <time>2018-12-23T11:02:06Z</time>
      </trkpt>
      <trkpt lat="45.95259" lon="3.6098">
        <ele>726</ele>
        <time>2018-12-23T11:02:14Z</time>
      </trkpt>
      <trkpt lat="45.95259" lon="3.60986">
        <ele>726</ele>
        <time>2018-12-23T11:02:19Z</time>
      </trkpt>
      <trkpt lat="45.95261" lon="3.60988">
        <ele>725.9</ele>
        <time>2018-12-23T11:02:26Z</time>
      </trkpt>
      <trkpt lat="45.95263" lon="3.60991">
        <ele>725.8</ele>
        <time>2018-12-23T11:02:34Z</time>
      </trkpt>
      <trkpt lat="45.95263" lon="3.60996">
        <ele>725.4</ele>
        <time>2018-12-23T11:02:39Z</time>
      </trkpt>
      <trkpt lat="45.95264" lon="3.61001">
        <ele>725.3</ele>
        <time>2018-12-23T11:02:45Z</time>
      </trkpt>
      <trkpt lat="45.95264" lon="3.61005">
        <ele>725.2</ele>
        <time>2018-12-23T11:02:49Z</time>
      </trkpt>
      <trkpt lat="45.95262" lon="3.61009">
        <ele>725.1</ele>
        <time>2018-12-23T11:02:53Z</time>
      </trkpt>
      <trkpt lat="45.9526" lon="3.61012">
        <ele>725.1</ele>
        <time>2018-12-23T11:02:56Z</time>
      </trkpt>
      <trkpt lat="45.95257" lon="3.61014">
        <ele>725</ele>
        <time>2018-12-23T11:03:05Z</time>
      </trkpt>
      <trkpt lat="45.95254" lon="3.61014">
        <ele>724.8</ele>
        <time>2018-12-23T11:03:11Z</time>
      </trkpt>
      <trkpt lat="45.95251" lon="3.61011">
        <ele>724.7</ele>
        <time>2018-12-23T11:03:18Z</time>
      </trkpt>
      <trkpt lat="45.95247" lon="3.6101">
        <ele>724.7</ele>
        <time>2018-12-23T11:03:24Z</time>
      </trkpt>
      <trkpt lat="45.95245" lon="3.61007">
        <ele>724.7</ele>
        <time>2018-12-23T11:03:29Z</time>
      </trkpt>
      <trkpt lat="45.95242" lon="3.61005">
        <ele>724.8</ele>
        <time>2018-12-23T11:03:33Z</time>
      </trkpt>
      <trkpt lat="45.95239" lon="3.61006">
        <ele>724.8</ele>
        <time>2018-12-23T11:03:36Z</time>
      </trkpt>
      <trkpt lat="45.95236" lon="3.61005">
        <ele>725</ele>
        <time>2018-12-23T11:03:40Z</time>
      </trkpt>
      <trkpt lat="45.95232" lon="3.61006">
        <ele>725.1</ele>
        <time>2018-12-23T11:03:44Z</time>
      </trkpt>
      <trkpt lat="45.95229" lon="3.61006">
        <ele>725.2</ele>
        <time>2018-12-23T11:03:47Z</time>
      </trkpt>
      <trkpt lat="45.95226" lon="3.61007">
        <ele>725.3</ele>
        <time>2018-12-23T11:03:50Z</time>
      </trkpt>
      <trkpt lat="45.95223" lon="3.61008">
        <ele>725.4</ele>
        <time>2018-12-23T11:03:53Z</time>
      </trkpt>
      <trkpt lat="45.9522" lon="3.6101">
        <ele>725.6</ele>
        <time>2018-12-23T11:03:56Z</time>
      </trkpt>
      <trkpt lat="45.95217" lon="3.61011">
        <ele>725.8</ele>
        <time>2018-12-23T11:03:59Z</time>
      </trkpt>
      <trkpt lat="45.95214" lon="3.61012">
        <ele>726</ele>
        <time>2018-12-23T11:04:02Z</time>
      </trkpt>
      <trkpt lat="45.95211" lon="3.61012">
        <ele>726.2</ele>
        <time>2018-12-23T11:04:05Z</time>
      </trkpt>
      <trkpt lat="45.95208" lon="3.61014">
        <ele>726.4</ele>
        <time>2018-12-23T11:04:10Z</time>
      </trkpt>
      <trkpt lat="45.95206" lon="3.61014">
        <ele>726.7</ele>
        <time>2018-12-23T11:04:14Z</time>
      </trkpt>
      <trkpt lat="45.95203" lon="3.61014">
        <ele>726.8</ele>
        <time>2018-12-23T11:04:17Z</time>
      </trkpt>
      <trkpt lat="45.952" lon="3.61012">
        <ele>727</ele>
        <time>2018-12-23T11:04:20Z</time>
      </trkpt>
      <trkpt lat="45.95197" lon="3.61011">
        <ele>727.1</ele>
        <time>2018-12-23T11:04:24Z</time>
      </trkpt>
      <trkpt lat="45.95194" lon="3.6101">
        <ele>727.4</ele>
        <time>2018-12-23T11:04:28Z</time>
      </trkpt>
      <trkpt lat="45.95191" lon="3.61009">
        <ele>727.6</ele>
        <time>2018-12-23T11:04:31Z</time>
      </trkpt>
      <trkpt lat="45.95188" lon="3.61009">
        <ele>727.8</ele>
        <time>2018-12-23T11:04:34Z</time>
      </trkpt>
      <trkpt lat="45.95186" lon="3.61011">
        <ele>727.9</ele>
        <time>2018-12-23T11:04:37Z</time>
      </trkpt>
      <trkpt lat="45.95182" lon="3.61013">
        <ele>728</ele>
        <time>2018-12-23T11:04:40Z</time>
      </trkpt>
      <trkpt lat="45.9518" lon="3.61016">
        <ele>728.1</ele>
        <time>2018-12-23T11:04:43Z</time>
      </trkpt>
      <trkpt lat="45.95178" lon="3.61017">
        <ele>728.2</ele>
        <time>2018-12-23T11:04:46Z</time>
      </trkpt>
      <trkpt lat="45.95174" lon="3.61016">
        <ele>728.4</ele>
        <time>2018-12-23T11:04:49Z</time>
      </trkpt>
      <trkpt lat="45.95171" lon="3.61016">
        <ele>728.5</ele>
        <time>2018-12-23T11:04:52Z</time>
      </trkpt>
      <trkpt lat="45.95167" lon="3.61017">
        <ele>728.6</ele>
        <time>2018-12-23T11:04:55Z</time>
      </trkpt>
      <trkpt lat="45.95164" lon="3.61019">
        <ele>728.8</ele>
        <time>2018-12-23T11:04:58Z</time>
      </trkpt>
      <trkpt lat="45.9516" lon="3.6102">
        <ele>729</ele>
        <time>2018-12-23T11:05:01Z</time>
      </trkpt>
      <trkpt lat="45.95157" lon="3.61021">
        <ele>729.3</ele>
        <time>2018-12-23T11:05:04Z</time>
      </trkpt>
      <trkpt lat="45.95154" lon="3.61025">
        <ele>729.7</ele>
        <time>2018-12-23T11:05:07Z</time>
      </trkpt>
      <trkpt lat="45.95151" lon="3.61026">
        <ele>729.9</ele>
        <time>2018-12-23T11:05:11Z</time>
      </trkpt>
      <trkpt lat="45.95149" lon="3.6103">
        <ele>730.2</ele>
        <time>2018-12-23T11:05:15Z</time>
      </trkpt>
      <trkpt lat="45.95147" lon="3.61034">
        <ele>730.6</ele>
        <time>2018-12-23T11:05:18Z</time>
      </trkpt>
      <trkpt lat="45.95145" lon="3.61037">
        <ele>731</ele>
        <time>2018-12-23T11:05:22Z</time>
      </trkpt>
      <trkpt lat="45.95142" lon="3.61039">
        <ele>731.4</ele>
        <time>2018-12-23T11:05:27Z</time>
      </trkpt>
      <trkpt lat="45.9514" lon="3.61042">
        <ele>731.9</ele>
        <time>2018-12-23T11:05:33Z</time>
      </trkpt>
      <trkpt lat="45.95138" lon="3.61046">
        <ele>732.3</ele>
        <time>2018-12-23T11:05:37Z</time>
      </trkpt>
      <trkpt lat="45.95136" lon="3.61049">
        <ele>732.8</ele>
        <time>2018-12-23T11:05:42Z</time>
      </trkpt>
      <trkpt lat="45.95133" lon="3.61052">
        <ele>733.2</ele>
        <time>2018-12-23T11:05:45Z</time>
      </trkpt>
      <trkpt lat="45.95131" lon="3.61055">
        <ele>733.7</ele>
        <time>2018-12-23T11:05:50Z</time>
      </trkpt>
      <trkpt lat="45.95129" lon="3.61058">
        <ele>734</ele>
        <time>2018-12-23T11:05:53Z</time>
      </trkpt>
      <trkpt lat="45.95128" lon="3.61062">
        <ele>734.3</ele>
        <time>2018-12-23T11:05:55Z</time>
      </trkpt>
      <trkpt lat="45.95125" lon="3.61065">
        <ele>734.7</ele>
        <time>2018-12-23T11:05:59Z</time>
      </trkpt>
      <trkpt lat="45.95123" lon="3.61068">
        <ele>735.3</ele>
        <time>2018-12-23T11:06:07Z</time>
      </trkpt>
      <trkpt lat="45.95121" lon="3.6107">
        <ele>735.9</ele>
        <time>2018-12-23T11:06:13Z</time>
      </trkpt>
      <trkpt lat="45.95118" lon="3.61072">
        <ele>736.4</ele>
        <time>2018-12-23T11:06:17Z</time>
      </trkpt>
      <trkpt lat="45.95116" lon="3.61075">
        <ele>737.1</ele>
        <time>2018-12-23T11:06:22Z</time>
      </trkpt>
      <trkpt lat="45.95114" lon="3.61078">
        <ele>737.7</ele>
        <time>2018-12-23T11:06:27Z</time>
      </trkpt>
      <trkpt lat="45.95111" lon="3.6108">
        <ele>738.2</ele>
        <time>2018-12-23T11:06:33Z</time>
      </trkpt>
      <trkpt lat="45.95109" lon="3.61084">
        <ele>738.9</ele>
        <time>2018-12-23T11:06:41Z</time>
      </trkpt>
      <trkpt lat="45.95108" lon="3.61088">
        <ele>739.5</ele>
        <time>2018-12-23T11:06:47Z</time>
      </trkpt>
      <trkpt lat="45.95107" lon="3.61092">
        <ele>740</ele>
        <time>2018-12-23T11:06:52Z</time>
      </trkpt>
      <trkpt lat="45.95105" lon="3.61095">
        <ele>740.6</ele>
        <time>2018-12-23T11:06:56Z</time>
      </trkpt>
      <trkpt lat="45.95102" lon="3.61096">
        <ele>741.1</ele>
        <time>2018-12-23T11:07:12Z</time>
      </trkpt>
      <trkpt lat="45.95102" lon="3.611">
        <ele>741.7</ele>
        <time>2018-12-23T11:07:17Z</time>
      </trkpt>
      <trkpt lat="45.951" lon="3.61104">
        <ele>742.2</ele>
        <time>2018-12-23T11:07:22Z</time>
      </trkpt>
      <trkpt lat="45.95101" lon="3.61109">
        <ele>743.3</ele>
        <time>2018-12-23T11:07:28Z</time>
      </trkpt>
      <trkpt lat="45.95098" lon="3.61112">
        <ele>744.4</ele>
        <time>2018-12-23T11:07:34Z</time>
      </trkpt>
      <trkpt lat="45.95096" lon="3.61115">
        <ele>744.9</ele>
        <time>2018-12-23T11:07:37Z</time>
      </trkpt>
      <trkpt lat="45.95093" lon="3.61118">
        <ele>745.4</ele>
        <time>2018-12-23T11:07:44Z</time>
      </trkpt>
      <trkpt lat="45.95091" lon="3.6112">
        <ele>745.9</ele>
        <time>2018-12-23T11:07:48Z</time>
      </trkpt>
      <trkpt lat="45.95089" lon="3.61125">
        <ele>746.4</ele>
        <time>2018-12-23T11:07:58Z</time>
      </trkpt>
      <trkpt lat="45.95088" lon="3.61128">
        <ele>746.8</ele>
        <time>2018-12-23T11:08:02Z</time>
      </trkpt>
      <trkpt lat="45.95086" lon="3.61132">
        <ele>747.3</ele>
        <time>2018-12-23T11:08:06Z</time>
      </trkpt>
      <trkpt lat="45.95085" lon="3.61136">
        <ele>747.6</ele>
        <time>2018-12-23T11:08:11Z</time>
      </trkpt>
      <trkpt lat="45.95083" lon="3.6114">
        <ele>748</ele>
        <time>2018-12-23T11:08:16Z</time>
      </trkpt>
      <trkpt lat="45.95082" lon="3.61144">
        <ele>748.6</ele>
        <time>2018-12-23T11:08:21Z</time>
      </trkpt>
      <trkpt lat="45.95081" lon="3.61148">
        <ele>749.2</ele>
        <time>2018-12-23T11:08:25Z</time>
      </trkpt>
      <trkpt lat="45.95081" lon="3.61153">
        <ele>749.8</ele>
        <time>2018-12-23T11:08:31Z</time>
      </trkpt>
      <trkpt lat="45.9508" lon="3.61157">
        <ele>750.2</ele>
        <time>2018-12-23T11:08:35Z</time>
      </trkpt>
      <trkpt lat="45.95078" lon="3.61161">
        <ele>750.9</ele>
        <time>2018-12-23T11:08:41Z</time>
      </trkpt>
      <trkpt lat="45.95078" lon="3.61166">
        <ele>751.7</ele>
        <time>2018-12-23T11:08:45Z</time>
      </trkpt>
      <trkpt lat="45.95078" lon="3.6117">
        <ele>752.2</ele>
        <time>2018-12-23T11:08:49Z</time>
      </trkpt>
      <trkpt lat="45.95076" lon="3.61174">
        <ele>752.6</ele>
        <time>2018-12-23T11:08:54Z</time>
      </trkpt>
      <trkpt lat="45.95074" lon="3.61177">
        <ele>752.9</ele>
        <time>2018-12-23T11:08:59Z</time>
      </trkpt>
      <trkpt lat="45.95073" lon="3.61181">
        <ele>753.3</ele>
        <time>2018-12-23T11:09:05Z</time>
      </trkpt>
      <trkpt lat="45.95073" lon="3.61185">
        <ele>753.8</ele>
        <time>2018-12-23T11:09:11Z</time>
      </trkpt>
      <trkpt lat="45.95073" lon="3.61191">
        <ele>754.4</ele>
        <time>2018-12-23T11:09:16Z</time>
      </trkpt>
      <trkpt lat="45.95073" lon="3.61195">
        <ele>754.8</ele>
        <time>2018-12-23T11:09:20Z</time>
      </trkpt>
      <trkpt lat="45.95073" lon="3.61199">
        <ele>755.2</ele>
        <time>2018-12-23T11:09:27Z</time>
      </trkpt>
      <trkpt lat="45.95074" lon="3.61204">
        <ele>755.7</ele>
        <time>2018-12-23T11:09:32Z</time>
      </trkpt>
      <trkpt lat="45.95074" lon="3.61209">
        <ele>756</ele>
        <time>2018-12-23T11:09:37Z</time>
      </trkpt>
      <trkpt lat="45.95075" lon="3.61212">
        <ele>756.2</ele>
        <time>2018-12-23T11:09:40Z</time>
      </trkpt>
      <trkpt lat="45.95075" lon="3.61217">
        <ele>756.5</ele>
        <time>2018-12-23T11:09:47Z</time>
      </trkpt>
      <trkpt lat="45.95076" lon="3.61222">
        <ele>756.8</ele>
        <time>2018-12-23T11:09:51Z</time>
      </trkpt>
      <trkpt lat="45.95078" lon="3.61225">
        <ele>757</ele>
        <time>2018-12-23T11:09:56Z</time>
      </trkpt>
      <trkpt lat="45.95079" lon="3.61229">
        <ele>757.3</ele>
        <time>2018-12-23T11:10:01Z</time>
      </trkpt>
      <trkpt lat="45.95082" lon="3.61232">
        <ele>757.5</ele>
        <time>2018-12-23T11:10:05Z</time>
      </trkpt>
      <trkpt lat="45.95083" lon="3.61236">
        <ele>757.8</ele>
        <time>2018-12-23T11:10:09Z</time>
      </trkpt>
      <trkpt lat="45.95084" lon="3.61239">
        <ele>758.1</ele>
        <time>2018-12-23T11:10:12Z</time>
      </trkpt>
      <trkpt lat="45.95085" lon="3.61244">
        <ele>758.4</ele>
        <time>2018-12-23T11:10:16Z</time>
      </trkpt>
      <trkpt lat="45.95087" lon="3.61247">
        <ele>758.6</ele>
        <time>2018-12-23T11:10:20Z</time>
      </trkpt>
      <trkpt lat="45.95089" lon="3.61249">
        <ele>758.8</ele>
        <time>2018-12-23T11:10:24Z</time>
      </trkpt>
      <trkpt lat="45.95091" lon="3.61253">
        <ele>759</ele>
        <time>2018-12-23T11:10:29Z</time>
      </trkpt>
      <trkpt lat="45.95091" lon="3.61257">
        <ele>759.1</ele>
        <time>2018-12-23T11:10:33Z</time>
      </trkpt>
      <trkpt lat="45.95092" lon="3.61261">
        <ele>759.1</ele>
        <time>2018-12-23T11:10:37Z</time>
      </trkpt>
      <trkpt lat="45.95093" lon="3.61265">
        <ele>759.3</ele>
        <time>2018-12-23T11:10:41Z</time>
      </trkpt>
      <trkpt lat="45.95095" lon="3.61267">
        <ele>759.4</ele>
        <time>2018-12-23T11:10:45Z</time>
      </trkpt>
      <trkpt lat="45.95097" lon="3.61271">
        <ele>759.6</ele>
        <time>2018-12-23T11:10:50Z</time>
      </trkpt>
      <trkpt lat="45.95098" lon="3.61275">
        <ele>759.7</ele>
        <time>2018-12-23T11:10:54Z</time>
      </trkpt>
      <trkpt lat="45.95101" lon="3.61278">
        <ele>759.9</ele>
        <time>2018-12-23T11:10:57Z</time>
      </trkpt>
      <trkpt lat="45.95103" lon="3.6128">
        <ele>760.2</ele>
        <time>2018-12-23T11:11:02Z</time>
      </trkpt>
      <trkpt lat="45.95106" lon="3.61283">
        <ele>760.5</ele>
        <time>2018-12-23T11:11:06Z</time>
      </trkpt>
      <trkpt lat="45.95107" lon="3.61287">
        <ele>760.8</ele>
        <time>2018-12-23T11:11:10Z</time>
      </trkpt>
      <trkpt lat="45.95111" lon="3.61289">
        <ele>761.4</ele>
        <time>2018-12-23T11:11:15Z</time>
      </trkpt>
      <trkpt lat="45.95113" lon="3.61293">
        <ele>761.8</ele>
        <time>2018-12-23T11:11:18Z</time>
      </trkpt>
      <trkpt lat="45.95114" lon="3.61296">
        <ele>762.3</ele>
        <time>2018-12-23T11:11:22Z</time>
      </trkpt>
      <trkpt lat="45.95115" lon="3.613">
        <ele>762.8</ele>
        <time>2018-12-23T11:11:25Z</time>
      </trkpt>
      <trkpt lat="45.95116" lon="3.61305">
        <ele>763.4</ele>
        <time>2018-12-23T11:11:28Z</time>
      </trkpt>
      <trkpt lat="45.95116" lon="3.6131">
        <ele>764.1</ele>
        <time>2018-12-23T11:11:31Z</time>
      </trkpt>
      <trkpt lat="45.95117" lon="3.61315">
        <ele>764.8</ele>
        <time>2018-12-23T11:11:34Z</time>
      </trkpt>
      <trkpt lat="45.95118" lon="3.61319">
        <ele>765.4</ele>
        <time>2018-12-23T11:11:38Z</time>
      </trkpt>
      <trkpt lat="45.95119" lon="3.61323">
        <ele>766.1</ele>
        <time>2018-12-23T11:11:42Z</time>
      </trkpt>
      <trkpt lat="45.95118" lon="3.61329">
        <ele>767</ele>
        <time>2018-12-23T11:11:45Z</time>
      </trkpt>
      <trkpt lat="45.95119" lon="3.61334">
        <ele>768.1</ele>
        <time>2018-12-23T11:11:49Z</time>
      </trkpt>
      <trkpt lat="45.95119" lon="3.61338">
        <ele>769</ele>
        <time>2018-12-23T11:11:54Z</time>
      </trkpt>
      <trkpt lat="45.95119" lon="3.61342">
        <ele>769.5</ele>
        <time>2018-12-23T11:11:57Z</time>
      </trkpt>
      <trkpt lat="45.95118" lon="3.61347">
        <ele>770.1</ele>
        <time>2018-12-23T11:12:00Z</time>
      </trkpt>
      <trkpt lat="45.95117" lon="3.61351">
        <ele>770.7</ele>
        <time>2018-12-23T11:12:04Z</time>
      </trkpt>
      <trkpt lat="45.95115" lon="3.61356">
        <ele>771.5</ele>
        <time>2018-12-23T11:12:07Z</time>
      </trkpt>
      <trkpt lat="45.95113" lon="3.61361">
        <ele>772.2</ele>
        <time>2018-12-23T11:12:11Z</time>
      </trkpt>
      <trkpt lat="45.95111" lon="3.61365">
        <ele>773</ele>
        <time>2018-12-23T11:12:15Z</time>
      </trkpt>
      <trkpt lat="45.95108" lon="3.61367">
        <ele>773.4</ele>
        <time>2018-12-23T11:12:19Z</time>
      </trkpt>
      <trkpt lat="45.95106" lon="3.61369">
        <ele>773.7</ele>
        <time>2018-12-23T11:12:21Z</time>
      </trkpt>
      <trkpt lat="45.95104" lon="3.61372">
        <ele>774</ele>
        <time>2018-12-23T11:12:24Z</time>
      </trkpt>
      <trkpt lat="45.95101" lon="3.61374">
        <ele>774.3</ele>
        <time>2018-12-23T11:12:28Z</time>
      </trkpt>
      <trkpt lat="45.95098" lon="3.61375">
        <ele>774.5</ele>
        <time>2018-12-23T11:12:32Z</time>
      </trkpt>
      <trkpt lat="45.95095" lon="3.61376">
        <ele>774.5</ele>
        <time>2018-12-23T11:12:36Z</time>
      </trkpt>
      <trkpt lat="45.95092" lon="3.61376">
        <ele>774.6</ele>
        <time>2018-12-23T11:12:41Z</time>
      </trkpt>
      <trkpt lat="45.95089" lon="3.61376">
        <ele>774.8</ele>
        <time>2018-12-23T11:12:45Z</time>
      </trkpt>
      <trkpt lat="45.95085" lon="3.61377">
        <ele>775</ele>
        <time>2018-12-23T11:12:48Z</time>
      </trkpt>
      <trkpt lat="45.95082" lon="3.61378">
        <ele>775</ele>
        <time>2018-12-23T11:12:50Z</time>
      </trkpt>
      <trkpt lat="45.95078" lon="3.61378">
        <ele>774.9</ele>
        <time>2018-12-23T11:12:53Z</time>
      </trkpt>
      <trkpt lat="45.95075" lon="3.61377">
        <ele>774.8</ele>
        <time>2018-12-23T11:12:56Z</time>
      </trkpt>
      <trkpt lat="45.95072" lon="3.61377">
        <ele>774.8</ele>
        <time>2018-12-23T11:12:59Z</time>
      </trkpt>
      <trkpt lat="45.95069" lon="3.61377">
        <ele>774.7</ele>
        <time>2018-12-23T11:13:02Z</time>
      </trkpt>
      <trkpt lat="45.95066" lon="3.61378">
        <ele>774.7</ele>
        <time>2018-12-23T11:13:05Z</time>
      </trkpt>
      <trkpt lat="45.95063" lon="3.61379">
        <ele>774.6</ele>
        <time>2018-12-23T11:13:07Z</time>
      </trkpt>
      <trkpt lat="45.9506" lon="3.61379">
        <ele>774.8</ele>
        <time>2018-12-23T11:13:10Z</time>
      </trkpt>
      <trkpt lat="45.95057" lon="3.61379">
        <ele>774.9</ele>
        <time>2018-12-23T11:13:13Z</time>
      </trkpt>
      <trkpt lat="45.95054" lon="3.6138">
        <ele>775.1</ele>
        <time>2018-12-23T11:13:17Z</time>
      </trkpt>
      <trkpt lat="45.95051" lon="3.6138">
        <ele>775</ele>
        <time>2018-12-23T11:13:21Z</time>
      </trkpt>
      <trkpt lat="45.95048" lon="3.6138">
        <ele>774.9</ele>
        <time>2018-12-23T11:13:26Z</time>
      </trkpt>
      <trkpt lat="45.95045" lon="3.61381">
        <ele>774.9</ele>
        <time>2018-12-23T11:13:30Z</time>
      </trkpt>
      <trkpt lat="45.95042" lon="3.61379">
        <ele>774.8</ele>
        <time>2018-12-23T11:13:41Z</time>
      </trkpt>
      <trkpt lat="45.95039" lon="3.6138">
        <ele>774.7</ele>
        <time>2018-12-23T11:13:52Z</time>
      </trkpt>
      <trkpt lat="45.95036" lon="3.61382">
        <ele>774.7</ele>
        <time>2018-12-23T11:13:57Z</time>
      </trkpt>
      <trkpt lat="45.95033" lon="3.61384">
        <ele>774.8</ele>
        <time>2018-12-23T11:14:00Z</time>
      </trkpt>
      <trkpt lat="45.9503" lon="3.61384">
        <ele>774.8</ele>
        <time>2018-12-23T11:14:03Z</time>
      </trkpt>
      <trkpt lat="45.95028" lon="3.61386">
        <ele>775.2</ele>
        <time>2018-12-23T11:14:06Z</time>
      </trkpt>
      <trkpt lat="45.95025" lon="3.61388">
        <ele>775.6</ele>
        <time>2018-12-23T11:14:09Z</time>
      </trkpt>
      <trkpt lat="45.95022" lon="3.61391">
        <ele>775.9</ele>
        <time>2018-12-23T11:14:12Z</time>
      </trkpt>
      <trkpt lat="45.9502" lon="3.61394">
        <ele>776</ele>
        <time>2018-12-23T11:14:15Z</time>
      </trkpt>
      <trkpt lat="45.95018" lon="3.61397">
        <ele>776.1</ele>
        <time>2018-12-23T11:14:19Z</time>
      </trkpt>
      <trkpt lat="45.95016" lon="3.614">
        <ele>776.2</ele>
        <time>2018-12-23T11:14:22Z</time>
      </trkpt>
      <trkpt lat="45.95013" lon="3.61402">
        <ele>776.2</ele>
        <time>2018-12-23T11:14:28Z</time>
      </trkpt>
      <trkpt lat="45.9501" lon="3.61403">
        <ele>776.3</ele>
        <time>2018-12-23T11:14:32Z</time>
      </trkpt>
      <trkpt lat="45.95007" lon="3.61406">
        <ele>776.4</ele>
        <time>2018-12-23T11:15:08Z</time>
      </trkpt>
      <trkpt lat="45.95005" lon="3.61406">
        <ele>776.5</ele>
        <time>2018-12-23T11:15:13Z</time>
      </trkpt>
      <trkpt lat="45.95002" lon="3.6141">
        <ele>776.3</ele>
        <time>2018-12-23T11:15:18Z</time>
      </trkpt>
      <trkpt lat="45.95" lon="3.61413">
        <ele>776.3</ele>
        <time>2018-12-23T11:15:59Z</time>
      </trkpt>
      <trkpt lat="45.94997" lon="3.61413">
        <ele>776.2</ele>
        <time>2018-12-23T11:16:02Z</time>
      </trkpt>
      <trkpt lat="45.94993" lon="3.61414">
        <ele>776.1</ele>
        <time>2018-12-23T11:16:06Z</time>
      </trkpt>
      <trkpt lat="45.9499" lon="3.61417">
        <ele>776.1</ele>
        <time>2018-12-23T11:16:09Z</time>
      </trkpt>
      <trkpt lat="45.94987" lon="3.6142">
        <ele>776.1</ele>
        <time>2018-12-23T11:16:12Z</time>
      </trkpt>
      <trkpt lat="45.94984" lon="3.61422">
        <ele>776.1</ele>
        <time>2018-12-23T11:16:14Z</time>
      </trkpt>
      <trkpt lat="45.94981" lon="3.61425">
        <ele>776.1</ele>
        <time>2018-12-23T11:16:16Z</time>
      </trkpt>
      <trkpt lat="45.94978" lon="3.61425">
        <ele>776.1</ele>
        <time>2018-12-23T11:16:20Z</time>
      </trkpt>
      <trkpt lat="45.94975" lon="3.61422">
        <ele>776</ele>
        <time>2018-12-23T11:16:34Z</time>
      </trkpt>
    </trkseg>
  </trk>
</gpx>